[[{"header":{"parameterUnit":"m.s-1","parameterCategory":1,"la1":31.0,"la2":29.5877,"lo1":-88.7671,"lo2":-86.6584,"dy":0.0162,"dx":0.0185,"nx":115,"ny":88,"refTime":"2024-05-09T06:00:00:Z","depth":0,"parameterNumber":2,"parameterNumberName":"U-component_of_WINDS"},"data":[0.0,0.0,0.0,0.0,0.0,0.0,0.0,0.0,0.0,0.0,0.0,0.0,0.0,0.0,0.0,0.0,0.0,0.0,0.0,0.0,0.0,0.0,0.0,0.0,0.0,0.0,0.0,0.0,0.0,0.0,0.0,0.0,0.0,0.0,0.0,0.0,0.0,0.0,0.0,0.0,0.0,0.0,0.0,0.0,0.0,0.0,0.0,0.0,0.0,0.0,0.0,0.0,0.0,0.0,0.0,0.0,0.0,0.0,0.0,0.0,0.0,0.0,0.0,0.0,0.0,0.0,0.0,0.0,0.0,0.0,0.0,0.0,0.0,0.0,0.0,0.0,0.0,0.0,0.0,0.0,0.0,0.0,0.0,0.0,0.0,0.0,0.0,0.0,0.0,0.0,0.0,0.0,0.0,0.0,0.0,0.0,0.0,0.0,0.0,0.0,0.0,0.0,0.0,0.0,0.0,0.0,0.0,0.0,0.0,0.0,0.0,0.0,0.0,0.0,0.0,0.0,0.0,0.0,0.0,0.0,0.0,0.0,0.0,0.0,0.0,0.0,0.0,0.0,0.0,0.0,0.0,0.0,0.0,0.0,0.0,0.0,0.0,0.0,0.0,0.0,0.0,0.0,0.0,0.0,0.0,0.0,0.0,0.0,0.0,0.0,0.0,0.0,0.0,0.0,0.0,0.0,0.0,0.0,0.0,0.0,0.0,0.0,0.0,0.0,0.0,0.0,0.0,0.0,0.0,0.0,0.0,0.0,0.0,0.0,0.0,0.0,0.0,0.0,0.0,0.0,0.0,0.0,0.0,0.0,0.0,0.0,0.0,0.0,0.0,0.0,0.0,0.0,0.0,0.0,0.0,0.0,0.0,0.0,0.0,0.0,0.0,0.0,0.0,0.0,0.0,0.0,0.0,0.0,0.0,0.0,0.0,0.0,0.0,0.0,0.0,0.0,0.0,0.0,0.0,0.0,0.0,0.0,0.0,0.0,0.0,0.0,0.0,0.0,0.0,0.0,0.0,0.0,0.0,0.0,0.0,0.0,0.0,0.0,0.0,0.0,0.0,0.0,0.0,0.0,0.0,0.0,0.0,0.0,0.0,0.0,0.0,0.0,0.0,0.0,0.0,0.0,0.0,0.0,0.0,0.0,0.0,0.0,0.0,0.0,0.0,0.0,0.0,0.0,0.0,0.0,0.0,0.0,0.0,0.0,0.0,0.0,0.0,0.0,0.0,0.0,0.0,0.0,0.0,0.0,0.0,0.0,0.0,0.0,0.0,0.0,0.0,0.0,0.0,0.0,0.0,0.0,0.0,0.0,0.0,0.0,0.0,0.0,0.0,0.0,0.0,0.0,0.0,0.0,0.0,0.0,0.0,0.0,0.0,0.0,0.0,0.0,0.0,0.0,0.0,0.0,0.0,0.0,0.0,0.0,0.0,0.0,0.0,0.0,0.0,0.0,0.0,0.0,0.0,0.0,0.0,0.0,0.0,0.0,0.0,0.0,0.0,0.0,0.0,0.0,0.0,0.0,0.0,0.0,0.0,0.0,0.0,0.0,0.0,0.0,0.0,0.0,0.0,0.0,0.0,0.0,0.0,0.0,0.0,0.0,0.0,0.0,0.0,0.0,0.0,0.0,0.0,0.0,0.0,0.0,0.0,0.0,0.0,0.0,0.0,0.0,0.0,0.0,0.0,0.0,0.0,0.0,0.0,0.0,0.0,0.0,0.0,0.0,0.0,0.0,0.0,0.0,0.0,0.0,0.0,0.0,0.0,0.0,0.0,0.0,0.0,0.0,0.0,0.0,0.0,0.0,0.0,0.0,0.0,0.0,0.0,0.0,0.0,0.0,0.0,0.0,0.0,0.0,0.0,0.0,0.0,0.0,0.0,0.0,0.0,0.0,0.0,0.0,0.0,0.0,0.0,0.0,0.0,0.0,0.0,0.0,0.0,0.0,0.0,0.0,0.0,0.0,0.0,0.0,0.0,0.0,0.0,0.0,0.0,0.0,0.0,0.0,0.0,0.0,0.0,0.0,0.0,0.0,0.0,0.0,0.0,0.0,0.0,0.0,0.0,0.0,0.0,0.0,0.0,0.0,0.0,0.0,0.0,0.0,0.0,0.0,0.0,0.0,0.0,0.0,0.0,0.0,0.0,0.0,0.0,0.0,0.0,0.0,0.0,0.0,0.0,0.0,0.0,0.0,0.0,0.0,0.0,0.0,0.0,0.0,0.0,0.0,0.0,0.0,0.0,0.0,0.0,0.0,0.0,0.0,0.0,0.0,0.0,0.0,0.0,0.0,0.0,0.0,0.0,0.0,0.0,0.0,0.0,0.0,0.0,0.0,0.0,0.0,0.0,0.0,0.0,0.0,0.0,0.0,0.0,0.0,0.0,0.0,0.0,0.0,0.0,0.0,0.0,0.0,0.0,0.0,0.0,0.0,0.0,0.0,0.0,0.0,0.0,0.0,0.0,0.0,0.0,0.0,0.0,0.0,0.0,0.0,0.0,0.0,0.0,0.0,0.0,0.0,0.0,0.0,0.0,0.0,0.0,0.0,0.0,0.0,0.0,0.0,0.0,0.0,0.0,0.0,0.0,0.0,0.0,0.0,0.0,0.0,0.0,0.0,0.0,0.0,0.0,0.0,0.0,0.0,0.0,0.0,0.0,0.0,0.0,0.0,0.0,0.0,0.0,0.0,0.0,0.0,0.0,0.0,0.0,0.0,0.0,0.0,0.0,0.0,0.0,0.0,0.0,0.0,0.0,0.0,0.0,0.0,0.0,0.0,0.0,0.0,0.0,0.0,0.0,0.0,0.0,0.0,0.0,0.0,0.0,0.0,0.0,0.0,0.0,0.0,0.0,0.0,0.0,0.0,0.0,0.0,0.0,0.0,0.0,0.0,0.0,0.0,0.0,0.0,0.0,0.0,0.0,0.0,0.0,0.0,0.0,0.0,0.0,0.0,0.0,0.0,0.0,0.0,0.0,0.0,0.0,0.0,0.0,0.0,0.0,0.0,0.0,0.0,0.0,0.0,0.0,0.0,0.0,0.0,0.0,0.0,0.0,0.0,0.0,0.0,0.0,0.0,0.0,0.0,0.0,0.0,0.0,0.0,0.0,0.0,0.0,0.0,0.0,0.0,0.0,0.0,0.0,0.0,0.0,0.0,0.0,0.0,0.0,0.0,0.0,0.0,0.0,0.0,0.0,0.0,0.0,0.0,0.0,0.0,0.0,0.0,0.0,0.0,0.0,0.0,0.0,0.0,0.0,0.0,0.0,0.0,0.0,0.0,0.0,0.0,0.0,0.0,0.0,0.0,0.0,0.0,0.0,0.0,0.0,0.0,0.0,0.0,0.0,0.0,0.0,0.0,0.0,0.0,0.0,0.0,0.0,0.0,0.0,0.0,0.0,0.0,0.0,0.0,0.0,0.0,0.0,0.0,0.0,0.0,0.0,0.0,0.0,0.0,0.0,0.0,0.0,0.0,0.0,0.0,0.0,0.0,0.0,0.0,0.0,0.0,0.0,0.0,0.0,0.0,0.0,0.0,0.0,0.0,0.0,0.0,0.0,0.0,0.0,0.0,0.0,0.0,0.0,0.0,0.0,0.0,0.0,0.0,0.0,0.0,0.0,0.0,0.0,0.0,0.0,0.0,0.0,0.0,0.0,0.0,0.0,0.0,0.0,0.0,0.0,0.0,0.0,0.0,0.0,0.0,0.0,0.0,0.0,0.0,0.0,0.0,0.0,0.0,0.0,0.0,0.0,0.0,0.0,0.0,0.0,0.0,0.0,0.0,0.0,0.0,0.0,0.0,0.0,0.0,0.0,0.0,0.0,0.0,0.0,0.0,0.0,0.0,0.0,0.0,0.0,0.0,0.0,0.0,0.0,0.0,0.0,0.0,0.0,0.0,0.0,0.0,0.0,0.0,0.0,0.0,0.0,0.0,0.0,0.0,0.0,0.0,0.0,0.0,0.0,0.0,0.0,0.0,0.0,0.0,0.0,0.0,0.0,0.0,0.0,0.0,0.0,0.0,0.0,0.0,0.0,0.0,0.0,0.0,0.0,0.0,0.0,0.0,0.0,0.0,0.0,0.0,0.0,0.0,0.0,0.0,0.0,0.0,0.0,0.0,0.0,0.0,0.0,0.0,0.0,0.0,0.0,0.0,0.0,0.0,0.0,0.0,0.0,0.0,0.0,0.0,0.0,0.0,0.0,0.0,0.0,0.0,0.0,0.0,0.0,0.0,0.0,0.0,0.0,0.0,0.0,0.0,-2.621,0.0,0.0,0.0,0.0,0.0,0.0,0.0,0.0,0.0,0.0,0.0,0.0,0.0,0.0,0.0,0.0,0.0,0.0,0.0,0.0,0.0,0.0,0.0,0.0,0.0,0.0,0.0,0.0,0.0,0.0,0.0,0.0,0.0,0.0,0.0,0.0,0.0,0.0,0.0,0.0,0.0,0.0,0.0,0.0,0.0,0.0,0.0,0.0,0.0,0.0,0.0,0.0,0.0,0.0,0.0,0.0,0.0,0.0,0.0,0.0,0.0,0.0,0.0,0.0,0.0,0.0,0.0,0.0,0.0,0.0,0.0,0.0,0.0,0.0,0.0,0.0,0.0,0.0,0.0,0.0,0.0,0.0,0.0,0.0,0.0,0.0,0.0,0.0,0.0,0.0,0.0,0.0,0.0,0.0,0.0,0.0,0.0,0.0,0.0,0.0,0.0,0.0,0.0,0.0,0.0,0.0,0.0,0.0,0.0,0.0,-2.6708,-2.6708,-2.6708,-2.6624,-2.6436,0.0,0.0,0.0,0.0,0.0,0.0,0.0,0.0,0.0,0.0,0.0,0.0,0.0,0.0,0.0,0.0,0.0,0.0,0.0,0.0,0.0,0.0,0.0,0.0,0.0,0.0,0.0,0.0,0.0,0.0,0.0,0.0,0.0,0.0,0.0,0.0,0.0,0.0,0.0,0.0,0.0,0.0,0.0,0.0,0.0,0.0,0.0,0.0,0.0,0.0,0.0,0.0,0.0,0.0,0.0,0.0,0.0,0.0,0.0,0.0,0.0,0.0,0.0,0.0,0.0,0.0,0.0,0.0,0.0,0.0,0.0,0.0,0.0,0.0,0.0,0.0,0.0,0.0,0.0,0.0,0.0,0.0,0.0,0.0,0.0,0.0,0.0,0.0,0.0,0.0,0.0,0.0,0.0,0.0,0.0,0.0,0.0,0.0,0.0,0.0,0.0,0.0,0.0,0.0,0.0,0.0,0.0,0.0,0.0,0.0,0.0,0.0,-2.6708,-2.6708,-2.6708,0.0,0.0,0.0,0.0,0.0,0.0,0.0,0.0,0.0,0.0,0.0,0.0,0.0,0.0,0.0,0.0,0.0,0.0,0.0,0.0,0.0,0.0,0.0,0.0,0.0,0.0,0.0,0.0,0.0,0.0,0.0,0.0,0.0,0.0,0.0,0.0,0.0,0.0,0.0,0.0,0.0,0.0,0.0,0.0,0.0,0.0,0.0,0.0,0.0,0.0,0.0,0.0,0.0,0.0,0.0,0.0,0.0,0.0,0.0,0.0,0.0,0.0,0.0,0.0,0.0,0.0,0.0,0.0,0.0,0.0,0.0,0.0,0.0,0.0,0.0,0.0,0.0,0.0,0.0,0.0,0.0,0.0,0.0,0.0,0.0,0.0,0.0,0.0,0.0,0.0,0.0,0.0,0.0,0.0,0.0,0.0,0.0,0.0,0.0,0.0,0.0,0.0,0.0,0.0,0.0,0.0,0.0,0.0,0.0,0.0,-2.6708,-2.6708,-2.6708,0.0,-2.6674,0.0,0.0,0.0,0.0,0.0,0.0,0.0,0.0,0.0,0.0,0.0,0.0,0.0,0.0,0.0,0.0,0.0,0.0,0.0,0.0,0.0,0.0,0.0,0.0,0.0,0.0,0.0,0.0,0.0,0.0,0.0,0.0,0.0,0.0,0.0,0.0,0.0,0.0,0.0,0.0,0.0,0.0,0.0,0.0,0.0,0.0,0.0,0.0,0.0,0.0,0.0,0.0,0.0,0.0,0.0,0.0,0.0,0.0,0.0,0.0,0.0,0.0,0.0,0.0,0.0,0.0,0.0,0.0,0.0,0.0,0.0,0.0,0.0,0.0,0.0,0.0,0.0,0.0,0.0,0.0,0.0,0.0,0.0,0.0,0.0,0.0,0.0,0.0,0.0,0.0,0.0,0.0,0.0,0.0,0.0,0.0,0.0,0.0,0.0,0.0,0.0,0.0,0.0,0.0,0.0,0.0,0.0,0.0,0.0,0.0,-2.6708,-2.6708,-2.6708,-2.6404,0.0,0.0,0.0,0.0,0.0,0.0,0.0,0.0,0.0,0.0,0.0,0.0,0.0,0.0,0.0,0.0,0.0,0.0,0.0,0.0,0.0,0.0,0.0,0.0,0.0,0.0,0.0,0.0,0.0,0.0,0.0,0.0,0.0,0.0,0.0,0.0,0.0,0.0,0.0,0.0,0.0,0.0,0.0,0.0,0.0,0.0,0.0,0.0,0.0,0.0,0.0,0.0,0.0,0.0,0.0,0.0,0.0,0.0,0.0,0.0,0.0,0.0,0.0,0.0,0.0,0.0,0.0,0.0,0.0,0.0,0.0,0.0,0.0,0.0,0.0,0.0,0.0,0.0,0.0,0.0,0.0,0.0,0.0,0.0,0.0,0.0,0.0,0.0,0.0,0.0,0.0,0.0,0.0,0.0,0.0,0.0,0.0,0.0,0.0,0.0,0.0,0.0,0.0,0.0,0.0,0.0,0.0,0.0,0.0,0.0,-2.6708,-2.6708,-2.6691,-2.6421,-2.59,-2.5112,0.0,0.0,0.0,0.0,0.0,0.0,0.0,0.0,0.0,0.0,0.0,0.0,0.0,0.0,0.0,0.0,0.0,0.0,0.0,0.0,0.0,0.0,0.0,0.0,0.0,0.0,0.0,0.0,0.0,0.0,0.0,0.0,0.0,0.0,0.0,0.0,0.0,0.0,0.0,0.0,0.0,0.0,0.0,0.0,0.0,0.0,0.0,0.0,0.0,0.0,0.0,0.0,0.0,0.0,0.0,0.0,0.0,0.0,0.0,0.0,0.0,0.0,0.0,0.0,0.0,0.0,0.0,0.0,0.0,0.0,0.0,0.0,0.0,0.0,0.0,0.0,0.0,0.0,0.0,0.0,0.0,0.0,0.0,0.0,0.0,0.0,0.0,0.0,0.0,0.0,0.0,0.0,0.0,0.0,0.0,0.0,0.0,0.0,0.0,0.0,0.0,0.0,0.0,0.0,0.0,0.0,0.0,0.0,-2.6708,-2.6708,-2.6708,-2.6657,-2.5698,-2.5162,0.0,0.0,0.0,0.0,0.0,0.0,0.0,0.0,0.0,0.0,0.0,0.0,0.0,0.0,0.0,0.0,0.0,0.0,0.0,0.0,0.0,0.0,0.0,0.0,0.0,0.0,0.0,0.0,0.0,0.0,0.0,0.0,0.0,0.0,0.0,0.0,0.0,0.0,0.0,0.0,0.0,0.0,0.0,0.0,0.0,0.0,0.0,0.0,0.0,0.0,0.0,0.0,0.0,0.0,0.0,0.0,0.0,0.0,0.0,0.0,0.0,0.0,0.0,0.0,0.0,0.0,0.0,0.0,0.0,0.0,0.0,0.0,0.0,0.0,0.0,0.0,0.0,0.0,0.0,0.0,0.0,0.0,0.0,0.0,0.0,0.0,0.0,0.0,0.0,0.0,0.0,0.0,0.0,0.0,0.0,0.0,0.0,0.0,0.0,0.0,0.0,0.0,0.0,0.0,0.0,0.0,0.0,0.0,0.0,-2.6708,-2.6708,-2.6573,-2.6333,-2.6185,-2.5362,0.0,0.0,0.0,0.0,0.0,0.0,0.0,0.0,0.0,0.0,0.0,0.0,0.0,0.0,0.0,0.0,0.0,0.0,0.0,0.0,0.0,0.0,0.0,0.0,0.0,0.0,0.0,0.0,0.0,0.0,0.0,0.0,0.0,0.0,0.0,0.0,0.0,0.0,0.0,0.0,0.0,0.0,0.0,0.0,0.0,0.0,0.0,0.0,0.0,0.0,0.0,0.0,0.0,0.0,0.0,0.0,0.0,0.0,0.0,0.0,0.0,0.0,0.0,0.0,0.0,0.0,0.0,0.0,0.0,0.0,0.0,0.0,0.0,0.0,0.0,0.0,0.0,0.0,0.0,0.0,0.0,0.0,0.0,0.0,0.0,0.0,0.0,0.0,0.0,0.0,0.0,0.0,0.0,0.0,0.0,0.0,0.0,0.0,0.0,0.0,0.0,0.0,0.0,0.0,0.0,0.0,0.0,0.0,0.0,-2.7227,0.0,-2.6718,-2.6435,-2.6006,-2.5049,0.0,0.0,0.0,0.0,0.0,0.0,0.0,0.0,0.0,0.0,0.0,0.0,0.0,0.0,0.0,0.0,0.0,0.0,0.0,0.0,0.0,0.0,0.0,0.0,0.0,0.0,0.0,0.0,0.0,0.0,0.0,0.0,0.0,0.0,0.0,0.0,0.0,0.0,0.0,0.0,0.0,0.0,0.0,0.0,0.0,0.0,0.0,0.0,0.0,0.0,0.0,0.0,0.0,0.0,0.0,0.0,0.0,0.0,0.0,0.0,0.0,0.0,0.0,0.0,0.0,0.0,0.0,0.0,0.0,0.0,0.0,0.0,0.0,0.0,0.0,0.0,0.0,0.0,0.0,0.0,0.0,0.0,0.0,0.0,0.0,0.0,0.0,0.0,0.0,0.0,0.0,0.0,0.0,0.0,0.0,0.0,0.0,0.0,0.0,0.0,0.0,0.0,0.0,0.0,0.0,0.0,0.0,0.0,-2.8774,-2.8271,-2.7576,-2.716,-2.7071,-2.518,-2.4183,0.0,0.0,0.0,0.0,0.0,0.0,0.0,0.0,0.0,0.0,0.0,0.0,0.0,0.0,0.0,0.0,0.0,0.0,0.0,0.0,0.0,0.0,0.0,0.0,0.0,0.0,0.0,0.0,0.0,0.0,0.0,0.0,0.0,0.0,0.0,0.0,0.0,0.0,0.0,0.0,0.0,0.0,0.0,0.0,0.0,0.0,0.0,0.0,0.0,0.0,0.0,0.0,0.0,0.0,0.0,0.0,0.0,0.0,0.0,0.0,0.0,0.0,0.0,0.0,0.0,0.0,0.0,0.0,0.0,0.0,0.0,0.0,0.0,0.0,0.0,0.0,0.0,0.0,0.0,0.0,0.0,0.0,0.0,0.0,0.0,0.0,0.0,0.0,0.0,0.0,0.0,0.0,0.0,0.0,0.0,0.0,0.0,0.0,0.0,0.0,0.0,0.0,0.0,0.0,0.0,0.0,0.0,0.0,0.0,-2.8789,-2.7918,-2.7472,-2.7492,-2.6828,-2.5803,0.0,0.0,0.0,0.0,0.0,0.0,0.0,0.0,0.0,0.0,0.0,0.0,0.0,0.0,0.0,0.0,0.0,0.0,0.0,0.0,0.0,0.0,0.0,0.0,0.0,0.0,0.0,0.0,0.0,0.0,0.0,0.0,0.0,0.0,0.0,0.0,0.0,0.0,0.0,0.0,0.0,0.0,0.0,0.0,0.0,0.0,0.0,0.0,0.0,0.0,0.0,0.0,0.0,0.0,0.0,0.0,0.0,0.0,0.0,0.0,0.0,0.0,0.0,0.0,0.0,0.0,0.0,0.0,0.0,0.0,0.0,0.0,0.0,0.0,0.0,0.0,0.0,0.0,0.0,0.0,0.0,0.0,0.0,0.0,0.0,0.0,0.0,0.0,0.0,0.0,0.0,0.0,0.0,0.0,0.0,0.0,0.0,0.0,0.0,0.0,0.0,0.0,0.0,0.0,0.0,0.0,0.0,0.0,0.0,-2.9418,-2.8367,-2.7785,-2.7801,-2.7376,-2.6583,-2.5347,0.0,0.0,0.0,0.0,0.0,0.0,0.0,0.0,0.0,0.0,0.0,0.0,0.0,0.0,0.0,0.0,0.0,0.0,0.0,0.0,0.0,0.0,0.0,0.0,0.0,0.0,0.0,0.0,0.0,0.0,0.0,0.0,0.0,0.0,0.0,0.0,0.0,0.0,0.0,0.0,0.0,0.0,0.0,0.0,0.0,0.0,0.0,0.0,0.0,0.0,0.0,0.0,0.0,0.0,0.0,0.0,0.0,0.0,0.0,0.0,0.0,0.0,0.0,0.0,0.0,0.0,0.0,0.0,0.0,0.0,0.0,0.0,0.0,0.0,0.0,0.0,0.0,0.0,0.0,0.0,0.0,0.0,0.0,0.0,0.0,0.0,0.0,0.0,0.0,0.0,0.0,0.0,0.0,0.0,0.0,0.0,0.0,0.0,0.0,0.0,0.0,0.0,0.0,0.0,0.0,0.0,0.0,0.0,-3.0146,-2.8858,-2.8132,-2.8081,-2.7121,-2.6696,0.0,0.0,0.0,0.0,0.0,0.0,0.0,0.0,0.0,0.0,0.0,0.0,0.0,0.0,0.0,0.0,0.0,0.0,0.0,0.0,0.0,0.0,0.0,0.0,0.0,0.0,0.0,0.0,0.0,0.0,0.0,0.0,0.0,0.0,0.0,0.0,0.0,0.0,0.0,0.0,0.0,0.0,0.0,0.0,0.0,0.0,0.0,0.0,0.0,0.0,0.0,0.0,0.0,0.0,0.0,0.0,0.0,0.0,0.0,0.0,0.0,0.0,0.0,0.0,0.0,0.0,0.0,0.0,0.0,0.0,0.0,0.0,0.0,0.0,0.0,0.0,0.0,0.0,0.0,0.0,0.0,0.0,0.0,0.0,0.0,0.0,0.0,0.0,0.0,0.0,0.0,0.0,0.0,0.0,0.0,0.0,0.0,0.0,0.0,0.0,0.0,0.0,0.0,0.0,0.0,0.0,0.0,0.0,0.0,-2.9601,-2.9098,-2.8905,-2.9016,-2.8419,-2.7922,0.0,0.0,0.0,0.0,0.0,0.0,0.0,0.0,0.0,0.0,0.0,0.0,0.0,0.0,0.0,0.0,0.0,0.0,0.0,0.0,0.0,0.0,0.0,0.0,0.0,0.0,0.0,0.0,0.0,0.0,0.0,0.0,0.0,0.0,0.0,0.0,0.0,0.0,0.0,0.0,0.0,0.0,0.0,0.0,0.0,0.0,0.0,0.0,0.0,0.0,0.0,0.0,0.0,0.0,0.0,0.0,0.0,0.0,0.0,0.0,0.0,0.0,0.0,0.0,0.0,0.0,0.0,0.0,0.0,0.0,0.0,0.0,0.0,0.0,0.0,0.0,0.0,0.0,0.0,0.0,0.0,0.0,0.0,0.0,0.0,0.0,0.0,0.0,0.0,0.0,0.0,0.0,0.0,0.0,0.0,0.0,0.0,0.0,0.0,0.0,0.0,0.0,0.0,0.0,0.0,0.0,0.0,0.0,-3.0526,-2.9902,-2.9872,-2.9699,-2.928,-2.8904,-2.8466,0.0,0.0,0.0,0.0,0.0,0.0,0.0,0.0,0.0,0.0,0.0,0.0,0.0,0.0,0.0,0.0,0.0,0.0,0.0,0.0,0.0,0.0,0.0,0.0,0.0,0.0,0.0,0.0,0.0,0.0,0.0,0.0,0.0,0.0,0.0,0.0,0.0,0.0,0.0,0.0,0.0,0.0,0.0,0.0,0.0,0.0,0.0,0.0,0.0,0.0,0.0,0.0,0.0,0.0,0.0,0.0,0.0,0.0,0.0,0.0,0.0,0.0,0.0,0.0,0.0,0.0,0.0,0.0,0.0,0.0,0.0,0.0,0.0,0.0,0.0,0.0,0.0,0.0,0.0,0.0,0.0,0.0,0.0,0.0,0.0,0.0,0.0,0.0,0.0,0.0,0.0,0.0,0.0,0.0,0.0,0.0,0.0,0.0,0.0,0.0,0.0,0.0,0.0,0.0,0.0,0.0,0.0,0.0,-3.1603,-3.0726,-3.0903,-3.0466,-2.9397,-2.8967,-2.8653,0.0,0.0,0.0,0.0,0.0,0.0,0.0,0.0,0.0,0.0,0.0,0.0,0.0,0.0,0.0,0.0,0.0,0.0,0.0,0.0,0.0,0.0,0.0,0.0,0.0,0.0,0.0,0.0,0.0,0.0,0.0,0.0,0.0,0.0,0.0,0.0,0.0,0.0,0.0,0.0,0.0,0.0,0.0,0.0,0.0,0.0,0.0,0.0,0.0,0.0,0.0,0.0,0.0,0.0,0.0,0.0,0.0,0.0,0.0,0.0,0.0,0.0,0.0,0.0,0.0,0.0,0.0,0.0,0.0,0.0,0.0,0.0,0.0,0.0,0.0,0.0,0.0,0.0,0.0,0.0,0.0,0.0,0.0,0.0,0.0,0.0,0.0,0.0,0.0,0.0,0.0,0.0,0.0,0.0,0.0,0.0,0.0,0.0,0.0,0.0,0.0,0.0,0.0,0.0,0.0,0.0,0.0,0.0,-3.1813,-3.1414,-3.1628,-3.1563,-3.1063,-2.9737,-2.9006,0.0,0.0,0.0,0.0,0.0,0.0,0.0,0.0,0.0,0.0,0.0,0.0,0.0,0.0,0.0,0.0,0.0,0.0,0.0,0.0,0.0,0.0,0.0,0.0,0.0,0.0,0.0,0.0,0.0,0.0,0.0,0.0,0.0,0.0,0.0,0.0,0.0,0.0,0.0,0.0,0.0,0.0,0.0,0.0,0.0,0.0,0.0,0.0,-2.3111,0.0,0.0,0.0,0.0,0.0,0.0,0.0,0.0,0.0,0.0,0.0,0.0,0.0,0.0,0.0,0.0,0.0,0.0,0.0,0.0,0.0,0.0,0.0,0.0,0.0,0.0,0.0,0.0,0.0,0.0,0.0,0.0,0.0,0.0,0.0,0.0,0.0,0.0,0.0,0.0,0.0,0.0,0.0,0.0,0.0,0.0,0.0,0.0,0.0,0.0,0.0,0.0,0.0,0.0,0.0,0.0,0.0,0.0,0.0,-3.2749,-3.2321,-3.2426,-3.2232,-3.1622,-3.0616,-2.9935,0.0,0.0,0.0,0.0,0.0,0.0,0.0,0.0,0.0,0.0,0.0,0.0,0.0,0.0,0.0,0.0,0.0,0.0,0.0,0.0,0.0,0.0,0.0,0.0,0.0,0.0,0.0,0.0,0.0,0.0,0.0,0.0,0.0,0.0,0.0,0.0,0.0,0.0,0.0,0.0,0.0,0.0,0.0,0.0,0.0,0.0,0.0,0.0,0.0,0.0,0.0,0.0,0.0,0.0,0.0,0.0,0.0,0.0,0.0,0.0,0.0,0.0,0.0,0.0,0.0,0.0,0.0,0.0,0.0,0.0,0.0,0.0,0.0,0.0,0.0,0.0,0.0,0.0,0.0,0.0,0.0,0.0,0.0,0.0,0.0,0.0,0.0,0.0,0.0,0.0,0.0,0.0,0.0,0.0,0.0,0.0,0.0,0.0,0.0,0.0,0.0,0.0,0.0,0.0,0.0,0.0,0.0,-3.4101,-3.3825,-3.3291,-3.3242,-3.2854,-3.2007,-3.1676,-3.1219,-3.0672,0.0,0.0,0.0,0.0,0.0,0.0,0.0,0.0,0.0,0.0,0.0,0.0,0.0,0.0,0.0,0.0,0.0,0.0,0.0,0.0,0.0,0.0,0.0,0.0,0.0,0.0,0.0,0.0,0.0,0.0,0.0,0.0,0.0,0.0,0.0,0.0,0.0,0.0,-2.2313,-2.2521,0.0,0.0,0.0,0.0,0.0,0.0,0.0,0.0,-2.2668,0.0,0.0,0.0,0.0,0.0,0.0,0.0,0.0,0.0,0.0,0.0,0.0,0.0,0.0,0.0,0.0,0.0,0.0,0.0,0.0,0.0,0.0,0.0,0.0,0.0,0.0,0.0,0.0,0.0,0.0,0.0,0.0,0.0,0.0,0.0,0.0,0.0,0.0,0.0,0.0,0.0,0.0,0.0,0.0,0.0,0.0,0.0,0.0,0.0,0.0,0.0,0.0,0.0,0.0,0.0,0.0,-3.4101,-3.4101,-3.4036,-3.3939,-3.3939,-3.3849,-3.367,-3.3096,-3.2716,-3.2555,0.0,0.0,0.0,0.0,0.0,0.0,0.0,0.0,0.0,0.0,0.0,0.0,0.0,0.0,0.0,0.0,0.0,0.0,0.0,0.0,0.0,0.0,0.0,0.0,0.0,0.0,0.0,0.0,0.0,0.0,0.0,0.0,0.0,0.0,0.0,0.0,0.0,0.0,0.0,-2.2703,-2.2871,0.0,0.0,0.0,0.0,0.0,0.0,0.0,0.0,-2.2816,0.0,0.0,0.0,0.0,0.0,0.0,0.0,0.0,0.0,0.0,0.0,0.0,0.0,0.0,0.0,0.0,0.0,0.0,0.0,0.0,0.0,0.0,0.0,0.0,0.0,0.0,0.0,0.0,0.0,0.0,0.0,0.0,0.0,0.0,0.0,0.0,0.0,0.0,0.0,0.0,0.0,0.0,0.0,0.0,0.0,0.0,0.0,0.0,0.0,0.0,0.0,0.0,0.0,0.0,0.0,-3.4101,-3.4101,-3.4101,-3.4101,-3.4101,-3.4101,-3.4084,-3.3652,-3.3466,0.0,0.0,0.0,0.0,0.0,0.0,0.0,0.0,0.0,0.0,0.0,0.0,0.0,0.0,0.0,0.0,0.0,0.0,0.0,0.0,0.0,0.0,0.0,0.0,0.0,0.0,0.0,0.0,0.0,0.0,0.0,0.0,0.0,0.0,0.0,0.0,0.0,0.0,0.0,0.0,-2.2579,-2.2521,-2.2206,0.0,0.0,0.0,0.0,0.0,0.0,-2.2415,-2.2525,0.0,0.0,0.0,0.0,0.0,0.0,0.0,0.0,0.0,0.0,0.0,0.0,0.0,0.0,0.0,0.0,0.0,0.0,0.0,0.0,0.0,0.0,0.0,0.0,0.0,0.0,0.0,0.0,0.0,0.0,0.0,0.0,0.0,0.0,0.0,0.0,0.0,0.0,0.0,0.0,0.0,0.0,0.0,0.0,0.0,0.0,0.0,0.0,0.0,0.0,0.0,0.0,0.0,0.0,0.0,-3.4101,-3.4101,-3.4101,-3.4101,-3.4101,-3.4101,-3.4101,-3.3899,-3.3873,0.0,0.0,0.0,0.0,0.0,0.0,0.0,0.0,0.0,0.0,0.0,0.0,0.0,0.0,0.0,0.0,0.0,0.0,0.0,0.0,0.0,0.0,0.0,0.0,0.0,0.0,0.0,0.0,0.0,0.0,0.0,0.0,0.0,0.0,0.0,0.0,0.0,0.0,0.0,0.0,0.0,-2.2265,-2.2155,-2.2178,0.0,0.0,0.0,0.0,-2.2214,-2.2183,0.0,0.0,0.0,0.0,0.0,0.0,0.0,0.0,0.0,0.0,0.0,0.0,0.0,0.0,0.0,0.0,0.0,0.0,0.0,0.0,0.0,0.0,0.0,0.0,0.0,0.0,0.0,0.0,0.0,0.0,0.0,0.0,0.0,0.0,0.0,0.0,0.0,0.0,0.0,0.0,0.0,0.0,0.0,0.0,0.0,0.0,0.0,0.0,0.0,0.0,0.0,0.0,0.0,0.0,0.0,0.0,-3.4101,-3.4101,-3.4101,-3.4101,-3.4101,-3.4101,-3.4101,-3.4075,-3.405,0.0,0.0,0.0,0.0,0.0,0.0,0.0,0.0,0.0,0.0,0.0,0.0,0.0,0.0,0.0,0.0,0.0,0.0,0.0,0.0,0.0,0.0,0.0,0.0,0.0,0.0,0.0,0.0,0.0,0.0,0.0,0.0,0.0,0.0,0.0,0.0,0.0,0.0,0.0,0.0,0.0,-2.2615,-2.2615,-2.2415,-2.2282,0.0,0.0,-2.2285,-2.2214,-2.2183,0.0,0.0,0.0,0.0,0.0,0.0,0.0,0.0,0.0,0.0,0.0,0.0,0.0,0.0,0.0,0.0,0.0,0.0,0.0,0.0,0.0,0.0,0.0,0.0,0.0,0.0,0.0,0.0,0.0,0.0,0.0,0.0,0.0,0.0,0.0,0.0,0.0,0.0,0.0,0.0,0.0,0.0,0.0,0.0,0.0,0.0,0.0,0.0,0.0,0.0,0.0,0.0,0.0,0.0,0.0,-3.4151,-3.4201,-3.4126,-3.4101,-3.4101,-3.4101,-3.4101,-3.4101,-3.4101,-3.4101,0.0,0.0,0.0,0.0,0.0,0.0,0.0,0.0,0.0,0.0,0.0,0.0,0.0,0.0,0.0,0.0,0.0,0.0,0.0,0.0,0.0,0.0,0.0,0.0,0.0,0.0,0.0,0.0,0.0,0.0,0.0,0.0,0.0,0.0,0.0,0.0,0.0,0.0,0.0,0.0,0.0,0.0,-2.2449,-2.2335,0.0,0.0,0.0,-2.224,-2.2254,0.0,0.0,0.0,0.0,0.0,0.0,0.0,0.0,0.0,0.0,0.0,0.0,0.0,0.0,0.0,0.0,0.0,0.0,0.0,0.0,0.0,0.0,0.0,0.0,0.0,0.0,0.0,0.0,0.0,0.0,0.0,0.0,0.0,0.0,0.0,0.0,0.0,0.0,0.0,0.0,0.0,0.0,0.0,0.0,0.0,0.0,0.0,0.0,0.0,0.0,0.0,0.0,0.0,0.0,0.0,0.0,0.0,-3.43,-3.4176,-3.4101,-3.4101,-3.4101,-3.4101,-3.4101,-3.4101,0.0,0.0,0.0,0.0,0.0,0.0,0.0,0.0,0.0,0.0,0.0,0.0,0.0,0.0,0.0,0.0,0.0,0.0,0.0,0.0,0.0,0.0,0.0,0.0,0.0,0.0,0.0,-2.1525,0.0,0.0,0.0,0.0,0.0,0.0,0.0,0.0,0.0,0.0,0.0,0.0,0.0,0.0,-2.2547,-2.236,-2.2526,-2.2675,0.0,0.0,-2.2796,-2.2854,-2.2627,-2.2579,0.0,0.0,0.0,0.0,0.0,0.0,0.0,0.0,0.0,0.0,0.0,0.0,0.0,0.0,0.0,0.0,0.0,0.0,0.0,0.0,0.0,0.0,0.0,0.0,0.0,0.0,0.0,0.0,0.0,0.0,0.0,0.0,0.0,0.0,0.0,0.0,0.0,0.0,0.0,0.0,0.0,0.0,0.0,0.0,0.0,0.0,0.0,0.0,0.0,0.0,0.0,0.0,0.0,0.0,0.0,-3.43,-3.4176,-3.4101,-3.4101,-3.4101,-3.4101,-3.4101,-3.4101,-3.4101,0.0,0.0,0.0,0.0,0.0,0.0,0.0,0.0,0.0,0.0,0.0,0.0,0.0,0.0,0.0,0.0,0.0,0.0,0.0,0.0,0.0,0.0,0.0,0.0,0.0,0.0,0.0,0.0,0.0,0.0,0.0,0.0,0.0,0.0,0.0,0.0,0.0,0.0,0.0,0.0,0.0,-2.3104,-2.2724,-2.3305,-2.3785,0.0,0.0,-2.4338,-2.4338,-2.3705,-2.3487,-2.4222,0.0,0.0,0.0,0.0,0.0,0.0,0.0,0.0,0.0,0.0,0.0,0.0,0.0,0.0,0.0,0.0,0.0,0.0,0.0,0.0,0.0,0.0,0.0,0.0,0.0,0.0,0.0,0.0,0.0,0.0,0.0,0.0,0.0,0.0,0.0,0.0,0.0,0.0,0.0,0.0,0.0,0.0,0.0,0.0,0.0,0.0,0.0,0.0,0.0,0.0,0.0,0.0,0.0,-3.4349,-3.4423,-3.4201,-3.4101,-3.4101,-3.4101,-3.4101,-3.4101,-3.4101,-3.4101,0.0,0.0,0.0,0.0,0.0,0.0,0.0,0.0,0.0,0.0,0.0,0.0,0.0,0.0,0.0,0.0,0.0,0.0,0.0,0.0,0.0,0.0,0.0,0.0,0.0,0.0,0.0,0.0,-2.1693,-2.1884,-2.201,0.0,0.0,0.0,0.0,0.0,0.0,0.0,0.0,0.0,0.0,-2.3309,-2.3095,-2.3323,0.0,0.0,-2.4048,-2.4224,-2.446,-2.4255,-2.4156,-2.4457,-2.4255,0.0,0.0,0.0,0.0,0.0,0.0,0.0,0.0,0.0,0.0,0.0,0.0,0.0,0.0,0.0,0.0,0.0,0.0,0.0,0.0,0.0,0.0,0.0,0.0,0.0,0.0,0.0,0.0,0.0,0.0,0.0,0.0,0.0,0.0,0.0,0.0,0.0,0.0,0.0,0.0,0.0,0.0,0.0,0.0,0.0,0.0,0.0,0.0,0.0,0.0,0.0,0.0,-3.4448,-3.4497,-3.4275,-3.4151,-3.4101,-3.4101,-3.4101,-3.4101,-3.4101,-3.4101,0.0,0.0,0.0,0.0,0.0,0.0,0.0,0.0,0.0,0.0,0.0,0.0,0.0,0.0,0.0,0.0,0.0,0.0,0.0,0.0,0.0,0.0,0.0,0.0,0.0,0.0,0.0,0.0,-2.2085,-2.2319,-2.2517,0.0,0.0,0.0,0.0,0.0,0.0,0.0,0.0,0.0,0.0,-2.3496,-2.3331,-2.367,-2.4066,-2.4326,-2.458,-2.4828,-2.5103,-2.487,-2.4723,-2.4941,0.0,0.0,0.0,0.0,0.0,0.0,0.0,0.0,0.0,0.0,0.0,0.0,0.0,0.0,0.0,0.0,0.0,0.0,0.0,0.0,0.0,0.0,0.0,0.0,0.0,0.0,0.0,0.0,0.0,0.0,0.0,0.0,0.0,0.0,0.0,0.0,0.0,0.0,0.0,0.0,0.0,0.0,0.0,0.0,0.0,0.0,0.0,0.0,0.0,0.0,0.0,0.0,0.0,-3.4635,-3.4497,-3.4374,-3.4226,-3.4101,-3.4101,-3.4101,-3.4101,-3.4101,-3.4101,-3.4101,0.0,0.0,0.0,0.0,0.0,0.0,0.0,0.0,0.0,0.0,0.0,0.0,0.0,0.0,0.0,0.0,0.0,0.0,0.0,0.0,0.0,0.0,0.0,0.0,0.0,0.0,-2.3139,-2.3348,-2.3504,0.0,0.0,0.0,0.0,0.0,0.0,0.0,0.0,0.0,0.0,-2.362,-2.3761,-2.3389,-2.4544,-2.5371,-2.5422,-2.6074,-2.659,-2.6573,-2.5681,-2.5225,0.0,0.0,0.0,0.0,0.0,0.0,0.0,0.0,0.0,0.0,0.0,0.0,0.0,0.0,0.0,0.0,0.0,0.0,0.0,0.0,0.0,0.0,0.0,0.0,0.0,0.0,0.0,0.0,-3.3767,0.0,0.0,0.0,0.0,0.0,0.0,0.0,0.0,0.0,0.0,0.0,-3.2446,-3.2308,0.0,0.0,0.0,0.0,0.0,0.0,0.0,0.0,0.0,0.0,0.0,0.0,-3.4667,-3.4618,-3.4423,-3.4275,-3.4226,-3.4151,-3.4101,-3.4101,-3.4101,-3.4101,-3.4101,0.0,0.0,0.0,0.0,0.0,0.0,0.0,0.0,0.0,0.0,0.0,0.0,0.0,0.0,0.0,0.0,0.0,0.0,0.0,0.0,0.0,0.0,0.0,0.0,0.0,-2.3479,0.0,0.0,0.0,0.0,0.0,0.0,0.0,0.0,0.0,0.0,0.0,-2.457,-2.483,-2.4732,-2.4583,-2.4441,-2.4697,-2.4981,0.0,0.0,0.0,0.0,0.0,0.0,0.0,0.0,0.0,0.0,0.0,0.0,0.0,0.0,-2.1783,-2.1231,-2.1384,-2.1643,-2.1702,0.0,0.0,0.0,0.0,0.0,0.0,0.0,0.0,0.0,0.0,0.0,0.0,0.0,0.0,0.0,0.0,-3.3339,0.0,0.0,0.0,0.0,0.0,0.0,0.0,0.0,-3.2489,-3.2213,-3.2003,-3.1836,-3.2061,0.0,-3.2718,-3.3293,0.0,0.0,0.0,0.0,0.0,0.0,0.0,0.0,-3.4739,-3.4707,-3.4546,-3.4423,-3.4374,-3.4275,-3.4226,-3.4176,-3.4126,-3.4101,-3.4101,-3.4101,-3.4101,0.0,0.0,0.0,0.0,0.0,0.0,0.0,0.0,0.0,0.0,0.0,0.0,0.0,0.0,0.0,0.0,0.0,0.0,0.0,0.0,0.0,0.0,0.0,-2.4243,0.0,0.0,0.0,0.0,0.0,0.0,0.0,0.0,0.0,-2.5577,-2.5213,-2.5106,-2.5503,-2.5224,-2.4982,-2.4866,0.0,0.0,0.0,0.0,0.0,0.0,0.0,-2.5596,-2.5332,-2.5389,-2.5389,-2.5121,-2.452,-2.3963,-2.3709,0.0,0.0,-2.1363,-2.1326,-2.1456,-2.1401,-2.1823,-2.226,-2.243,-2.2923,-2.3323,0.0,0.0,0.0,0.0,0.0,0.0,0.0,0.0,-3.1903,-3.2238,0.0,-3.2864,0.0,0.0,0.0,0.0,0.0,0.0,0.0,0.0,-3.1263,-3.1146,-3.1117,-3.1146,-3.1409,-3.1864,-3.1934,-3.261,-3.3832,-3.3899,0.0,0.0,0.0,0.0,0.0,0.0,-3.4851,-3.4715,-3.4691,-3.4635,-3.4497,-3.4513,-3.4431,-3.4325,-3.4176,-3.4101,-3.4101,-3.4101,-3.4101,-3.4101,-3.4226,0.0,0.0,0.0,0.0,0.0,0.0,0.0,0.0,0.0,0.0,0.0,0.0,0.0,0.0,0.0,0.0,0.0,0.0,0.0,0.0,-2.5597,0.0,0.0,0.0,0.0,0.0,0.0,0.0,0.0,0.0,0.0,-2.5987,-2.5828,-2.5605,-2.5384,0.0,0.0,0.0,0.0,-2.5166,-2.497,-2.5282,-2.5527,-2.5527,-2.5236,-2.4997,-2.493,0.0,0.0,-2.4302,-2.4302,-2.4066,-2.3386,-2.3323,-2.2917,-2.1645,-2.1655,-2.1613,-2.1063,-2.1645,-2.2163,-2.2294,-2.3014,-2.3704,-3.1822,0.0,0.0,0.0,0.0,-3.1667,-3.168,-3.1508,-3.1892,-3.213,-3.2281,-3.2351,0.0,0.0,0.0,0.0,0.0,0.0,-3.2691,-3.1892,-3.1979,-3.1682,-3.1102,-3.1307,-3.1409,-3.1466,-3.1992,-3.2652,-3.3397,-3.3729,-3.425,-3.4899,0.0,0.0,0.0,0.0,-3.4875,-3.4851,-3.4739,-3.4683,-3.4643,-3.4546,-3.4472,-3.4448,-3.4284,-3.4234,-3.4234,-3.4151,-3.4101,-3.4101,-3.4126,0.0,0.0,0.0,0.0,0.0,0.0,0.0,0.0,0.0,0.0,0.0,0.0,0.0,0.0,0.0,0.0,0.0,0.0,0.0,-2.5664,-2.564,-2.5677,0.0,0.0,0.0,0.0,0.0,0.0,0.0,0.0,0.0,-2.6428,-2.6,-2.5794,0.0,0.0,-2.5603,-2.6042,-2.5911,-2.5753,-2.5677,0.0,0.0,0.0,-2.6272,-2.6099,-2.532,-2.4709,-2.4281,-2.4281,-2.4281,-2.422,-2.4015,-2.3984,-2.3733,-2.2917,-2.2393,-2.2115,-2.1931,-2.2276,-2.2617,-2.2671,-2.3301,-2.3852,-3.3422,-3.25,-3.2106,-3.1975,-3.2124,-3.2435,-3.2361,-3.2005,-3.2302,-3.2283,-3.2072,-3.2158,-3.239,-3.2772,-3.305,0.0,0.0,0.0,-3.2532,-3.1866,-3.1979,-3.1768,-3.1278,-3.1424,-3.1482,-3.1438,-3.2299,-3.2895,-3.3209,-3.3942,-3.4497,-3.4899,0.0,0.0,-3.4899,-3.4899,-3.4899,-3.4899,-3.4828,-3.478,-3.478,-3.4643,-3.4586,-3.457,-3.4448,-3.4374,-3.4374,-3.43,-3.425,-3.4275,-3.425,-3.4109,0.0,0.0,0.0,0.0,0.0,0.0,0.0,0.0,0.0,0.0,0.0,-2.8126,-2.8323,0.0,0.0,0.0,-2.736,-2.6977,-2.6552,-2.6503,0.0,0.0,0.0,0.0,0.0,0.0,0.0,-2.6442,-2.6422,-2.6584,-2.7025,-2.6697,-2.6584,-2.7041,-2.6717,-2.6564,-2.6925,0.0,-2.6529,-2.644,-2.6532,-2.6623,-2.6623,-2.6754,-2.6614,-2.5854,-2.5426,-2.501,-2.4712,-2.4697,-2.4589,-2.4379,-2.4281,-2.4179,-2.3763,-2.3363,-2.2886,-2.2428,-2.2688,-2.3017,-2.3201,-2.3797,-2.4383,-3.5589,-3.4813,-3.3913,-3.3476,-3.3342,-3.3297,-3.3191,-3.3053,-3.3038,-3.2682,-3.2151,-3.2332,-3.2331,-3.227,-3.2928,0.0,0.0,-3.2496,-3.2233,-3.166,-3.166,-3.166,-3.166,-3.1673,-3.1628,-3.1686,-3.2749,-3.3277,-3.3329,-3.4317,-3.4859,-3.4899,-3.4739,-3.4739,-3.4899,-3.4899,-3.4899,-3.4899,-3.4899,-3.4899,-3.4899,-3.478,-3.4715,-3.4732,-3.4594,-3.4497,-3.4521,-3.4497,-3.4472,-3.4407,-3.4472,-3.4407,-3.4259,0.0,0.0,0.0,0.0,0.0,0.0,0.0,0.0,0.0,0.0,0.0,0.0,0.0,0.0,0.0,-2.7834,0.0,-2.7887,-2.7806,0.0,0.0,0.0,-2.7987,-2.7936,-2.7947,-2.7911,-2.7745,0.0,0.0,0.0,0.0,-2.7818,-2.7867,-2.7749,-2.766,-2.7506,-2.7517,-2.7412,-2.7253,-2.7253,-2.7263,-2.733,-2.7045,-2.6785,-2.6547,-2.6449,-2.611,-2.557,-2.5395,-2.5149,-2.4548,-2.4394,-2.4364,-2.4297,-2.4225,-2.3933,-2.2717,-2.2963,-2.3502,-2.3833,-2.4397,-2.5051,-3.6536,-3.66,-3.6357,-3.5311,-3.3807,-3.3444,-3.333,-3.3407,-3.3392,-3.3288,-3.3138,-3.3169,-3.3201,-3.3156,-3.335,-3.3365,-3.3216,-3.3231,-3.3171,-3.3021,-3.3021,-3.3036,-3.3036,-3.2968,-3.294,-3.2995,-3.3588,-3.3882,-3.3892,-3.4159,-3.4497,-3.4851,-3.4472,-3.4472,-3.4899,-3.4899,-3.4899,-3.4899,-3.4899,-3.4899,-3.4899,-3.4875,-3.4851,-3.4835,-3.4732,-3.4643,-3.4643,-3.4546,-3.4259,-3.3732,-3.4193,-3.3783,-3.2308,-3.3203,0.0,0.0,0.0,0.0,0.0,0.0,0.0,0.0,0.0,-2.9337,-2.9879,0.0,-2.9601,0.0,-2.8997,-2.8481,-2.7952,-2.7927,0.0,0.0,-2.8046,-2.8125,-2.8076,-2.7983,-2.7963,-2.8,-2.7923,-2.8058,-2.8623,-2.8705,-2.8879,-2.9264,-2.8401,-2.7878,-2.8354,-2.8287,-2.8137,-2.812,-2.8386,-2.8632,-2.853,-2.7933,-2.7446,-2.7378,-2.687,-2.6385,-2.6361,-2.6229,-2.5903,-2.5241,-2.505,-2.4872,-2.4425,-2.4281,-2.4204,-2.3902,-2.3963,-2.4092,-2.4199,-2.457,-2.5059,-3.8802,-3.8888,-3.8394,-3.7431,-3.6211,-3.5457,-3.5185,-3.5235,-3.525,-3.5085,-3.4786,-3.4188,-3.3769,-3.3499,-3.3499,-3.3499,-3.3499,-3.3499,-3.3499,-3.3499,-3.3499,-3.3499,-3.3515,-3.3471,-3.3467,-3.3481,-3.3951,-3.4335,-3.4643,-3.4852,-3.5295,-3.5852,-3.5251,-3.5087,-3.5379,-3.5065,-3.5048,-3.5379,-3.5048,-3.4899,-3.4899,-3.4899,-3.4899,-3.4883,-3.4811,-3.4787,-3.4804,-3.4497,-3.4259,-3.4086,-3.4168,-3.3841,-3.2986,-3.323,-3.3335,0.0,0.0,0.0,0.0,0.0,0.0,0.0,0.0,0.0,0.0,0.0,-3.0092,0.0,-2.9802,0.0,-2.9046,-2.8977,-2.8956,-2.8931,-2.9075,-2.9152,-2.9046,-2.903,-2.9014,-2.9046,-2.8968,-2.9053,-2.9398,-2.9442,-2.955,-2.987,-2.92,-2.8822,-2.9178,-2.9173,-2.907,-2.908,-2.9291,-2.9412,-2.9305,-2.8858,-2.8453,-2.8316,-2.7828,-2.7372,-2.7197,-2.7045,-2.6715,-2.5971,-2.5867,-2.5716,-2.5081,-2.4827,-2.4692,-2.4483,-2.4364,-2.4317,-2.4302,-2.4472,-2.4799,-4.127,-4.1067,-4.0084,-3.9555,-3.9289,-3.8336,-3.7719,-3.7404,-3.7404,-3.7105,-3.6537,-3.537,-3.4532,-3.4008,-3.3993,-3.3963,-3.3873,-3.3873,-3.3829,-3.3754,-3.3754,-3.3754,-3.3739,-3.3741,-3.3742,-3.3757,-3.4193,-3.4729,-3.5284,-3.5655,-3.6243,-3.6916,-3.6281,-3.6009,-3.6241,-3.5462,-3.5313,-3.5843,-3.523,-3.4899,-3.4899,-3.4899,-3.4899,-3.4899,-3.4899,-3.4899,-3.4899,-3.4374,-3.4275,-3.4602,-3.4109,-3.3917,-3.4218,-3.3293,-3.3018,0.0,-3.2695,0.0,0.0,0.0,0.0,0.0,0.0,0.0,0.0,-2.9924,-2.9946,-3.0447,-3.0338,-3.0274,-3.0396,-3.029,-3.0227,-3.0231,-3.0354,-3.0375,-3.0253,-3.0354,-3.0354,-3.0253,-3.0248,-3.0184,-3.0049,-3.0038,-3.0011,-2.9924,-2.9853,-2.9783,-2.9864,-2.9848,-2.981,-2.9896,-2.9896,-2.9748,-2.9538,-2.9493,-2.9371,-2.9136,-2.8841,-2.8576,-2.8051,-2.7912,-2.7617,-2.6808,-2.6718,-2.6617,-2.5913,-2.5561,-2.5246,-2.4803,-2.4519,-2.4359,-2.4302,-2.4302,-2.4553,-4.1232,-4.1331,-4.1115,-4.101,-4.0943,-4.0741,-3.9394,-3.7404,-3.7404,-3.7345,-3.721,-3.6971,-3.6776,-3.6671,-3.6671,-3.6402,-3.5923,-3.5923,-3.5624,-3.513,-3.513,-3.513,-3.5117,-3.5017,-3.4958,-3.4957,-3.4996,-3.5103,-3.5215,-3.4815,-3.5212,-3.6269,-3.5722,-3.6217,0.0,0.0,0.0,0.0,-3.4965,-3.4899,-3.4899,-3.4899,-3.4899,-3.4899,-3.4899,0.0,-3.4899,-3.4374,-3.3882,-3.3381,-3.3345,0.0,0.0,0.0,0.0,0.0,0.0,0.0,0.0,0.0,0.0,0.0,-3.182,-3.1467,-3.0615,-3.0348,-3.03,-3.0485,-3.0422,-3.0375,-3.0396,-3.0359,-3.0375,-3.0375,-3.0422,-3.0468,-3.0443,-3.0401,-3.0401,-3.0426,-3.0417,-3.0338,-3.0295,-3.0248,-3.0103,-3.0011,-2.9924,-2.9918,-2.9918,-2.9896,-2.9896,-2.9896,-2.9896,-2.9814,-2.9554,-2.9531,-2.9515,-2.9403,-2.9213,-2.9058,-2.9076,-2.893,-2.8519,-2.7649,-2.7651,-2.7469,-2.6413,-2.6022,-2.5775,-2.5255,-2.4854,-2.4487,-2.4343,-2.4281,-2.4446,-4.224,0.0,-4.2051,-4.1901,0.0,-4.1519,-4.0621,-3.9349,-3.902,-3.8512,-3.7898,-3.7898,-3.7719,-3.7404,-3.7404,-3.724,-3.6956,-3.6941,-3.6761,-3.6432,-3.6133,-3.5998,-3.5968,-3.5601,-3.5394,-3.5411,-3.5355,-3.5505,-3.5742,-3.5474,-3.5815,-3.6738,-3.6402,-3.6722,-3.7664,-3.6933,-3.5992,-3.4916,-3.4899,-3.4899,-3.4899,-3.4899,-3.4899,-3.4899,0.0,0.0,0.0,0.0,0.0,0.0,0.0,0.0,0.0,0.0,0.0,-3.2173,-3.2035,-3.2007,-3.2145,-3.2284,-3.2268,-3.2064,-3.2066,-3.1686,-3.0753,-3.0628,-3.0571,-3.0518,-3.0464,-3.0459,-3.0464,-3.0459,-3.0443,-3.0443,-3.0485,-3.0489,-3.0489,-3.0464,-3.0464,-3.0485,-3.0464,-3.0443,-3.0401,-3.0338,-3.0231,-3.0124,-3.0076,-3.0033,-2.9968,-2.994,-2.9896,-2.9896,-2.9896,-2.9858,-2.9748,-2.9704,-2.9687,-2.9665,-2.9486,-2.9357,-2.947,-2.9396,-2.9087,-2.8526,-2.8509,-2.8288,-2.7551,-2.7067,-2.6622,-2.5963,-2.5524,-2.5086,-2.4616,-2.4431,-2.4574,-4.3409,-4.326,-4.2761,-4.256,-4.253,-4.1953,-4.1669,-4.1504,0.0,0.0,0.0,-3.8631,-3.8272,-3.7778,-3.7764,-3.7704,-3.7584,-3.7584,-3.7524,-3.7389,-3.6881,-3.6656,-3.6611,-3.5998,-3.5684,-3.5669,-3.5564,-3.5765,-3.6227,-3.6227,-3.6569,-3.7174,-3.7103,-3.7122,-3.7198,-3.7134,-3.6455,-3.5181,-3.5081,-3.5032,-3.4916,-3.4899,-3.4899,-3.4899,-3.4899,-3.4899,-3.4899,-3.4374,-3.4101,-3.4075,-3.3439,-3.3066,-3.3039,-3.2532,-3.2231,-3.2176,-3.1768,-3.1438,-3.1322,-3.1553,-3.1781,-3.2145,-3.2155,-3.1776,-3.0899,-3.0833,-3.0771,-3.0568,-3.0545,-3.0516,-3.0506,-3.0489,-3.0489,-3.0489,-3.0489,-3.0489,-3.0489,-3.0489,-3.0489,-3.0489,-3.0489,-3.0468,-3.0422,-3.038,-3.0375,-3.0253,-3.0227,-3.0146,-3.0017,-2.9946,-2.9896,-2.9896,-2.9896,-2.9896,-2.9896,-2.9896,-2.9896,-2.9874,-2.9687,-2.9576,-2.9576,-2.956,-2.9464,-2.9189,-2.9213,-2.9012,-2.8602,-2.8123,-2.7618,-2.6791,-2.63,-2.5835,-2.5116,-2.4809,-2.4811,-4.3853,-4.329,-4.32,-4.3155,-4.3155,-4.305,-4.2731,-4.2171,-4.0935,-4.0292,-4.0083,-3.9529,-3.9194,-3.9104,-3.9104,-3.8796,-3.8257,-3.8257,-3.7943,0.0,-3.7315,-3.7285,-3.724,-3.6641,-3.6342,-3.6312,-3.5789,-3.5537,-3.5619,-3.5619,-3.5941,-3.6477,-3.6538,-3.6751,-3.7153,-3.7188,-3.6751,-3.5868,-3.5843,-3.5528,-3.4916,-3.4899,-3.4899,-3.4899,-3.4899,-3.4899,-3.4899,-3.4374,-3.4101,-3.4075,-3.3087,-3.2492,-3.2492,-3.1966,-3.1582,-3.1452,-3.1496,-3.1438,-3.1322,-3.1894,-3.2287,-3.2355,-3.236,-3.198,-3.107,-3.0986,-3.0919,-3.0775,-3.0784,-3.0696,-3.0521,-3.0522,-3.0539,-3.0489,-3.0489,-3.0489,-3.0489,-3.0489,-3.0489,-3.0489,-3.0489,-3.0489,-3.0485,-3.0422,-3.0417,-3.0359,-3.0274,-3.0167,-3.0038,-2.9946,-2.9918,-2.9896,-2.9896,-2.9896,-2.9896,-2.9896,-2.9896,-2.9896,-2.9874,-2.9814,-2.9808,-2.983,-2.9726,-2.9509,-2.9576,-2.9528,-2.9082,-2.883,-2.8398,-2.7838,-2.7073,-2.6317,-2.599,-2.554,-2.51,-4.4676,-4.4362,-4.4018,-4.3828,-4.3798,-4.3439,-4.3165,-4.2806,-4.1893,-4.1302,-4.0876,-4.0232,-3.9948,-3.9918,-3.9538,-3.926,-3.8945,-3.8945,-3.8781,-3.8497,-3.8108,-3.7943,-3.7883,-3.7285,-3.6985,-3.6941,-3.6357,-3.6028,-3.5998,-3.5699,-3.5651,-3.5894,-3.6227,-3.6704,-3.7275,-3.7301,-3.7086,-3.6663,-3.6215,-3.5644,-3.4932,-3.4899,-3.4756,-3.4472,-3.4739,-3.4756,-3.4472,-3.4226,-3.3958,-3.362,-3.3108,-3.2574,-3.1966,-3.1951,-3.1824,-3.1438,-3.1482,-3.1467,-3.1409,-3.2312,-3.2722,-3.2437,-3.2668,-3.2527,-3.1824,-3.1663,-3.1413,-3.0975,-3.1196,-3.1199,-3.0724,-3.0914,-3.0952,-3.0522,-3.0489,-3.0489,-3.0489,-3.0489,-3.0489,-3.0489,-3.0489,-3.0489,-3.0489,-3.0464,-3.0464,-3.0443,-3.0375,-3.0274,-3.021,-3.0103,-3.0011,-2.994,-2.9896,-2.9896,-2.9896,-2.9896,-2.9896,-2.9896,-2.9896,-2.9896,-2.9896,-2.9896,-2.9836,-2.9748,-2.971,-2.9643,-2.9486,-2.9335,-2.9004,-2.856,-2.8121,-2.7439,-2.6587,-2.5742,-2.5368,-4.5439,-4.5229,-4.4751,-4.4451,-4.4257,-4.3574,-4.3305,-4.3245,-4.2776,-4.2336,-4.1758,-4.098,-4.0621,-4.0561,-3.9933,-3.9649,-3.9619,-3.9484,-3.9388,-3.9328,-3.8871,-3.8631,-3.8542,-3.7958,-3.7629,-3.7554,-3.7,-3.6626,-3.6432,-3.5968,-3.5639,-3.5569,-3.5973,-3.6523,-3.7161,-3.7161,-3.711,-3.6977,-3.6401,-3.5703,-3.4995,-3.4814,-3.4448,-3.3984,-3.4448,-3.4472,-3.3958,-3.4025,-3.3866,-3.3449,-3.3277,-3.2799,-3.1964,-3.2064,-3.1979,-3.1553,-3.1496,-3.1553,-3.171,-3.2394,-3.2761,-3.2629,-3.2841,-3.2841,-3.2446,-3.2255,-3.1841,-3.1265,-3.1579,-3.1677,-3.1228,-3.1393,-3.1418,-3.0811,-3.0737,-3.0688,-3.0522,-3.0489,-3.0489,-3.0489,-3.0489,-3.0489,-3.0489,-3.0489,-3.0489,-3.0468,-3.0443,-3.0401,-3.038,-3.0274,-3.0141,-3.0011,-2.9946,-2.9902,-2.9918,-2.9896,-2.9896,-2.9896,-2.9896,-2.9896,-2.9896,-2.9896,-2.9896,-2.9874,-2.9732,-2.9687,-2.9852,-2.9732,-2.9462,-2.913,-2.8817,-2.8214,-2.6748,-2.6065,-2.5663,-4.5873,-4.5319,-4.5244,-4.4855,-4.4257,-4.3589,-4.3319,-4.329,-4.3215,-4.3185,-4.2931,-4.1848,-4.1294,-4.1205,-4.0606,-4.0322,-4.0262,-3.9694,-3.9403,-3.9418,-3.9328,-3.932,-3.923,-3.8616,-3.8302,-3.8212,-3.7644,-3.7075,-3.6611,-3.6432,-3.6088,-3.5564,-3.5554,-3.591,-3.643,-3.6492,-3.6457,-3.6374,-3.6334,-3.5883,-3.5098,-3.45,-3.3892,-3.3303,-3.3866,-3.3892,-3.3329,-3.3815,-3.4059,-3.3984,-3.3475,-3.313,-3.2933,-3.2132,-3.1553,-3.1496,-3.1496,-3.1726,-3.2203,-3.191,-3.2132,-3.296,-3.268,-3.2477,-3.241,-3.2391,-3.2052,-3.1561,-3.1784,-3.2017,-3.1829,-3.1857,-3.1834,-3.149,-3.1477,-3.125,-3.0737,-3.0489,-3.0489,-3.0489,-3.0671,-3.0506,-3.0671,-3.0621,-3.0539,-3.0489,-3.0443,-3.0401,-3.0401,-3.0333,-3.021,-3.0146,-3.0076,-2.9989,-2.994,-2.9896,-2.9918,-2.9896,-2.9896,-2.9896,-2.9896,-2.9896,-2.9896,-2.9896,-2.9874,-2.9852,-2.9874,-2.9874,-2.9858,-2.9615,-2.9151,-2.8369,-2.7086,-2.6548,-2.6293,-4.6741,-4.6441,-4.6052,-4.5289,-4.4332,-4.4032,-4.3648,-4.3305,-4.3305,-4.3305,-4.3245,-4.2761,-4.2327,-4.1961,-4.128,-4.098,-4.0935,-4.0292,-3.9993,-3.9963,-3.9604,-3.9388,-3.9379,-3.914,-3.899,-3.8945,-3.8302,-3.7853,-3.7524,-3.6866,-3.6163,-3.5564,-3.5489,-3.5619,-3.5846,-3.5878,-3.6011,-3.6335,-3.563,-3.504,-3.471,-3.4329,-3.3694,-3.2888,-3.3282,-3.3308,-3.2788,-3.2964,-3.3087,-3.3087,-3.2857,-3.2559,-3.2216,-3.2076,-3.1853,-3.1553,-3.1496,-3.1611,-3.1853,-3.1966,-3.2216,-3.2722,-3.2504,-3.252,-3.283,-3.2602,-3.2259,-3.2083,-3.2435,-3.258,-3.2146,-3.261,-3.2685,-3.2017,-3.205,-3.2116,-3.1851,-3.1785,-3.1785,-3.1802,-3.1802,-3.1785,-3.1735,-3.1399,-3.0986,-3.0621,-3.0464,-3.0476,-3.0459,-3.0401,-3.038,-3.0316,-3.0253,-3.0146,-3.0011,-2.9968,-2.9946,-2.9918,-2.9896,-2.9896,-2.9918,-2.9896,-2.9896,-2.9896,-2.9896,-2.9896,-2.9896,-2.9896,-2.9896,-2.9767,-2.9329,-2.8466,-2.7478,-2.6976,-2.6403,-4.7309,-4.7204,-4.6591,-4.5648,-4.4586,-4.4377,-4.3943,-4.3334,-4.3305,-4.3305,-4.3305,-4.3305,-4.3075,-4.262,-4.1938,-4.1692,-4.1602,-4.0965,-4.0576,-4.0367,-3.9903,-3.9568,-3.9403,-3.9388,-3.9388,-3.9313,-3.8916,-3.8571,-3.8307,-3.7139,-3.6237,-3.5818,-3.5594,-3.5489,-3.5489,-3.5489,-3.5716,-3.6039,-3.522,-3.4663,-3.4438,-3.4158,-3.3429,-3.2338,-3.2695,-3.2749,-3.2191,-3.2299,-3.2398,-3.2398,-3.2398,-3.2203,-3.1796,-3.2007,-3.1966,-3.1553,-3.1496,-3.1496,-3.1496,-3.191,-3.2231,-3.237,-3.2259,-3.2382,-3.2788,-3.2614,-3.2492,-3.2625,-3.3002,-3.2919,-3.2618,-3.3275,-3.3407,-3.2588,-3.2797,-3.295,-3.2702,-3.2685,-3.2636,-3.2685,-3.2531,-3.2685,-3.2619,-3.2216,-3.1697,-3.1283,-3.0969,-3.0803,-3.0754,-3.0671,-3.0468,-3.0438,-3.0438,-3.0316,-3.0103,-3.006,-3.0033,-2.9968,-2.9946,-2.9984,-2.9924,-2.9918,-2.9918,-2.9918,-2.9918,-2.9896,-2.9896,-2.9896,-2.9896,-2.9799,-2.9459,-2.8757,-2.7802,-2.7284,-2.6636,-4.7309,-4.7204,-4.6563,-4.5918,-4.5214,-4.4601,-4.3943,-4.3305,-4.3305,-4.3305,-4.3305,-4.3305,-4.3275,-4.317,-4.262,-4.2366,-4.2276,-4.1677,-4.104,-4.0546,-4.0367,-4.0008,-3.9418,-3.9388,-3.9388,-3.9388,-3.9313,-3.899,-3.8332,-3.7165,-3.651,-3.6402,-3.5848,-3.5519,-3.5504,-3.5489,-3.5489,-3.5572,-3.5447,-3.5117,-3.4521,-3.3877,-3.2991,-3.1835,-3.2135,-3.2176,-3.1682,-3.2107,-3.2398,-3.2398,-3.237,-3.2342,-3.2287,-3.1824,-3.1553,-3.1496,-3.1496,-3.1496,-3.1496,-3.1553,-3.1811,-3.2203,-3.1881,-3.1824,-3.241,-3.2398,-3.2547,-3.3093,-3.3119,-3.3098,-3.3156,-3.3623,-3.3966,-3.367,-3.3694,-3.3464,-3.2868,-3.295,-3.2735,-3.2801,-3.2901,-3.2901,-3.2785,-3.2685,-3.258,-3.2365,-3.1967,-3.1565,-3.1466,-3.1002,-3.0654,-3.0551,-3.0518,-3.0405,-3.0231,-3.0189,-3.0141,-3.0076,-3.0076,-3.0119,-3.0011,-2.9946,-2.9924,-2.994,-2.9918,-2.9896,-2.9896,-2.9896,-2.9896,-2.9864,-2.9864,-2.9232,-2.819,-2.7834,-2.7154,-4.7309,-4.7294,-4.7055,-4.6322,-4.5304,-4.5035,-4.4332,-4.3334,-4.3305,-4.3305,-4.3305,-4.3305,-4.3305,-4.3314,-4.309,-4.2985,-4.2925,-4.2336,-4.1916,-4.1587,-4.0801,-4.0277,-4.0038,-3.9634,-3.9388,-3.9388,-3.9388,-3.9065,-3.8437,-3.7898,-3.727,-3.66,-3.6252,-3.5938,-3.5579,-3.5489,-3.5489,-3.5489,-3.5489,-3.5175,-3.4547,-3.4264,-3.3484,-3.2243,-3.1908,-3.1726,-3.1496,-3.171,-3.1824,-3.184,-3.1824,-3.1824,-3.1796,-3.164,-3.1496,-3.1496,-3.1496,-3.1496,-3.1496,-3.1496,-3.1597,-3.1768,-3.164,-3.1739,-3.2176,-3.2092,-3.2188,-3.2906,-3.2868,-3.2815,-3.3224,-3.3748,-3.4078,-3.4048,-3.4279,-3.4392,-3.4187,-3.4104,-3.4104,-3.4087,-3.4087,-3.3938,-3.3491,-3.3415,-3.3232,-3.2762,-3.2464,-3.2332,-3.2199,-3.1664,-3.1201,-3.1118,-3.0803,-3.0468,-3.0422,-3.0354,-3.029,-3.0205,-3.0162,-3.0119,-3.0033,-2.9995,-2.9989,-2.9924,-2.9918,-2.9896,-2.9896,-2.9896,-2.9896,-2.9896,-2.9896,-2.9524,-2.8595,-2.8061,-2.7365,-4.7164,-4.7164,-4.7164,-4.6431,-4.5364,-4.5221,-4.446,-4.3364,-4.3305,-4.3305,-4.3305,-4.3305,-4.3305,-4.3305,-4.3305,-4.3305,-4.326,-4.2865,-4.2605,-4.2351,-4.1482,-4.092,-4.0636,-4.0038,-3.9738,-3.9694,-3.9463,-3.9155,-3.8736,-3.8497,-3.7928,-3.7184,-3.6731,-3.6267,-3.5863,-3.5609,-3.5489,-3.5489,-3.5489,-3.5265,-3.4831,-3.4577,-3.4083,-3.317,-3.2288,-3.172,-3.1525,-3.1496,-3.1496,-3.1496,-3.1496,-3.1496,-3.1496,-3.1496,-3.1496,-3.1496,-3.1496,-3.1496,-3.1496,-3.1496,-3.1496,-3.1496,-3.1496,-3.1682,-3.2035,-3.1894,-3.2216,-3.268,-3.2841,-3.2841,-3.3172,-3.3578,-3.3908,-3.4109,-3.457,-3.4899,-3.4899,-3.4883,-3.4866,-3.4816,-3.48,-3.4601,-3.4286,-3.417,-3.3938,-3.3442,-3.3232,-3.3083,-3.2945,-3.2448,-3.1813,-3.1615,-3.1201,-3.0803,-3.0584,-3.0459,-3.0396,-3.0312,-3.029,-3.021,-3.0119,-3.006,-3.0017,-2.993,-2.9902,-2.9918,-2.9896,-2.9896,-2.9896,-2.9896,-2.9848,-2.9605,-2.8838,-2.8158,-2.7462,-4.6873,-4.6931,-4.6931,-4.6332,-4.5385,-4.5141,-4.4366,-4.3484,-4.3319,-4.3305,-4.329,-4.3305,-4.3305,-4.3305,-4.3305,-4.3305,-4.329,-4.3215,-4.2955,-4.2485,-4.2306,-4.1946,-4.1407,-4.0711,-4.0352,-4.0277,-3.9709,-3.9388,-3.9269,-3.8781,-3.8392,-3.8123,-3.7131,-3.6656,-3.6492,-3.589,-3.5564,-3.5564,-3.5549,-3.5489,-3.5415,-3.4876,-3.4518,-3.4264,-3.32,-3.2288,-3.1645,-3.154,-3.1496,-3.1496,-3.1496,-3.1496,-3.1496,-3.1496,-3.1496,-3.1496,-3.1496,-3.1496,-3.1496,-3.1496,-3.1496,-3.1496,-3.1496,-3.1524,-3.164,-3.1979,-3.2272,-3.2492,-3.2776,-3.3093,-3.3093,-3.3172,-3.3449,-3.4034,-3.4521,-3.4804,-3.4899,-3.4899,-3.4899,-3.4899,-3.4899,-3.4899,-3.4883,-3.4783,-3.4691,-3.4535,-3.4154,-3.3789,-3.3723,-3.3176,-3.2448,-3.1929,-3.1548,-3.1201,-3.0837,-3.0506,-3.0459,-3.0417,-3.0422,-3.0401,-3.0231,-3.0146,-3.0076,-2.9989,-2.9902,-2.9918,-2.9896,-2.9896,-2.9896,-2.988,-2.9815,-2.9718,-2.9183,-2.8498,-2.7656,-4.6535,-4.6712,-4.6829,-4.6499,-4.5739,-4.5236,-4.459,-4.3947,-4.3379,-4.317,-4.329,-4.3305,-4.3305,-4.3305,-4.3305,-4.3305,-4.3305,-4.329,-4.317,-4.297,-4.2605,-4.2321,-4.2006,-4.1384,-4.0846,-4.0352,-3.9738,-3.9388,-3.9343,-3.9149,-3.8871,-3.8377,-3.7878,-3.7431,-3.7071,-3.6373,-3.6045,-3.6133,-3.5729,-3.5489,-3.5489,-3.5295,-3.4966,-3.4518,-3.4084,-3.3559,-3.2901,-3.1989,-3.1525,-3.1511,-3.1496,-3.1496,-3.1496,-3.1496,-3.1496,-3.1496,-3.1496,-3.1496,-3.1496,-3.1496,-3.1496,-3.1496,-3.1496,-3.1496,-3.1496,-3.1668,-3.1966,-3.2231,-3.2216,-3.216,-3.2532,-3.2656,-3.3087,-3.3984,-3.425,-3.4521,-3.4851,-3.4899,-3.4899,-3.4899,-3.4899,-3.4899,-3.4899,-3.4899,-3.4899,-3.4899,-3.4651,-3.4518,-3.4419,-3.3889,-3.3442,-3.3127,-3.2448,-3.1615,-3.1217,-3.0853,-3.0613,-3.0509,-3.0485,-3.0464,-3.0316,-3.0205,-3.0119,-3.0011,-2.9924,-2.9918,-2.9896,-2.9896,-2.9896,-2.9896,-2.9864,-2.9702,-2.9459,-2.8746,-2.7769,-4.6358,-4.6594,-4.6609,-4.6386,-4.5908,-4.5113,-4.4531,-4.4069,-4.3237,-4.2996,-4.3155,-4.3195,-4.317,-4.3195,-4.325,-4.3305,-4.3305,-4.3305,-4.3305,-4.3245,-4.294,-4.2716,-4.268,-4.2081,-4.1235,-4.0472,-3.9978,-3.9612,-3.9388,-3.9373,-3.9149,-3.8719,-3.835,-3.7987,-3.7526,-3.6965,-3.6596,-3.6362,-3.5974,-3.5693,-3.5517,-3.5424,-3.5198,-3.4827,-3.4607,-3.4246,-3.3737,-3.2706,-3.2064,-3.1869,-3.166,-3.1482,-3.1453,-3.1438,-3.1438,-3.1482,-3.1438,-3.1438,-3.1511,-3.1496,-3.1496,-3.1496,-3.1496,-3.1496,-3.1496,-3.1496,-3.1682,-3.1894,-3.1979,-3.1881,-3.2064,-3.2315,-3.2738,-3.3377,-3.3882,-3.43,-3.4756,-3.4707,-3.4715,-3.4811,-3.4899,-3.4899,-3.4899,-3.4899,-3.4899,-3.4899,-3.4899,-3.4899,-3.4816,-3.4502,-3.4203,-3.3839,-3.3193,-3.2392,-3.1664,-3.1212,-3.0832,-3.0634,-3.0489,-3.0443,-3.0338,-3.0231,-3.0124,-3.0006,-2.9918,-2.9918,-2.9896,-2.9896,-2.9896,-2.9896,-2.9896,-2.9799,-2.9524,-2.853,-2.7656,-4.6314,-4.655,-4.6314,-4.6167,-4.5883,-4.4918,-4.4371,-4.3927,-4.3153,-4.2883,-4.297,-4.2996,-4.2996,-4.3036,-4.3155,-4.325,-4.329,-4.325,-4.3305,-4.329,-4.32,-4.316,-4.3135,-4.2536,-4.1683,-4.0816,-4.042,-4.0016,-3.9531,-3.9397,-3.925,-3.8971,-3.8567,-3.8255,-3.7893,-3.7585,-3.702,-3.655,-3.6268,-3.5919,-3.5541,-3.5309,-3.5166,-3.5106,-3.4778,-3.445,-3.4159,-3.3519,-3.2927,-3.2467,-3.181,-3.1395,-3.1322,-3.1322,-3.1365,-3.1438,-3.1351,-3.1394,-3.1467,-3.1511,-3.1496,-3.1496,-3.1496,-3.1496,-3.1496,-3.1496,-3.1524,-3.164,-3.1938,-3.2035,-3.1783,-3.1966,-3.2342,-3.2547,-3.3455,-3.4234,-3.465,-3.4382,-3.4497,-3.4756,-3.4851,-3.4899,-3.4899,-3.4899,-3.4899,-3.4899,-3.4899,-3.4899,-3.4883,-3.47,-3.4502,-3.4121,-3.369,-3.3176,-3.2448,-3.1543,-3.1179,-3.0943,-3.0662,-3.0405,-3.0316,-3.0189,-3.0103,-2.9984,-2.9896,-2.9896,-2.9896,-2.9896,-2.9896,-2.9896,-2.9896,-2.9896,-2.9443,-2.8595,-2.7899,-4.6015,-4.6105,-4.618,-4.6167,-4.6065,-4.5317,-4.4802,-4.4366,-4.351,-4.2993,-4.2832,-4.2769,-4.2769,-4.2809,-4.2996,-4.3061,-4.3076,-4.3076,-4.3155,-4.325,-4.3115,-4.3155,-4.3115,-4.2514,-4.2037,-4.1675,-4.0785,-4.01,-3.9876,-3.9445,-3.9098,-3.8855,-3.8605,-3.8517,-3.8443,-3.7847,-3.7493,-3.7225,-3.6404,-3.5965,-3.5748,-3.527,-3.4983,-3.4986,-3.4842,-3.4738,-3.4676,-3.4115,-3.3277,-3.2317,-3.1605,-3.1249,-3.1278,-3.1292,-3.1263,-3.1249,-3.1366,-3.1424,-3.138,-3.1438,-3.1467,-3.1496,-3.1467,-3.1496,-3.1496,-3.1496,-3.1496,-3.1524,-3.1668,-3.1697,-3.1553,-3.1668,-3.1938,-3.2453,-3.3324,-3.3917,-3.386,-3.4292,-3.4618,-3.4423,-3.4683,-3.4828,-3.4899,-3.4899,-3.4899,-3.4899,-3.4899,-3.4899,-3.4899,-3.4883,-3.4684,-3.4535,-3.417,-3.3756,-3.3127,-3.2161,-3.1522,-3.1264,-3.0901,-3.0401,-3.0253,-3.0098,-3.0011,-2.9918,-2.9896,-2.9896,-2.9896,-2.9896,-2.9896,-2.9896,-2.9896,-2.988,-2.9686,-2.9086,-2.8369,-4.5956,-4.6046,-4.6046,-4.6135,-4.6092,-4.5434,-4.4879,-4.4378,-4.3579,-4.2936,-4.2643,-4.2596,-4.2581,-4.2596,-4.2769,-4.2875,-4.289,-4.2955,-4.2996,-4.305,-4.2996,-4.3076,-4.3026,-4.259,-4.2337,-4.2025,-4.1288,-4.0649,-4.0144,-3.9624,-3.9217,-3.8878,-3.8686,-3.8627,-3.8479,-3.8289,-3.7872,-3.7607,-3.6937,-3.6443,-3.5908,-3.5438,-3.5066,-3.4923,-3.4835,-3.4868,-3.4747,-3.4203,-3.3311,-3.2298,-3.1722,-3.1397,-3.1117,-3.1087,-3.1102,-3.1073,-3.1176,-3.1176,-3.1249,-3.1263,-3.1351,-3.138,-3.1351,-3.1395,-3.1438,-3.1467,-3.1409,-3.1511,-3.1496,-3.1496,-3.1496,-3.1496,-3.1653,-3.2007,-3.2846,-3.3308,-3.3156,-3.3553,-3.3917,-3.4101,-3.4374,-3.4667,-3.4851,-3.4899,-3.4899,-3.4899,-3.4899,-3.4899,-3.4899,-3.4899,-3.4883,-3.4717,-3.4568,-3.4187,-3.3727,-3.2871,-3.1841,-3.1556,-3.0909,-3.0417,-3.0189,-3.0033,-2.9962,-2.9918,-2.9896,-2.9896,-2.9896,-2.9896,-2.9896,-2.9896,-2.9896,-2.9864,-2.9702,-2.9475,-2.8795,-4.603,-4.6165,-4.597,-4.6001,-4.6033,-4.5316,-4.4836,-4.4281,-4.3555,-4.2929,-4.257,-4.2409,-4.2366,-4.2392,-4.2581,-4.2662,-4.2703,-4.2809,-4.2795,-4.2809,-4.2835,-4.2955,-4.2875,-4.2896,-4.252,-4.2016,-4.1972,-4.1276,-4.0459,-3.9999,-3.9437,-3.8965,-3.8774,-3.8523,-3.8375,-3.8479,-3.8289,-3.7762,-3.747,-3.684,-3.6089,-3.5639,-3.519,-3.4756,-3.4735,-3.4783,-3.4585,-3.4113,-3.3311,-3.2251,-3.2102,-3.1688,-3.107,-3.0953,-3.091,-3.0984,-3.094,-3.0984,-3.1043,-3.1102,-3.1161,-3.1234,-3.1176,-3.122,-3.138,-3.138,-3.138,-3.1496,-3.1496,-3.1496,-3.1496,-3.1496,-3.1524,-3.1682,-3.2107,-3.2504,-3.2815,-3.268,-3.2873,-3.3771,-3.3975,-3.4349,-3.4643,-3.4859,-3.4899,-3.4899,-3.4899,-3.4899,-3.4899,-3.4899,-3.4899,-3.4866,-3.4733,-3.4594,-3.411,-3.3594,-3.2572,-3.1753,-3.0925,-3.0386,-3.0174,-3.0011,-2.9962,-2.9896,-2.9896,-2.9896,-2.9896,-2.9896,-2.9896,-2.9896,-2.9896,-2.9896,-2.9848,-2.9572,-2.9054,-4.5925,-4.597,-4.5925,-4.5925,-4.5956,-4.5751,-4.533,-4.4661,-4.4037,-4.3341,-4.2831,-4.2351,-4.2148,-4.2119,-4.2228,-4.2474,-4.2377,-4.2459,-4.25,-4.2514,-4.2688,-4.2648,-4.2622,-4.2688,-4.2655,-4.2324,-4.1792,-4.1385,-4.0945,-4.0153,-3.9437,-3.9133,-3.8666,-3.8315,-3.8277,-3.83,-3.8271,-3.8001,-3.7637,-3.7063,-3.6341,-3.5744,-3.5199,-3.4569,-3.4515,-3.4582,-3.465,-3.4418,-3.3937,-3.3349,-3.2762,-3.2249,-3.1712,-3.1582,-3.1332,-3.0967,-3.0954,-3.0969,-3.091,-3.1058,-3.1205,-3.1132,-3.1146,-3.1292,-3.1322,-3.1307,-3.1351,-3.1467,-3.1496,-3.1467,-3.1467,-3.1496,-3.1496,-3.1568,-3.164,-3.1796,-3.1979,-3.2559,-3.2857,-3.2991,-3.3533,-3.4151,-3.425,-3.4618,-3.4756,-3.4875,-3.4899,-3.4899,-3.4899,-3.4899,-3.4899,-3.4899,-3.4826,-3.4669,-3.4447,-3.3891,-3.2975,-3.2042,-3.1163,-3.0508,-3.0298,-3.0011,-2.994,-2.9896,-2.9896,-2.9896,-2.9896,-2.9896,-2.988,-2.9896,-2.9874,-2.9852,-2.975,-2.9545,-2.9459,-4.5155,-4.5095,-4.462,-4.4712,-4.5049,-4.4652,-4.4358,-4.4167,-4.3883,-4.3182,-4.2396,-4.1953,-4.1695,-4.1353,-4.1113,-4.1099,-4.1492,-4.159,-4.1895,-4.2158,-4.2158,-4.2034,-4.231,-4.2433,-4.25,-4.2374,-4.2125,-4.1763,-4.1226,-4.0646,-3.9994,-3.9372,-3.885,-3.8507,-3.8246,-3.8202,-3.824,-3.8159,-3.7912,-3.7418,-3.678,-3.6141,-3.5299,-3.4603,-3.4414,-3.4448,-3.4515,-3.4448,-3.4292,-3.4006,-3.3576,-3.2948,-3.2259,-3.2101,-3.1764,-3.1224,-3.1154,-3.1054,-3.0894,-3.0836,-3.0969,-3.0984,-3.0969,-3.1058,-3.1117,-3.1146,-3.1205,-3.1322,-3.1366,-3.1336,-3.1409,-3.1409,-3.1424,-3.1511,-3.1496,-3.1496,-3.1611,-3.2048,-3.2477,-3.2437,-3.2926,-3.3351,-3.3697,-3.4093,-3.4308,-3.4333,-3.4472,-3.4521,-3.4899,-3.4899,-3.4899,-3.4899,-3.4851,-3.4745,-3.4653,-3.4122,-3.3315,-3.2396,-3.1551,-3.0972,-3.0616,-3.0259,-2.9918,-2.9874,-2.983,-2.9896,-2.9896,-2.9896,-2.9732,-2.9598,-2.9554,-2.9621,-2.9633,-2.9498,-2.9522,-4.4078,-4.4017,-4.3163,-4.3307,-4.3876,-4.3211,-4.3093,-4.3305,-4.3198,-4.2538,-4.1644,-4.1465,-4.099,-4.0453,-3.9722,-3.9782,-4.0202,-4.0504,-4.0944,-4.1423,-4.1339,-4.1254,-4.1493,-4.1729,-4.191,-4.1897,-4.2129,-4.196,-4.1598,-4.1197,-4.0585,-3.9819,-3.9281,-3.8913,-3.8478,-3.8231,-3.8202,-3.8188,-3.8144,-3.7825,-3.7288,-3.6678,-3.588,-3.4864,-3.4443,-3.4414,-3.4414,-3.4414,-3.4399,-3.438,-3.438,-3.38,-3.3104,-3.2658,-3.2367,-3.1698,-3.1716,-3.1426,-3.102,-3.0876,-3.0907,-3.082,-3.0732,-3.0791,-3.094,-3.0955,-3.1014,-3.1132,-3.122,-3.1161,-3.1263,-3.1263,-3.1322,-3.138,-3.1424,-3.1453,-3.1482,-3.1453,-3.1754,-3.212,-3.248,-3.2846,-3.3055,-3.3355,-3.3594,-3.3815,-3.3958,-3.4151,-3.448,-3.4787,-3.4763,-3.4554,-3.4391,-3.4276,-3.4153,-3.4381,-3.3557,-3.2874,-3.1994,-3.1477,-3.1001,-3.0587,-3.0208,-2.9835,-2.9748,-2.9808,-2.9748,-2.9621,-2.9448,-2.925,-2.912,-2.9097,-2.9227,-2.9387,-2.9467,-4.3033,-4.3033,-4.2889,-4.2889,-4.3033,-4.284,-4.2724,-4.2801,-4.2337,-4.1963,-4.1622,-4.0736,-4.03,-3.9911,-3.9475,-3.9312,-3.9445,-3.9579,-3.9754,-4.013,-4.0317,-4.0546,-4.0144,-4.066,-4.0873,-4.1113,-4.1521,-4.1838,-4.1799,-4.1407,-4.1029,-4.0593,-3.9765,-3.9131,-3.887,-3.8536,-3.8202,-3.8202,-3.8202,-3.7897,-3.7476,-3.7114,-3.6417,-3.5227,-3.4733,-3.4486,-3.438,-3.438,-3.438,-3.438,-3.438,-3.4269,-3.3949,-3.3529,-3.3006,-3.2513,-3.2353,-3.2063,-3.1511,-3.1503,-3.1212,-3.0862,-3.076,-3.0746,-3.0836,-3.0821,-3.0895,-3.1014,-3.1102,-3.1102,-3.1132,-3.1132,-3.1132,-3.1176,-3.119,-3.122,-3.1263,-3.1307,-3.1307,-3.1697,-3.2079,-3.2342,-3.2477,-3.2637,-3.2906,-3.3188,-3.3439,-3.3491,-3.364,-3.4102,-3.4431,-3.4168,-3.3825,-3.3691,-3.3556,-3.3987,-3.386,-3.3307,-3.2595,-3.2013,-3.1521,-3.0995,-3.0568,-2.9856,-2.9576,-2.9598,-2.9531,-2.9357,-2.9182,-2.8958,-2.8779,-2.8591,-2.8638,-2.8732,-2.8935,-4.1963,-4.19,-4.1432,-4.1482,-4.1815,-4.1382,-4.1531,-4.1923,-4.1644,-4.1289,-4.093,-4.0412,-3.9814,-3.921,-3.8476,-3.8267,-3.8459,-3.8541,-3.8841,-3.921,-3.9299,-3.9445,-3.9121,-3.9681,-3.9812,-4.0,-4.0417,-4.1241,-4.198,-4.1787,-4.1384,-4.0916,-4.0104,-3.9523,-3.9117,-3.8536,-3.826,-3.8202,-3.8188,-3.8072,-3.7738,-3.7506,-3.662,-3.5668,-3.5082,-3.4762,-3.4443,-3.438,-3.438,-3.438,-3.438,-3.438,-3.4312,-3.4109,-3.3659,-3.3151,-3.3006,-3.2716,-3.2193,-3.2096,-3.182,-3.1222,-3.1137,-3.0978,-3.0804,-3.0702,-3.0835,-3.0836,-3.091,-3.094,-3.094,-3.0955,-3.0984,-3.1087,-3.1087,-3.1117,-3.1161,-3.1132,-3.119,-3.1278,-3.1467,-3.1682,-3.1781,-3.1977,-3.2269,-3.2528,-3.2868,-3.2906,-3.2891,-3.3339,-3.3834,-3.3707,-3.3381,-3.3235,-3.3156,-3.3417,-3.3853,-3.3475,-3.3112,-3.249,-3.1887,-3.1333,-3.041,-2.9522,-2.9407,-2.9363,-2.9182,-2.8982,-2.8842,-2.8662,-2.8472,-2.828,-2.8094,-2.8094,-2.8328,-4.0895,-4.0844,-4.0032,-4.0173,-4.0693,-4.0083,-4.0173,-4.0794,-4.0882,-4.0622,-4.0234,-4.0063,-3.943,-3.8462,-3.761,-3.7257,-3.75,-3.7533,-3.7933,-3.8283,-3.8206,-3.8251,-3.845,-3.8854,-3.8899,-3.8944,-3.9033,-3.9839,-4.0972,-4.1212,-4.1219,-4.0886,-4.0346,-3.9869,-3.9383,-3.8841,-3.8426,-3.8014,-3.8165,-3.8202,-3.8072,-3.7593,-3.6867,-3.5828,-3.5552,-3.5131,-3.4733,-3.4486,-3.4395,-3.438,-3.438,-3.438,-3.438,-3.438,-3.4182,-3.3794,-3.3707,-3.3311,-3.289,-3.2701,-3.2457,-3.1801,-3.1712,-3.1453,-3.1251,-3.1193,-3.1048,-3.0845,-3.0876,-3.0893,-3.082,-3.0762,-3.0821,-3.091,-3.0984,-3.1014,-3.1014,-3.0984,-3.0984,-3.1014,-3.1014,-3.1132,-3.1336,-3.1423,-3.1709,-3.1921,-3.2213,-3.2185,-3.2253,-3.2633,-3.305,-3.3103,-3.2971,-3.2821,-3.2783,-3.2868,-3.3235,-3.3351,-3.3166,-3.2848,-3.2196,-3.1547,-3.0597,-2.9722,-2.9027,-2.8929,-2.88,-2.8583,-2.8288,-2.8119,-2.8061,-2.7864,-2.758,-2.758,-2.778,-3.989,-3.989,-3.9749,-3.9788,-3.9878,-3.9749,-3.9736,-3.989,-3.9981,-3.9865,-3.9778,-3.9323,-3.8829,-3.7998,-3.7064,-3.6638,-3.6606,-3.6734,-3.6862,-3.7116,-3.7441,-3.7361,-3.7023,-3.7671,-3.7887,-3.7978,-3.7978,-3.8554,-3.9445,-3.9651,-4.0059,-4.0308,-4.0011,-3.9708,-3.9578,-3.8859,-3.8385,-3.7451,-3.7787,-3.8089,-3.7951,-3.7465,-3.7061,-3.6693,-3.5977,-3.5302,-3.5056,-3.4694,-3.4399,-3.438,-3.438,-3.438,-3.438,-3.438,-3.4399,-3.4327,-3.424,-3.4037,-3.3485,-3.3373,-3.3079,-3.2556,-3.2365,-3.2353,-3.2121,-3.2034,-3.1859,-3.1408,-3.1409,-3.1266,-3.0977,-3.0715,-3.0671,-3.0687,-3.0776,-3.0791,-3.0806,-3.0836,-3.0836,-3.0821,-3.0821,-3.091,-3.1087,-3.1087,-3.1146,-3.135,-3.1508,-3.1508,-3.1637,-3.2059,-3.2127,-3.2155,-3.2376,-3.2293,-3.2155,-3.2269,-3.2555,-3.2955,-3.3024,-3.2907,-3.2248,-3.157,-3.1181,-3.0325,-2.9439,-2.8662,-2.8516,-2.8244,-2.7785,-2.759,-2.758,-2.7306,-2.6948,-2.7063,-2.7306,-3.9697,-3.9697,-3.9697,-3.9697,-3.9697,-3.9697,-3.9697,-3.9697,-3.9697,-3.9697,-3.9659,-3.9471,-3.8856,-3.7965,-3.7149,-3.6707,-3.648,-3.6417,-3.6417,-3.6417,-3.6815,-3.6828,-3.664,-3.6769,-3.7002,-3.7083,-3.7036,-3.7083,-3.7782,-3.872,-3.9505,-3.9598,-3.9261,-3.8905,-3.9087,-3.8151,-3.7407,-3.6818,-3.674,-3.6727,-3.6682,-3.6539,-3.6413,-3.6518,-3.5564,-3.5243,-3.5144,-3.4638,-3.4341,-3.436,-3.438,-3.438,-3.438,-3.438,-3.4414,-3.4414,-3.4399,-3.4269,-3.4037,-3.3993,-3.3616,-3.3253,-3.3021,-3.289,-3.2658,-3.251,-3.2466,-3.2104,-3.2077,-3.1903,-3.1598,-3.1322,-3.1163,-3.1061,-3.0858,-3.0714,-3.073,-3.0642,-3.0642,-3.0628,-3.0657,-3.0762,-3.0851,-3.0851,-3.0881,-3.1029,-3.1087,-3.1029,-3.1204,-3.1493,-3.1407,-3.1131,-3.1436,-3.1679,-3.1551,-3.1508,-3.1836,-3.2198,-3.2598,-3.2408,-3.1994,-3.1493,-3.1129,-3.0479,-2.9465,-2.8838,-2.8469,-2.7895,-2.7399,-2.7248,-2.7141,-2.6948,-2.6794,-2.6832,-2.7026,-3.9697,-3.9697,-3.9697,-3.9697,-3.9697,-3.9697,-3.9697,-3.9697,-3.9697,-3.9697,-3.9647,-3.9496,-3.8894,-3.8065,-3.74,-3.6895,-3.643,-3.6417,-3.6417,-3.6417,-3.6417,-3.6465,-3.6417,-3.6452,-3.6452,-3.6417,-3.6546,-3.6593,-3.6943,-3.7645,-3.8405,-3.8796,-3.8505,-3.8347,-3.807,-3.7491,-3.6797,-3.6266,-3.5656,-3.5575,-3.5695,-3.5735,-3.5794,-3.5636,-3.5242,-3.4868,-3.5071,-3.4436,-3.4112,-3.391,-3.3902,-3.3824,-3.3709,-3.3604,-3.3604,-3.3604,-3.3569,-3.3604,-3.3719,-3.3848,-3.3941,-3.3743,-3.3655,-3.3543,-3.3209,-3.2959,-3.2846,-3.2788,-3.2745,-3.2672,-3.2423,-3.199,-3.1859,-3.1569,-3.1264,-3.1003,-3.0801,-3.0757,-3.067,-3.0612,-3.0628,-3.0598,-3.0672,-3.0642,-3.0672,-3.0732,-3.0702,-3.0612,-3.0807,-3.1087,-3.097,-3.0747,-3.0881,-3.119,-3.1087,-3.1029,-3.1277,-3.1508,-3.1908,-3.2142,-3.1875,-3.1516,-3.1134,-3.0367,-2.9589,-2.9209,-2.8941,-2.7974,-2.7059,-2.701,-2.6948,-2.6884,-2.6794,-2.6794,-2.6806,-3.9697,-3.9697,-3.9697,-3.9697,-3.9697,-3.9697,-3.9697,-3.9697,-3.9697,-3.9697,-3.9622,-3.9258,-3.8705,-3.8015,-3.7487,-3.6996,-3.6417,-3.6417,-3.6417,-3.6417,-3.6417,-3.6417,-3.6417,-3.6417,-3.6417,-3.6417,-3.6417,-3.6417,-3.6465,-3.6675,-3.7348,-3.7723,-3.773,-3.798,-3.7792,-3.715,-3.6295,-3.5595,-3.4865,-3.4814,-3.5142,-3.5373,-3.544,-3.5398,-3.5046,-3.4733,-3.4741,-3.412,-3.3639,-3.3326,-3.3248,-3.3056,-3.2897,-3.2717,-3.2676,-3.2662,-3.2662,-3.2627,-3.2662,-3.3395,-3.3845,-3.3685,-3.3785,-3.4167,-3.3931,-3.4119,-3.3993,-3.3405,-3.3299,-3.3115,-3.2767,-3.2469,-3.244,-3.2251,-3.1932,-3.1613,-3.1279,-3.0903,-3.0816,-3.067,-3.0612,-3.0612,-3.0612,-3.0612,-3.0612,-3.0672,-3.0672,-3.0612,-3.0612,-3.0807,-3.0747,-3.0628,-3.0642,-3.0717,-3.0717,-3.0807,-3.097,-3.1146,-3.1422,-3.1823,-3.1987,-3.1585,-3.098,-3.076,-3.0133,-2.9798,-2.9377,-2.8592,-2.7794,-2.7096,-2.6806,-2.6779,-2.6794,-2.6794,-2.6794,-3.9697,-3.9697,-3.9697,-3.9697,-3.9697,-3.9697,-3.9697,-3.9697,-3.9697,-3.9697,-3.9672,-3.9433,-3.8868,-3.814,-3.7801,-3.7174,-3.6505,-3.6417,-3.6417,-3.6417,-3.6417,-3.6417,-3.6417,-3.6417,-3.6417,-3.6417,-3.6417,-3.6417,-3.6417,-3.6417,-3.6546,-3.6862,-3.7036,-3.6993,-3.6864,-3.6389,-3.5462,-3.4727,-3.4045,-3.3852,-3.3924,-3.4108,-3.4304,-3.4761,-3.4074,-3.4149,-3.4445,-3.3887,-3.3578,-3.3302,-3.3012,-3.2674,-3.2351,-3.2131,-3.1992,-3.1978,-3.1942,-3.1759,-3.1563,-3.2412,-3.2946,-3.3485,-3.3879,-3.4346,-3.423,-3.438,-3.3993,-3.3695,-3.3744,-3.3647,-3.31,-3.3029,-3.3079,-3.2933,-3.2658,-3.2266,-3.184,-3.1389,-3.1105,-3.1032,-3.0786,-3.0612,-3.0612,-3.0612,-3.0612,-3.0612,-3.0612,-3.0612,-3.0612,-3.0612,-3.0612,-3.0612,-3.0612,-3.0612,-3.0612,-3.0657,-3.0687,-3.0866,-3.1043,-3.1292,-3.1537,-3.1219,-3.0749,-3.069,-3.0617,-3.0163,-2.9697,-2.9232,-2.8478,-2.7578,-2.7041,-2.6779,-2.6794,-2.6794,-2.6794,-3.9697,-3.9697,-3.9697,-3.9697,-3.9697,-3.9697,-3.9697,-3.9697,-3.9697,-3.9697,-3.9697,-3.9659,-3.9069,-3.8253,-3.7965,-3.7374,-3.6656,-3.6417,-3.6417,-3.6417,-3.6417,-3.6417,-3.6417,-3.6417,-3.6417,-3.6417,-3.6417,-3.6417,-3.6417,-3.6417,-3.6452,-3.6452,-3.6417,-3.6487,-3.6225,-3.5466,-3.4625,-3.3947,-3.3583,-3.3194,-3.323,-3.3197,-3.3326,-3.3937,-3.3445,-3.3504,-3.3845,-3.3539,-3.3253,-3.2987,-3.2672,-3.2327,-3.2046,-3.179,-3.1471,-3.1442,-3.1368,-3.1145,-3.0959,-3.1304,-3.2074,-3.272,-3.3171,-3.3534,-3.3756,-3.3908,-3.3581,-3.3045,-3.3644,-3.4045,-3.3304,-3.345,-3.3465,-3.3269,-3.3119,-3.2774,-3.2331,-3.1921,-3.1647,-3.1408,-3.1148,-3.0858,-3.0612,-3.0612,-3.0612,-3.0612,-3.0612,-3.0612,-3.0612,-3.0612,-3.0612,-3.0612,-3.0612,-3.0612,-3.0612,-3.0642,-3.0657,-3.0657,-3.0807,-3.0747,-3.0807,-3.0612,-3.0612,-3.0644,-3.0542,-3.0351,-3.0016,-2.961,-2.8797,-2.7884,-2.7389,-2.6866,-2.6794,-2.6794,-2.6794,-3.9697,-3.9697,-3.9697,-3.9697,-3.9697,-3.9697,-3.9697,-3.9697,-3.9697,-3.9697,-3.9697,-3.9685,-3.912,-3.8253,-3.8078,-3.7425,-3.6719,-3.6468,-3.6417,-3.6417,-3.6417,-3.6417,-3.6417,-3.6417,-3.6417,-3.6417,-3.6417,-3.6417,-3.6417,-3.6417,-3.6417,-3.6417,-3.6417,-3.6417,-3.6307,-3.5805,-3.4919,-3.4073,-3.3909,-3.3533,-3.3181,-3.3124,-3.321,-3.3253,-3.3197,-3.328,-3.3289,-3.3335,-3.3026,-3.2689,-3.2128,-3.1694,-3.1272,-3.0648,-3.0292,-3.0215,-3.0113,-2.9972,-2.9921,-3.0582,-3.1267,-3.2001,-3.2434,-3.2555,-3.2484,-3.2698,-3.2911,-3.229,-3.3241,-3.3638,-3.3659,-3.363,-3.3441,-3.332,-3.3087,-3.2906,-3.2454,-3.2292,-3.1965,-3.1546,-3.1409,-3.1279,-3.0843,-3.0612,-3.0612,-3.0612,-3.0612,-3.0612,-3.0612,-3.0612,-3.0612,-3.0612,-3.0612,-3.0612,-3.0612,-3.0612,-3.0612,-3.0612,-3.0612,-3.0612,-3.0612,-3.0612,-3.0612,-3.0612,-3.0569,-3.0467,-3.0248,-3.0016,-2.9116,-2.8231,-2.7432,-2.6953,-2.6852,-2.6794,-2.6794,-3.9697,-3.9697,-3.9697,-3.9697,-3.9697,-3.9697,-3.9697,-3.9697,-3.9697,-3.9697,-3.9697,-3.9697,-3.9333,-3.868,-3.8115,-3.7588,-3.696,-3.6493,-3.6417,-3.6417,-3.6417,-3.6417,-3.6417,-3.6417,-3.6417,-3.6417,-3.6417,-3.6417,-3.6417,-3.6417,-3.6417,-3.6417,-3.6417,-3.6417,-3.6219,-3.5818,-3.5082,-3.4455,-3.4085,-3.3633,-3.3212,-3.3136,-3.3124,-3.3124,-3.3124,-3.3124,-3.3124,-3.3124,-3.2973,-3.2667,-3.2164,-3.1775,-3.1424,-3.0859,-3.0344,-3.0218,-3.0093,-2.9792,-2.983,-3.0139,-3.052,-3.1169,-3.1673,-3.1905,-3.2146,-3.229,-3.2001,-3.1746,-3.2448,-3.2506,-3.1974,-3.242,-3.2464,-3.25,-3.2407,-3.2394,-3.2179,-3.2246,-3.2093,-3.1569,-3.1298,-3.1097,-3.0781,-3.059,-3.0576,-3.0597,-3.0612,-3.0612,-3.0612,-3.0612,-3.0612,-3.0612,-3.0612,-3.0612,-3.0612,-3.0612,-3.0612,-3.0612,-3.0612,-3.0612,-3.0612,-3.0612,-3.0612,-3.0612,-3.0612,-3.0583,-3.0409,-3.0074,-2.9363,-2.855,-2.7882,-2.7157,-2.6837,-2.6794,-2.6794,-3.9697,-3.9697,-3.9697,-3.9697,-3.9697,-3.9697,-3.9697,-3.9697,-3.9697,-3.9697,-3.9697,-3.9685,-3.9383,-3.8831,-3.8266,-3.7713,-3.7161,-3.6669,-3.6417,-3.6417,-3.6417,-3.6417,-3.6417,-3.6417,-3.6417,-3.6417,-3.6417,-3.6417,-3.6417,-3.6417,-3.6417,-3.6417,-3.6417,-3.6417,-3.6304,-3.5968,-3.5592,-3.5014,-3.4537,-3.3972,-3.352,-3.3244,-3.3124,-3.3124,-3.3124,-3.3124,-3.3124,-3.3124,-3.3124,-3.2918,-3.2616,-3.224,-3.1938,-3.1486,-3.0834,-3.0545,-3.0131,-2.9842,-2.983,-2.983,-3.0165,-3.0482,-3.1084,-3.1257,-3.1392,-3.1489,-3.1169,-3.1057,-3.1539,-3.1452,-3.1193,-3.1673,-3.1819,-3.1905,-3.1928,-3.1901,-3.1734,-3.1787,-3.1903,-3.1406,-3.1096,-3.0885,-3.0647,-3.0608,-3.0518,-3.056,-3.0612,-3.0582,-3.0538,-3.0612,-3.0612,-3.0612,-3.0612,-3.0612,-3.0612,-3.0612,-3.0612,-3.0612,-3.0612,-3.0612,-3.0612,-3.0612,-3.0612,-3.0612,-3.0612,-3.0583,-3.0525,-3.0132,-2.9653,-2.9116,-2.8521,-2.7766,-2.6982,-2.6794,-2.6794,-3.9697,-3.9697,-3.9697,-3.9697,-3.9697,-3.9697,-3.9697,-3.9697,-3.9697,-3.9697,-3.9697,-3.9697,-3.9446,-3.8894,-3.8291,-3.7751,-3.7211,-3.6659,-3.6468,-3.6417,-3.6417,-3.6417,-3.6417,-3.6417,-3.6417,-3.6417,-3.6417,-3.6417,-3.6417,-3.6417,-3.6417,-3.6417,-3.6417,-3.6417,-3.638,-3.6279,-3.5906,-3.5391,-3.4793,-3.4286,-3.3796,-3.3319,-3.3174,-3.3124,-3.3124,-3.3124,-3.3124,-3.3124,-3.3124,-3.2918,-3.2604,-3.2378,-3.2089,-3.1725,-3.1198,-3.0645,-3.0105,-2.9967,-2.9779,-2.9779,-2.9779,-2.9998,-2.996,-2.9895,-3.0113,-3.0595,-3.0482,-3.0533,-3.0897,-3.0945,-3.1007,-3.1244,-3.1429,-3.1466,-3.1502,-3.1341,-3.1082,-3.1143,-3.1357,-3.1186,-3.098,-3.0719,-3.0466,-3.0399,-3.0224,-3.0131,-3.0102,-3.016,-3.0221,-3.0568,-3.0568,-3.0612,-3.0612,-3.0612,-3.0612,-3.0612,-3.0612,-3.0612,-3.0612,-3.0612,-3.0612,-3.0612,-3.0612,-3.0612,-3.0612,-3.0583,-3.0539,-3.0438,-3.0234,-2.9639,-2.9,-2.8231,-2.7403,-2.6895,-2.6794,-3.9697,-3.9697,-3.9697,-3.9697,-3.9697,-3.9697,-3.9697,-3.9697,-3.9697,-3.9697,-3.9697,-3.9697,-3.9546,-3.9371,-3.8467,-3.7977,-3.745,-3.691,-3.6543,-3.6417,-3.6417,-3.6417,-3.6417,-3.6417,-3.6417,-3.6417,-3.6417,-3.6417,-3.6417,-3.6417,-3.6417,-3.6417,-3.6417,-3.6417,-3.6417,-3.6417,-3.6019,-3.5592,-3.5006,-3.45,-3.3935,-3.3395,-3.3224,-3.3124,-3.3124,-3.3124,-3.3124,-3.3124,-3.3124,-3.3036,-3.2918,-3.2817,-3.2792,-3.2277,-3.1662,-3.0693,-3.0407,-3.0244,-2.988,-2.9792,-2.9779,-2.9779,-2.9779,-2.9779,-2.9895,-2.9972,-3.0062,-3.0216,-3.0279,-3.0381,-3.0419,-3.057,-3.0684,-3.0709,-3.0709,-3.0633,-3.0444,-3.0681,-3.0847,-3.0647,-3.0435,-3.0454,-3.0228,-2.9988,-2.9841,-2.9647,-2.9595,-2.9698,-2.9867,-3.0219,-3.0538,-3.0568,-3.0612,-3.0612,-3.0612,-3.0612,-3.0612,-3.0612,-3.0612,-3.0612,-3.0612,-3.0612,-3.0612,-3.0612,-3.0612,-3.0612,-3.0598,-3.0496,-3.0394,-2.9972,-2.932,-2.8565,-2.7855,-2.7374,-2.6881,-3.9697,-3.9697,-3.9697,-3.9697,-3.9697,-3.9697,-3.9697,-3.9697,-3.9697,-3.9697,-3.9697,-3.9697,-3.9572,-3.9195,-3.8417,-3.7852,-3.7538,-3.6845,-3.6417,-3.6417,-3.6417,-3.6417,-3.6417,-3.6417,-3.6417,-3.6417,-3.6417,-3.6417,-3.6417,-3.6417,-3.6417,-3.6417,-3.6417,-3.6417,-3.6417,-3.6392,-3.6254,-3.5717,-3.519,-3.458,-3.4073,-3.3495,-3.3224,-3.3124,-3.3124,-3.3124,-3.3124,-3.3124,-3.3124,-3.3124,-3.3124,-3.3124,-3.3023,-3.2503,-3.2102,-3.122,-3.0771,-3.052,-3.0193,-2.9892,-2.9829,-2.9792,-2.9792,-2.9779,-2.9779,-2.9856,-2.9856,-2.9895,-2.9856,-2.9818,-2.9818,-2.9818,-2.9818,-2.9856,-2.9856,-2.9818,-2.9985,-3.0241,-3.0139,-2.9935,-2.9909,-3.0019,-2.9908,-2.9693,-2.9603,-2.9686,-2.9605,-2.9421,-2.9585,-2.9826,-3.0262,-3.0538,-3.0582,-3.0612,-3.0582,-3.0538,-3.0582,-3.0582,-3.0612,-3.0612,-3.0612,-3.0612,-3.0612,-3.0612,-3.0612,-3.0612,-3.0612,-3.0598,-3.0467,-3.0074,-2.974,-2.9175,-2.8478,-2.784,-2.7374,-3.9697,-3.9697,-3.9697,-3.9697,-3.9697,-3.9697,-3.9697,-3.9697,-3.9697,-3.9697,-3.9697,-3.9697,-3.9408,-3.8944,-3.8278,-3.7713,-3.7274,-3.6707,-3.6417,-3.6417,-3.6417,-3.6417,-3.6417,-3.6417,-3.6417,-3.6417,-3.6417,-3.6417,-3.6417,-3.6417,-3.6417,-3.6417,-3.6417,-3.6417,-3.6417,-3.6417,-3.6317,-3.6081,-3.5328,-3.4593,-3.4374,-3.3771,-3.3124,-3.3124,-3.3124,-3.3124,-3.3124,-3.3124,-3.3124,-3.3124,-3.3124,-3.3124,-3.2905,-3.2692,-3.2353,-3.1964,-3.1336,-3.0959,-3.0608,-3.0256,-3.0018,-2.9917,-2.9804,-2.9792,-2.9779,-2.9779,-2.9779,-2.9779,-2.9779,-2.9779,-2.9779,-2.9779,-2.9779,-2.9779,-2.9779,-2.9779,-2.9895,-2.9985,-2.9947,-2.9793,-2.982,-2.9881,-2.9862,-2.9629,-2.9363,-2.964,-2.944,-2.91,-2.9164,-2.9394,-2.9663,-3.0109,-3.0023,-2.9993,-3.0296,-3.0296,-3.0477,-3.0507,-3.0507,-3.0612,-3.0612,-3.0612,-3.0612,-3.0612,-3.0612,-3.0612,-3.0598,-3.0583,-3.0569,-3.0452,-3.0118,-2.9755,-2.916,-2.8464,-2.7826,-3.9697,-3.9697,-3.9697,-3.9697,-3.9697,-3.9697,-3.9697,-3.9697,-3.9697,-3.9697,-3.9697,-3.9659,-3.9358,-3.8755,-3.8241,-3.7688,-3.7098,-3.6656,-3.6455,-3.6417,-3.6417,-3.6417,-3.6417,-3.6417,-3.6417,-3.6417,-3.6417,-3.6417,-3.6417,-3.6417,-3.6417,-3.6417,-3.6417,-3.6417,-3.6417,-3.6417,-3.638,-3.6342,-3.5454,-3.4768,-3.4575,-3.3796,-3.3124,-3.3124,-3.3124,-3.3124,-3.3124,-3.3124,-3.3124,-3.3124,-3.3124,-3.3124,-3.3099,-3.296,-3.2641,-3.2252,-3.1926,-3.1562,-3.116,-3.0733,-3.0432,-3.0231,-3.0105,-2.9892,-2.9779,-2.9779,-2.9779,-2.9779,-2.9779,-2.9779,-2.9779,-2.9779,-2.9779,-2.9779,-2.9779,-2.9779,-2.9779,-2.9779,-2.9779,-2.9779,-2.9779,-2.9769,-2.9771,-2.9593,-2.9275,-2.898,-2.8609,-2.8405,-2.8556,-2.8731,-2.8717,-2.9031,-2.8994,-2.9125,-2.9577,-2.987,-2.9931,-3.016,-3.0221,-3.0387,-3.0538,-3.0477,-3.0387,-3.0538,-3.0612,-3.0538,-3.0538,-3.0598,-3.0569,-3.0554,-3.0467,-3.0118,-2.9769,-2.916,-2.8464,-3.9697,-3.9697,-3.9697,-3.9697,-3.9697,-3.9697,-3.9697,-3.9697,-3.9697,-3.9697,-3.9697,-3.9647,-3.9258,-3.8592,-3.8128,-3.7513,-3.6971,-3.6568,-3.6443,-3.6417,-3.6417,-3.6417,-3.6417,-3.6417,-3.6417,-3.6417,-3.6417,-3.6417,-3.6417,-3.6417,-3.6417,-3.6417,-3.6417,-3.6417,-3.6417,-3.6417,-3.6417,-3.6367,-3.5454,-3.4981,-3.47,-3.3784,-3.3174,-3.3124,-3.3124,-3.3124,-3.3124,-3.3124,-3.3124,-3.3124,-3.3124,-3.3124,-3.3124,-3.3086,-3.2905,-3.2629,-3.234,-3.2077,-3.17,-3.1311,-3.0884,-3.0645,-3.0419,-3.0218,-2.9792,-2.9779,-2.9779,-2.9779,-2.9779,-2.9779,-2.9779,-2.9779,-2.9779,-2.9779,-2.9779,-2.9779,-2.9779,-2.9779,-2.9779,-2.9779,-2.9779,-2.9793,-2.9782,-2.9757,-2.9492,-2.9378,-2.885,-2.8461,-2.8494,-2.8379,-2.8248,-2.8129,-2.8272,-2.8476,-2.8921,-2.9125,-2.9188,-2.947,-2.9825,-2.9856,-2.987,-3.0038,-3.0129,-3.0129,-3.0221,-3.0387,-3.0387,-3.0342,-3.0538,-3.0583,-3.0554,-3.0467,-3.0088,-2.9681,-2.9059,-3.9697,-3.9697,-3.9697,-3.9697,-3.9697,-3.9697,-3.9697,-3.9697,-3.9697,-3.9697,-3.9659,-3.9597,-3.8931,-3.8316,-3.7952,-3.7199,-3.6707,-3.6493,-3.6417,-3.6417,-3.6417,-3.6417,-3.6417,-3.6417,-3.6417,-3.6417,-3.6417,-3.6417,-3.6417,-3.6417,-3.6417,-3.6417,-3.6417,-3.6417,-3.6417,-3.6417,-3.6417,-3.6219,-3.573,-3.5245,-3.4587,-3.3759,-3.3332,-3.3187,-3.3124,-3.3124,-3.3124,-3.3124,-3.3124,-3.3124,-3.3124,-3.3124,-3.3124,-3.3124,-3.3124,-3.288,-3.2641,-3.2441,-3.2215,-3.1825,-3.1373,-3.1009,-3.0783,-3.0444,-3.0018,-2.9842,-2.9842,-2.9804,-2.9804,-2.9792,-2.9792,-2.9779,-2.9779,-2.9779,-2.9779,-2.9779,-2.9779,-2.9779,-2.9779,-2.9779,-2.9779,-2.9779,-2.9779,-2.9767,-2.9729,-2.9654,-2.9478,-2.9139,-2.8837,-2.8568,-2.8367,-2.8103,-2.7988,-2.8199,-2.836,-2.8409,-2.8487,-2.8826,-2.9142,-2.9142,-2.9219,-2.9345,-2.9453,-2.9515,-2.9608,-2.9732,-2.9901,-2.9931,-3.016,-3.0282,-3.0297,-3.0133,-2.9956,-2.9581,-2.9399,-3.9697,-3.9697,-3.9697,-3.9697,-3.9697,-3.9697,-3.9697,-3.9697,-3.9697,-3.9697,-3.9597,-3.917,-3.8617,-3.8002,-3.8002,-3.74,-3.6556,-3.6417,-3.6417,-3.6417,-3.6417,-3.6417,-3.6417,-3.6417,-3.6417,-3.6417,-3.6417,-3.6417,-3.6417,-3.6417,-3.6417,-3.6417,-3.6417,-3.6417,-3.6417,-3.6417,-3.6392,-3.6207,-3.5956,-3.5458,-3.5119,-3.4387,-3.3571,-3.3294,-3.3124,-3.3124,-3.3124,-3.3124,-3.3124,-3.3124,-3.3124,-3.3124,-3.3124,-3.3124,-3.3124,-3.3111,-3.2842,-3.283,-3.2604,-3.2303,-3.1888,-3.1662,-3.1348,-3.0721,-3.0369,-3.008,-3.003,-2.9905,-2.988,-2.9842,-2.9829,-2.9792,-2.9779,-2.9779,-2.9779,-2.9779,-2.9779,-2.9779,-2.9779,-2.9779,-2.9779,-2.9779,-2.9779,-2.9779,-2.9779,-2.9729,-2.9716,-2.9428,-2.9114,-2.8825,-2.8561,-2.8228,-2.7943,-2.7631,-2.7689,-2.7696,-2.7815,-2.8182,-2.8441,-2.8441,-2.8505,-2.8634,-2.873,-2.8762,-2.8826,-2.8889,-2.9079,-2.9282,-2.9345,-2.9439,-2.9639,-2.9656,-2.9552,-2.9344,-2.9002]},{"header":{"parameterUnit":"m.s-1","parameterCategory":1,"la1":31.0,"la2":29.5877,"lo1":-88.7671,"lo2":-86.6584,"dy":0.0162,"dx":0.0185,"nx":115,"ny":88,"refTime":"2024-05-09T06:00:00:Z","depth":0,"parameterNumber":3,"parameterNumberName":"V-component_of_WINDS"},"data":[0.0,0.0,0.0,0.0,0.0,0.0,0.0,0.0,0.0,0.0,0.0,0.0,0.0,0.0,0.0,0.0,0.0,0.0,0.0,0.0,0.0,0.0,0.0,0.0,0.0,0.0,0.0,0.0,0.0,0.0,0.0,0.0,0.0,0.0,0.0,0.0,0.0,0.0,0.0,0.0,0.0,0.0,0.0,0.0,0.0,0.0,0.0,0.0,0.0,0.0,0.0,0.0,0.0,0.0,0.0,0.0,0.0,0.0,0.0,0.0,0.0,0.0,0.0,0.0,0.0,0.0,0.0,0.0,0.0,0.0,0.0,0.0,0.0,0.0,0.0,0.0,0.0,0.0,0.0,0.0,0.0,0.0,0.0,0.0,0.0,0.0,0.0,0.0,0.0,0.0,0.0,0.0,0.0,0.0,0.0,0.0,0.0,0.0,0.0,0.0,0.0,0.0,0.0,0.0,0.0,0.0,0.0,0.0,0.0,0.0,0.0,0.0,0.0,0.0,0.0,0.0,0.0,0.0,0.0,0.0,0.0,0.0,0.0,0.0,0.0,0.0,0.0,0.0,0.0,0.0,0.0,0.0,0.0,0.0,0.0,0.0,0.0,0.0,0.0,0.0,0.0,0.0,0.0,0.0,0.0,0.0,0.0,0.0,0.0,0.0,0.0,0.0,0.0,0.0,0.0,0.0,0.0,0.0,0.0,0.0,0.0,0.0,0.0,0.0,0.0,0.0,0.0,0.0,0.0,0.0,0.0,0.0,0.0,0.0,0.0,0.0,0.0,0.0,0.0,0.0,0.0,0.0,0.0,0.0,0.0,0.0,0.0,0.0,0.0,0.0,0.0,0.0,0.0,0.0,0.0,0.0,0.0,0.0,0.0,0.0,0.0,0.0,0.0,0.0,0.0,0.0,0.0,0.0,0.0,0.0,0.0,0.0,0.0,0.0,0.0,0.0,0.0,0.0,0.0,0.0,0.0,0.0,0.0,0.0,0.0,0.0,0.0,0.0,0.0,0.0,0.0,0.0,0.0,0.0,0.0,0.0,0.0,0.0,0.0,0.0,0.0,0.0,0.0,0.0,0.0,0.0,0.0,0.0,0.0,0.0,0.0,0.0,0.0,0.0,0.0,0.0,0.0,0.0,0.0,0.0,0.0,0.0,0.0,0.0,0.0,0.0,0.0,0.0,0.0,0.0,0.0,0.0,0.0,0.0,0.0,0.0,0.0,0.0,0.0,0.0,0.0,0.0,0.0,0.0,0.0,0.0,0.0,0.0,0.0,0.0,0.0,0.0,0.0,0.0,0.0,0.0,0.0,0.0,0.0,0.0,0.0,0.0,0.0,0.0,0.0,0.0,0.0,0.0,0.0,0.0,0.0,0.0,0.0,0.0,0.0,0.0,0.0,0.0,0.0,0.0,0.0,0.0,0.0,0.0,0.0,0.0,0.0,0.0,0.0,0.0,0.0,0.0,0.0,0.0,0.0,0.0,0.0,0.0,0.0,0.0,0.0,0.0,0.0,0.0,0.0,0.0,0.0,0.0,0.0,0.0,0.0,0.0,0.0,0.0,0.0,0.0,0.0,0.0,0.0,0.0,0.0,0.0,0.0,0.0,0.0,0.0,0.0,0.0,0.0,0.0,0.0,0.0,0.0,0.0,0.0,0.0,0.0,0.0,0.0,0.0,0.0,0.0,0.0,0.0,0.0,0.0,0.0,0.0,0.0,0.0,0.0,0.0,0.0,0.0,0.0,0.0,0.0,0.0,0.0,0.0,0.0,0.0,0.0,0.0,0.0,0.0,0.0,0.0,0.0,0.0,0.0,0.0,0.0,0.0,0.0,0.0,0.0,0.0,0.0,0.0,0.0,0.0,0.0,0.0,0.0,0.0,0.0,0.0,0.0,0.0,0.0,0.0,0.0,0.0,0.0,0.0,0.0,0.0,0.0,0.0,0.0,0.0,0.0,0.0,0.0,0.0,0.0,0.0,0.0,0.0,0.0,0.0,0.0,0.0,0.0,0.0,0.0,0.0,0.0,0.0,0.0,0.0,0.0,0.0,0.0,0.0,0.0,0.0,0.0,0.0,0.0,0.0,0.0,0.0,0.0,0.0,0.0,0.0,0.0,0.0,0.0,0.0,0.0,0.0,0.0,0.0,0.0,0.0,0.0,0.0,0.0,0.0,0.0,0.0,0.0,0.0,0.0,0.0,0.0,0.0,0.0,0.0,0.0,0.0,0.0,0.0,0.0,0.0,0.0,0.0,0.0,0.0,0.0,0.0,0.0,0.0,0.0,0.0,0.0,0.0,0.0,0.0,0.0,0.0,0.0,0.0,0.0,0.0,0.0,0.0,0.0,0.0,0.0,0.0,0.0,0.0,0.0,0.0,0.0,0.0,0.0,0.0,0.0,0.0,0.0,0.0,0.0,0.0,0.0,0.0,0.0,0.0,0.0,0.0,0.0,0.0,0.0,0.0,0.0,0.0,0.0,0.0,0.0,0.0,0.0,0.0,0.0,0.0,0.0,0.0,0.0,0.0,0.0,0.0,0.0,0.0,0.0,0.0,0.0,0.0,0.0,0.0,0.0,0.0,0.0,0.0,0.0,0.0,0.0,0.0,0.0,0.0,0.0,0.0,0.0,0.0,0.0,0.0,0.0,0.0,0.0,0.0,0.0,0.0,0.0,0.0,0.0,0.0,0.0,0.0,0.0,0.0,0.0,0.0,0.0,0.0,0.0,0.0,0.0,0.0,0.0,0.0,0.0,0.0,0.0,0.0,0.0,0.0,0.0,0.0,0.0,0.0,0.0,0.0,0.0,0.0,0.0,0.0,0.0,0.0,0.0,0.0,0.0,0.0,0.0,0.0,0.0,0.0,0.0,0.0,0.0,0.0,0.0,0.0,0.0,0.0,0.0,0.0,0.0,0.0,0.0,0.0,0.0,0.0,0.0,0.0,0.0,0.0,0.0,0.0,0.0,0.0,0.0,0.0,0.0,0.0,0.0,0.0,0.0,0.0,0.0,0.0,0.0,0.0,0.0,0.0,0.0,0.0,0.0,0.0,0.0,0.0,0.0,0.0,0.0,0.0,0.0,0.0,0.0,0.0,0.0,0.0,0.0,0.0,0.0,0.0,0.0,0.0,0.0,0.0,0.0,0.0,0.0,0.0,0.0,0.0,0.0,0.0,0.0,0.0,0.0,0.0,0.0,0.0,0.0,0.0,0.0,0.0,0.0,0.0,0.0,0.0,0.0,0.0,0.0,0.0,0.0,0.0,0.0,0.0,0.0,0.0,0.0,0.0,0.0,0.0,0.0,0.0,0.0,0.0,0.0,0.0,0.0,0.0,0.0,0.0,0.0,0.0,0.0,0.0,0.0,0.0,0.0,0.0,0.0,0.0,0.0,0.0,0.0,0.0,0.0,0.0,0.0,0.0,0.0,0.0,0.0,0.0,0.0,0.0,0.0,0.0,0.0,0.0,0.0,0.0,0.0,0.0,0.0,0.0,0.0,0.0,0.0,0.0,0.0,0.0,0.0,0.0,0.0,0.0,0.0,0.0,0.0,0.0,0.0,0.0,0.0,0.0,0.0,0.0,0.0,0.0,0.0,0.0,0.0,0.0,0.0,0.0,0.0,0.0,0.0,0.0,0.0,0.0,0.0,0.0,0.0,0.0,0.0,0.0,0.0,0.0,0.0,0.0,0.0,0.0,0.0,0.0,0.0,0.0,0.0,0.0,0.0,0.0,0.0,0.0,0.0,0.0,0.0,0.0,0.0,0.0,0.0,0.0,0.0,0.0,0.0,0.0,0.0,0.0,0.0,0.0,0.0,0.0,0.0,0.0,0.0,0.0,0.0,0.0,0.0,0.0,0.0,0.0,0.0,0.0,0.0,0.0,0.0,0.0,0.0,0.0,0.0,0.0,0.0,0.0,0.0,0.0,0.0,0.0,0.0,0.0,0.0,0.0,0.0,0.0,0.0,0.0,0.0,0.0,0.0,0.0,0.0,0.0,0.0,0.0,0.0,0.0,0.0,0.0,0.0,0.0,0.0,0.0,0.0,0.0,0.0,0.0,0.0,0.0,0.0,0.0,0.0,0.0,0.0,0.0,0.0,0.0,0.0,0.0,0.0,0.0,0.0,0.0,0.0,0.0,0.0,0.0,0.0,0.0,0.0,0.0,0.0,0.0,0.0,0.0,0.0,0.0,0.0,0.0,0.0,0.0,0.0,0.0,0.0,0.0,0.0,0.0,0.0,0.0,0.0,0.0,0.0,0.0,0.0,0.0,1.614,0.0,0.0,0.0,0.0,0.0,0.0,0.0,0.0,0.0,0.0,0.0,0.0,0.0,0.0,0.0,0.0,0.0,0.0,0.0,0.0,0.0,0.0,0.0,0.0,0.0,0.0,0.0,0.0,0.0,0.0,0.0,0.0,0.0,0.0,0.0,0.0,0.0,0.0,0.0,0.0,0.0,0.0,0.0,0.0,0.0,0.0,0.0,0.0,0.0,0.0,0.0,0.0,0.0,0.0,0.0,0.0,0.0,0.0,0.0,0.0,0.0,0.0,0.0,0.0,0.0,0.0,0.0,0.0,0.0,0.0,0.0,0.0,0.0,0.0,0.0,0.0,0.0,0.0,0.0,0.0,0.0,0.0,0.0,0.0,0.0,0.0,0.0,0.0,0.0,0.0,0.0,0.0,0.0,0.0,0.0,0.0,0.0,0.0,0.0,0.0,0.0,0.0,0.0,0.0,0.0,0.0,0.0,0.0,0.0,0.0,1.542,1.542,1.542,1.5526,1.5806,0.0,0.0,0.0,0.0,0.0,0.0,0.0,0.0,0.0,0.0,0.0,0.0,0.0,0.0,0.0,0.0,0.0,0.0,0.0,0.0,0.0,0.0,0.0,0.0,0.0,0.0,0.0,0.0,0.0,0.0,0.0,0.0,0.0,0.0,0.0,0.0,0.0,0.0,0.0,0.0,0.0,0.0,0.0,0.0,0.0,0.0,0.0,0.0,0.0,0.0,0.0,0.0,0.0,0.0,0.0,0.0,0.0,0.0,0.0,0.0,0.0,0.0,0.0,0.0,0.0,0.0,0.0,0.0,0.0,0.0,0.0,0.0,0.0,0.0,0.0,0.0,0.0,0.0,0.0,0.0,0.0,0.0,0.0,0.0,0.0,0.0,0.0,0.0,0.0,0.0,0.0,0.0,0.0,0.0,0.0,0.0,0.0,0.0,0.0,0.0,0.0,0.0,0.0,0.0,0.0,0.0,0.0,0.0,0.0,0.0,0.0,0.0,1.542,1.542,1.542,0.0,0.0,0.0,0.0,0.0,0.0,0.0,0.0,0.0,0.0,0.0,0.0,0.0,0.0,0.0,0.0,0.0,0.0,0.0,0.0,0.0,0.0,0.0,0.0,0.0,0.0,0.0,0.0,0.0,0.0,0.0,0.0,0.0,0.0,0.0,0.0,0.0,0.0,0.0,0.0,0.0,0.0,0.0,0.0,0.0,0.0,0.0,0.0,0.0,0.0,0.0,0.0,0.0,0.0,0.0,0.0,0.0,0.0,0.0,0.0,0.0,0.0,0.0,0.0,0.0,0.0,0.0,0.0,0.0,0.0,0.0,0.0,0.0,0.0,0.0,0.0,0.0,0.0,0.0,0.0,0.0,0.0,0.0,0.0,0.0,0.0,0.0,0.0,0.0,0.0,0.0,0.0,0.0,0.0,0.0,0.0,0.0,0.0,0.0,0.0,0.0,0.0,0.0,0.0,0.0,0.0,0.0,0.0,0.0,0.0,1.542,1.542,1.542,0.0,1.5439,0.0,0.0,0.0,0.0,0.0,0.0,0.0,0.0,0.0,0.0,0.0,0.0,0.0,0.0,0.0,0.0,0.0,0.0,0.0,0.0,0.0,0.0,0.0,0.0,0.0,0.0,0.0,0.0,0.0,0.0,0.0,0.0,0.0,0.0,0.0,0.0,0.0,0.0,0.0,0.0,0.0,0.0,0.0,0.0,0.0,0.0,0.0,0.0,0.0,0.0,0.0,0.0,0.0,0.0,0.0,0.0,0.0,0.0,0.0,0.0,0.0,0.0,0.0,0.0,0.0,0.0,0.0,0.0,0.0,0.0,0.0,0.0,0.0,0.0,0.0,0.0,0.0,0.0,0.0,0.0,0.0,0.0,0.0,0.0,0.0,0.0,0.0,0.0,0.0,0.0,0.0,0.0,0.0,0.0,0.0,0.0,0.0,0.0,0.0,0.0,0.0,0.0,0.0,0.0,0.0,0.0,0.0,0.0,0.0,0.0,1.542,1.542,1.542,1.5399,0.0,0.0,0.0,0.0,0.0,0.0,0.0,0.0,0.0,0.0,0.0,0.0,0.0,0.0,0.0,0.0,0.0,0.0,0.0,0.0,0.0,0.0,0.0,0.0,0.0,0.0,0.0,0.0,0.0,0.0,0.0,0.0,0.0,0.0,0.0,0.0,0.0,0.0,0.0,0.0,0.0,0.0,0.0,0.0,0.0,0.0,0.0,0.0,0.0,0.0,0.0,0.0,0.0,0.0,0.0,0.0,0.0,0.0,0.0,0.0,0.0,0.0,0.0,0.0,0.0,0.0,0.0,0.0,0.0,0.0,0.0,0.0,0.0,0.0,0.0,0.0,0.0,0.0,0.0,0.0,0.0,0.0,0.0,0.0,0.0,0.0,0.0,0.0,0.0,0.0,0.0,0.0,0.0,0.0,0.0,0.0,0.0,0.0,0.0,0.0,0.0,0.0,0.0,0.0,0.0,0.0,0.0,0.0,0.0,0.0,1.542,1.542,1.541,1.5408,1.5447,1.5502,0.0,0.0,0.0,0.0,0.0,0.0,0.0,0.0,0.0,0.0,0.0,0.0,0.0,0.0,0.0,0.0,0.0,0.0,0.0,0.0,0.0,0.0,0.0,0.0,0.0,0.0,0.0,0.0,0.0,0.0,0.0,0.0,0.0,0.0,0.0,0.0,0.0,0.0,0.0,0.0,0.0,0.0,0.0,0.0,0.0,0.0,0.0,0.0,0.0,0.0,0.0,0.0,0.0,0.0,0.0,0.0,0.0,0.0,0.0,0.0,0.0,0.0,0.0,0.0,0.0,0.0,0.0,0.0,0.0,0.0,0.0,0.0,0.0,0.0,0.0,0.0,0.0,0.0,0.0,0.0,0.0,0.0,0.0,0.0,0.0,0.0,0.0,0.0,0.0,0.0,0.0,0.0,0.0,0.0,0.0,0.0,0.0,0.0,0.0,0.0,0.0,0.0,0.0,0.0,0.0,0.0,0.0,0.0,1.542,1.542,1.542,1.5429,1.5479,1.5495,0.0,0.0,0.0,0.0,0.0,0.0,0.0,0.0,0.0,0.0,0.0,0.0,0.0,0.0,0.0,0.0,0.0,0.0,0.0,0.0,0.0,0.0,0.0,0.0,0.0,0.0,0.0,0.0,0.0,0.0,0.0,0.0,0.0,0.0,0.0,0.0,0.0,0.0,0.0,0.0,0.0,0.0,0.0,0.0,0.0,0.0,0.0,0.0,0.0,0.0,0.0,0.0,0.0,0.0,0.0,0.0,0.0,0.0,0.0,0.0,0.0,0.0,0.0,0.0,0.0,0.0,0.0,0.0,0.0,0.0,0.0,0.0,0.0,0.0,0.0,0.0,0.0,0.0,0.0,0.0,0.0,0.0,0.0,0.0,0.0,0.0,0.0,0.0,0.0,0.0,0.0,0.0,0.0,0.0,0.0,0.0,0.0,0.0,0.0,0.0,0.0,0.0,0.0,0.0,0.0,0.0,0.0,0.0,0.0,1.542,1.542,1.5575,1.594,1.5617,1.5656,0.0,0.0,0.0,0.0,0.0,0.0,0.0,0.0,0.0,0.0,0.0,0.0,0.0,0.0,0.0,0.0,0.0,0.0,0.0,0.0,0.0,0.0,0.0,0.0,0.0,0.0,0.0,0.0,0.0,0.0,0.0,0.0,0.0,0.0,0.0,0.0,0.0,0.0,0.0,0.0,0.0,0.0,0.0,0.0,0.0,0.0,0.0,0.0,0.0,0.0,0.0,0.0,0.0,0.0,0.0,0.0,0.0,0.0,0.0,0.0,0.0,0.0,0.0,0.0,0.0,0.0,0.0,0.0,0.0,0.0,0.0,0.0,0.0,0.0,0.0,0.0,0.0,0.0,0.0,0.0,0.0,0.0,0.0,0.0,0.0,0.0,0.0,0.0,0.0,0.0,0.0,0.0,0.0,0.0,0.0,0.0,0.0,0.0,0.0,0.0,0.0,0.0,0.0,0.0,0.0,0.0,0.0,0.0,0.0,1.6158,0.0,1.6133,1.6519,1.6211,1.6151,0.0,0.0,0.0,0.0,0.0,0.0,0.0,0.0,0.0,0.0,0.0,0.0,0.0,0.0,0.0,0.0,0.0,0.0,0.0,0.0,0.0,0.0,0.0,0.0,0.0,0.0,0.0,0.0,0.0,0.0,0.0,0.0,0.0,0.0,0.0,0.0,0.0,0.0,0.0,0.0,0.0,0.0,0.0,0.0,0.0,0.0,0.0,0.0,0.0,0.0,0.0,0.0,0.0,0.0,0.0,0.0,0.0,0.0,0.0,0.0,0.0,0.0,0.0,0.0,0.0,0.0,0.0,0.0,0.0,0.0,0.0,0.0,0.0,0.0,0.0,0.0,0.0,0.0,0.0,0.0,0.0,0.0,0.0,0.0,0.0,0.0,0.0,0.0,0.0,0.0,0.0,0.0,0.0,0.0,0.0,0.0,0.0,0.0,0.0,0.0,0.0,0.0,0.0,0.0,0.0,0.0,0.0,0.0,1.7034,1.7709,1.7273,1.7054,1.7122,1.7225,1.7051,0.0,0.0,0.0,0.0,0.0,0.0,0.0,0.0,0.0,0.0,0.0,0.0,0.0,0.0,0.0,0.0,0.0,0.0,0.0,0.0,0.0,0.0,0.0,0.0,0.0,0.0,0.0,0.0,0.0,0.0,0.0,0.0,0.0,0.0,0.0,0.0,0.0,0.0,0.0,0.0,0.0,0.0,0.0,0.0,0.0,0.0,0.0,0.0,0.0,0.0,0.0,0.0,0.0,0.0,0.0,0.0,0.0,0.0,0.0,0.0,0.0,0.0,0.0,0.0,0.0,0.0,0.0,0.0,0.0,0.0,0.0,0.0,0.0,0.0,0.0,0.0,0.0,0.0,0.0,0.0,0.0,0.0,0.0,0.0,0.0,0.0,0.0,0.0,0.0,0.0,0.0,0.0,0.0,0.0,0.0,0.0,0.0,0.0,0.0,0.0,0.0,0.0,0.0,0.0,0.0,0.0,0.0,0.0,0.0,1.7085,1.7828,1.8227,1.8197,1.8309,1.8278,0.0,0.0,0.0,0.0,0.0,0.0,0.0,0.0,0.0,0.0,0.0,0.0,0.0,0.0,0.0,0.0,0.0,0.0,0.0,0.0,0.0,0.0,0.0,0.0,0.0,0.0,0.0,0.0,0.0,0.0,0.0,0.0,0.0,0.0,0.0,0.0,0.0,0.0,0.0,0.0,0.0,0.0,0.0,0.0,0.0,0.0,0.0,0.0,0.0,0.0,0.0,0.0,0.0,0.0,0.0,0.0,0.0,0.0,0.0,0.0,0.0,0.0,0.0,0.0,0.0,0.0,0.0,0.0,0.0,0.0,0.0,0.0,0.0,0.0,0.0,0.0,0.0,0.0,0.0,0.0,0.0,0.0,0.0,0.0,0.0,0.0,0.0,0.0,0.0,0.0,0.0,0.0,0.0,0.0,0.0,0.0,0.0,0.0,0.0,0.0,0.0,0.0,0.0,0.0,0.0,0.0,0.0,0.0,0.0,1.7895,1.882,1.9365,1.9376,1.9437,1.9402,1.9231,0.0,0.0,0.0,0.0,0.0,0.0,0.0,0.0,0.0,0.0,0.0,0.0,0.0,0.0,0.0,0.0,0.0,0.0,0.0,0.0,0.0,0.0,0.0,0.0,0.0,0.0,0.0,0.0,0.0,0.0,0.0,0.0,0.0,0.0,0.0,0.0,0.0,0.0,0.0,0.0,0.0,0.0,0.0,0.0,0.0,0.0,0.0,0.0,0.0,0.0,0.0,0.0,0.0,0.0,0.0,0.0,0.0,0.0,0.0,0.0,0.0,0.0,0.0,0.0,0.0,0.0,0.0,0.0,0.0,0.0,0.0,0.0,0.0,0.0,0.0,0.0,0.0,0.0,0.0,0.0,0.0,0.0,0.0,0.0,0.0,0.0,0.0,0.0,0.0,0.0,0.0,0.0,0.0,0.0,0.0,0.0,0.0,0.0,0.0,0.0,0.0,0.0,0.0,0.0,0.0,0.0,0.0,0.0,1.9671,2.0113,2.0393,2.0496,2.0576,2.0392,0.0,0.0,0.0,0.0,0.0,0.0,0.0,0.0,0.0,0.0,0.0,0.0,0.0,0.0,0.0,0.0,0.0,0.0,0.0,0.0,0.0,0.0,0.0,0.0,0.0,0.0,0.0,0.0,0.0,0.0,0.0,0.0,0.0,0.0,0.0,0.0,0.0,0.0,0.0,0.0,0.0,0.0,0.0,0.0,0.0,0.0,0.0,0.0,0.0,0.0,0.0,0.0,0.0,0.0,0.0,0.0,0.0,0.0,0.0,0.0,0.0,0.0,0.0,0.0,0.0,0.0,0.0,0.0,0.0,0.0,0.0,0.0,0.0,0.0,0.0,0.0,0.0,0.0,0.0,0.0,0.0,0.0,0.0,0.0,0.0,0.0,0.0,0.0,0.0,0.0,0.0,0.0,0.0,0.0,0.0,0.0,0.0,0.0,0.0,0.0,0.0,0.0,0.0,0.0,0.0,0.0,0.0,0.0,0.0,2.0344,2.0756,2.0857,2.0602,2.1125,2.1136,0.0,0.0,0.0,0.0,0.0,0.0,0.0,0.0,0.0,0.0,0.0,0.0,0.0,0.0,0.0,0.0,0.0,0.0,0.0,0.0,0.0,0.0,0.0,0.0,0.0,0.0,0.0,0.0,0.0,0.0,0.0,0.0,0.0,0.0,0.0,0.0,0.0,0.0,0.0,0.0,0.0,0.0,0.0,0.0,0.0,0.0,0.0,0.0,0.0,0.0,0.0,0.0,0.0,0.0,0.0,0.0,0.0,0.0,0.0,0.0,0.0,0.0,0.0,0.0,0.0,0.0,0.0,0.0,0.0,0.0,0.0,0.0,0.0,0.0,0.0,0.0,0.0,0.0,0.0,0.0,0.0,0.0,0.0,0.0,0.0,0.0,0.0,0.0,0.0,0.0,0.0,0.0,0.0,0.0,0.0,0.0,0.0,0.0,0.0,0.0,0.0,0.0,0.0,0.0,0.0,0.0,0.0,0.0,2.0687,2.0938,2.1014,2.0989,2.0837,2.1388,2.1646,0.0,0.0,0.0,0.0,0.0,0.0,0.0,0.0,0.0,0.0,0.0,0.0,0.0,0.0,0.0,0.0,0.0,0.0,0.0,0.0,0.0,0.0,0.0,0.0,0.0,0.0,0.0,0.0,0.0,0.0,0.0,0.0,0.0,0.0,0.0,0.0,0.0,0.0,0.0,0.0,0.0,0.0,0.0,0.0,0.0,0.0,0.0,0.0,0.0,0.0,0.0,0.0,0.0,0.0,0.0,0.0,0.0,0.0,0.0,0.0,0.0,0.0,0.0,0.0,0.0,0.0,0.0,0.0,0.0,0.0,0.0,0.0,0.0,0.0,0.0,0.0,0.0,0.0,0.0,0.0,0.0,0.0,0.0,0.0,0.0,0.0,0.0,0.0,0.0,0.0,0.0,0.0,0.0,0.0,0.0,0.0,0.0,0.0,0.0,0.0,0.0,0.0,0.0,0.0,0.0,0.0,0.0,0.0,2.1568,2.1464,2.114,2.1086,2.131,2.1533,2.1788,0.0,0.0,0.0,0.0,0.0,0.0,0.0,0.0,0.0,0.0,0.0,0.0,0.0,0.0,0.0,0.0,0.0,0.0,0.0,0.0,0.0,0.0,0.0,0.0,0.0,0.0,0.0,0.0,0.0,0.0,0.0,0.0,0.0,0.0,0.0,0.0,0.0,0.0,0.0,0.0,0.0,0.0,0.0,0.0,0.0,0.0,0.0,0.0,0.0,0.0,0.0,0.0,0.0,0.0,0.0,0.0,0.0,0.0,0.0,0.0,0.0,0.0,0.0,0.0,0.0,0.0,0.0,0.0,0.0,0.0,0.0,0.0,0.0,0.0,0.0,0.0,0.0,0.0,0.0,0.0,0.0,0.0,0.0,0.0,0.0,0.0,0.0,0.0,0.0,0.0,0.0,0.0,0.0,0.0,0.0,0.0,0.0,0.0,0.0,0.0,0.0,0.0,0.0,0.0,0.0,0.0,0.0,0.0,2.1711,2.1945,2.1636,2.1592,2.1902,2.1506,2.1316,0.0,0.0,0.0,0.0,0.0,0.0,0.0,0.0,0.0,0.0,0.0,0.0,0.0,0.0,0.0,0.0,0.0,0.0,0.0,0.0,0.0,0.0,0.0,0.0,0.0,0.0,0.0,0.0,0.0,0.0,0.0,0.0,0.0,0.0,0.0,0.0,0.0,0.0,0.0,0.0,0.0,0.0,0.0,0.0,0.0,0.0,0.0,0.0,1.1023,0.0,0.0,0.0,0.0,0.0,0.0,0.0,0.0,0.0,0.0,0.0,0.0,0.0,0.0,0.0,0.0,0.0,0.0,0.0,0.0,0.0,0.0,0.0,0.0,0.0,0.0,0.0,0.0,0.0,0.0,0.0,0.0,0.0,0.0,0.0,0.0,0.0,0.0,0.0,0.0,0.0,0.0,0.0,0.0,0.0,0.0,0.0,0.0,0.0,0.0,0.0,0.0,0.0,0.0,0.0,0.0,0.0,0.0,0.0,2.2246,2.2214,2.2026,2.1998,2.2091,2.199,2.1799,0.0,0.0,0.0,0.0,0.0,0.0,0.0,0.0,0.0,0.0,0.0,0.0,0.0,0.0,0.0,0.0,0.0,0.0,0.0,0.0,0.0,0.0,0.0,0.0,0.0,0.0,0.0,0.0,0.0,0.0,0.0,0.0,0.0,0.0,0.0,0.0,0.0,0.0,0.0,0.0,0.0,0.0,0.0,0.0,0.0,0.0,0.0,0.0,0.0,0.0,0.0,0.0,0.0,0.0,0.0,0.0,0.0,0.0,0.0,0.0,0.0,0.0,0.0,0.0,0.0,0.0,0.0,0.0,0.0,0.0,0.0,0.0,0.0,0.0,0.0,0.0,0.0,0.0,0.0,0.0,0.0,0.0,0.0,0.0,0.0,0.0,0.0,0.0,0.0,0.0,0.0,0.0,0.0,0.0,0.0,0.0,0.0,0.0,0.0,0.0,0.0,0.0,0.0,0.0,0.0,0.0,0.0,2.3001,2.2815,2.2455,2.2422,2.2369,2.2256,2.249,2.2423,2.1979,0.0,0.0,0.0,0.0,0.0,0.0,0.0,0.0,0.0,0.0,0.0,0.0,0.0,0.0,0.0,0.0,0.0,0.0,0.0,0.0,0.0,0.0,0.0,0.0,0.0,0.0,0.0,0.0,0.0,0.0,0.0,0.0,0.0,0.0,0.0,0.0,0.0,0.0,1.2915,1.2387,0.0,0.0,0.0,0.0,0.0,0.0,0.0,0.0,1.2116,0.0,0.0,0.0,0.0,0.0,0.0,0.0,0.0,0.0,0.0,0.0,0.0,0.0,0.0,0.0,0.0,0.0,0.0,0.0,0.0,0.0,0.0,0.0,0.0,0.0,0.0,0.0,0.0,0.0,0.0,0.0,0.0,0.0,0.0,0.0,0.0,0.0,0.0,0.0,0.0,0.0,0.0,0.0,0.0,0.0,0.0,0.0,0.0,0.0,0.0,0.0,0.0,0.0,0.0,0.0,0.0,2.3001,2.3001,2.2957,2.2892,2.2892,2.2885,2.2871,2.2534,2.2328,2.2218,0.0,0.0,0.0,0.0,0.0,0.0,0.0,0.0,0.0,0.0,0.0,0.0,0.0,0.0,0.0,0.0,0.0,0.0,0.0,0.0,0.0,0.0,0.0,0.0,0.0,0.0,0.0,0.0,0.0,0.0,0.0,0.0,0.0,0.0,0.0,0.0,0.0,0.0,0.0,1.2008,1.1685,0.0,0.0,0.0,0.0,0.0,0.0,0.0,0.0,1.1751,0.0,0.0,0.0,0.0,0.0,0.0,0.0,0.0,0.0,0.0,0.0,0.0,0.0,0.0,0.0,0.0,0.0,0.0,0.0,0.0,0.0,0.0,0.0,0.0,0.0,0.0,0.0,0.0,0.0,0.0,0.0,0.0,0.0,0.0,0.0,0.0,0.0,0.0,0.0,0.0,0.0,0.0,0.0,0.0,0.0,0.0,0.0,0.0,0.0,0.0,0.0,0.0,0.0,0.0,0.0,2.3001,2.3001,2.3001,2.3001,2.3001,2.3001,2.299,2.2967,2.2893,0.0,0.0,0.0,0.0,0.0,0.0,0.0,0.0,0.0,0.0,0.0,0.0,0.0,0.0,0.0,0.0,0.0,0.0,0.0,0.0,0.0,0.0,0.0,0.0,0.0,0.0,0.0,0.0,0.0,0.0,0.0,0.0,0.0,0.0,0.0,0.0,0.0,0.0,0.0,0.0,1.2323,1.2387,1.2983,0.0,0.0,0.0,0.0,0.0,0.0,1.2618,1.2421,0.0,0.0,0.0,0.0,0.0,0.0,0.0,0.0,0.0,0.0,0.0,0.0,0.0,0.0,0.0,0.0,0.0,0.0,0.0,0.0,0.0,0.0,0.0,0.0,0.0,0.0,0.0,0.0,0.0,0.0,0.0,0.0,0.0,0.0,0.0,0.0,0.0,0.0,0.0,0.0,0.0,0.0,0.0,0.0,0.0,0.0,0.0,0.0,0.0,0.0,0.0,0.0,0.0,0.0,0.0,2.3001,2.3001,2.3001,2.3001,2.3001,2.3001,2.3001,2.3298,2.3335,0.0,0.0,0.0,0.0,0.0,0.0,0.0,0.0,0.0,0.0,0.0,0.0,0.0,0.0,0.0,0.0,0.0,0.0,0.0,0.0,0.0,0.0,0.0,0.0,0.0,0.0,0.0,0.0,0.0,0.0,0.0,0.0,0.0,0.0,0.0,0.0,0.0,0.0,0.0,0.0,0.0,1.292,1.2953,1.3031,0.0,0.0,0.0,0.0,1.3085,1.3099,0.0,0.0,0.0,0.0,0.0,0.0,0.0,0.0,0.0,0.0,0.0,0.0,0.0,0.0,0.0,0.0,0.0,0.0,0.0,0.0,0.0,0.0,0.0,0.0,0.0,0.0,0.0,0.0,0.0,0.0,0.0,0.0,0.0,0.0,0.0,0.0,0.0,0.0,0.0,0.0,0.0,0.0,0.0,0.0,0.0,0.0,0.0,0.0,0.0,0.0,0.0,0.0,0.0,0.0,0.0,0.0,2.3001,2.3001,2.3001,2.3001,2.3001,2.3001,2.3001,2.3038,2.3075,0.0,0.0,0.0,0.0,0.0,0.0,0.0,0.0,0.0,0.0,0.0,0.0,0.0,0.0,0.0,0.0,0.0,0.0,0.0,0.0,0.0,0.0,0.0,0.0,0.0,0.0,0.0,0.0,0.0,0.0,0.0,0.0,0.0,0.0,0.0,0.0,0.0,0.0,0.0,0.0,0.0,1.2215,1.2215,1.2618,1.2929,0.0,0.0,1.2964,1.3085,1.3099,0.0,0.0,0.0,0.0,0.0,0.0,0.0,0.0,0.0,0.0,0.0,0.0,0.0,0.0,0.0,0.0,0.0,0.0,0.0,0.0,0.0,0.0,0.0,0.0,0.0,0.0,0.0,0.0,0.0,0.0,0.0,0.0,0.0,0.0,0.0,0.0,0.0,0.0,0.0,0.0,0.0,0.0,0.0,0.0,0.0,0.0,0.0,0.0,0.0,0.0,0.0,0.0,0.0,0.0,0.0,2.2927,2.2852,2.2964,2.3001,2.3001,2.3001,2.3001,2.3001,2.3001,2.3001,0.0,0.0,0.0,0.0,0.0,0.0,0.0,0.0,0.0,0.0,0.0,0.0,0.0,0.0,0.0,0.0,0.0,0.0,0.0,0.0,0.0,0.0,0.0,0.0,0.0,0.0,0.0,0.0,0.0,0.0,0.0,0.0,0.0,0.0,0.0,0.0,0.0,0.0,0.0,0.0,0.0,0.0,1.2637,1.2798,0.0,0.0,0.0,1.3002,1.2978,0.0,0.0,0.0,0.0,0.0,0.0,0.0,0.0,0.0,0.0,0.0,0.0,0.0,0.0,0.0,0.0,0.0,0.0,0.0,0.0,0.0,0.0,0.0,0.0,0.0,0.0,0.0,0.0,0.0,0.0,0.0,0.0,0.0,0.0,0.0,0.0,0.0,0.0,0.0,0.0,0.0,0.0,0.0,0.0,0.0,0.0,0.0,0.0,0.0,0.0,0.0,0.0,0.0,0.0,0.0,0.0,0.0,2.2703,2.2889,2.3001,2.3001,2.3001,2.3001,2.3001,2.3001,0.0,0.0,0.0,0.0,0.0,0.0,0.0,0.0,0.0,0.0,0.0,0.0,0.0,0.0,0.0,0.0,0.0,0.0,0.0,0.0,0.0,0.0,0.0,0.0,0.0,0.0,0.0,1.4012,0.0,0.0,0.0,0.0,0.0,0.0,0.0,0.0,0.0,0.0,0.0,0.0,0.0,0.0,1.3018,1.3336,1.3401,1.3457,0.0,0.0,1.3328,1.3228,1.3229,1.3234,0.0,0.0,0.0,0.0,0.0,0.0,0.0,0.0,0.0,0.0,0.0,0.0,0.0,0.0,0.0,0.0,0.0,0.0,0.0,0.0,0.0,0.0,0.0,0.0,0.0,0.0,0.0,0.0,0.0,0.0,0.0,0.0,0.0,0.0,0.0,0.0,0.0,0.0,0.0,0.0,0.0,0.0,0.0,0.0,0.0,0.0,0.0,0.0,0.0,0.0,0.0,0.0,0.0,0.0,0.0,2.2703,2.2889,2.3001,2.3001,2.3001,2.3001,2.3001,2.3001,2.3001,0.0,0.0,0.0,0.0,0.0,0.0,0.0,0.0,0.0,0.0,0.0,0.0,0.0,0.0,0.0,0.0,0.0,0.0,0.0,0.0,0.0,0.0,0.0,0.0,0.0,0.0,0.0,0.0,0.0,0.0,0.0,0.0,0.0,0.0,0.0,0.0,0.0,0.0,0.0,0.0,0.0,1.3575,1.4165,1.4598,1.4863,0.0,0.0,1.4016,1.4016,1.3824,1.3732,1.3984,0.0,0.0,0.0,0.0,0.0,0.0,0.0,0.0,0.0,0.0,0.0,0.0,0.0,0.0,0.0,0.0,0.0,0.0,0.0,0.0,0.0,0.0,0.0,0.0,0.0,0.0,0.0,0.0,0.0,0.0,0.0,0.0,0.0,0.0,0.0,0.0,0.0,0.0,0.0,0.0,0.0,0.0,0.0,0.0,0.0,0.0,0.0,0.0,0.0,0.0,0.0,0.0,0.0,2.2628,2.2515,2.2852,2.3001,2.3001,2.3001,2.3001,2.3001,2.3001,2.3001,0.0,0.0,0.0,0.0,0.0,0.0,0.0,0.0,0.0,0.0,0.0,0.0,0.0,0.0,0.0,0.0,0.0,0.0,0.0,0.0,0.0,0.0,0.0,0.0,0.0,0.0,0.0,0.0,1.3787,1.3443,1.316,0.0,0.0,0.0,0.0,0.0,0.0,0.0,0.0,0.0,0.0,1.4921,1.525,1.5437,0.0,0.0,1.4809,1.4519,1.4158,1.4004,1.3981,1.4085,1.4004,0.0,0.0,0.0,0.0,0.0,0.0,0.0,0.0,0.0,0.0,0.0,0.0,0.0,0.0,0.0,0.0,0.0,0.0,0.0,0.0,0.0,0.0,0.0,0.0,0.0,0.0,0.0,0.0,0.0,0.0,0.0,0.0,0.0,0.0,0.0,0.0,0.0,0.0,0.0,0.0,0.0,0.0,0.0,0.0,0.0,0.0,0.0,0.0,0.0,0.0,0.0,0.0,2.2478,2.2402,2.274,2.2927,2.3001,2.3001,2.3001,2.3001,2.3001,2.3001,0.0,0.0,0.0,0.0,0.0,0.0,0.0,0.0,0.0,0.0,0.0,0.0,0.0,0.0,0.0,0.0,0.0,0.0,0.0,0.0,0.0,0.0,0.0,0.0,0.0,0.0,0.0,0.0,1.4583,1.4185,1.3832,0.0,0.0,0.0,0.0,0.0,0.0,0.0,0.0,0.0,0.0,1.6262,1.6565,1.6421,1.6118,1.5722,1.5359,1.4992,1.4566,1.454,1.4636,1.4728,0.0,0.0,0.0,0.0,0.0,0.0,0.0,0.0,0.0,0.0,0.0,0.0,0.0,0.0,0.0,0.0,0.0,0.0,0.0,0.0,0.0,0.0,0.0,0.0,0.0,0.0,0.0,0.0,0.0,0.0,0.0,0.0,0.0,0.0,0.0,0.0,0.0,0.0,0.0,0.0,0.0,0.0,0.0,0.0,0.0,0.0,0.0,0.0,0.0,0.0,0.0,0.0,0.0,2.2225,2.2402,2.259,2.2815,2.3001,2.3001,2.3001,2.3001,2.3001,2.3001,2.3001,0.0,0.0,0.0,0.0,0.0,0.0,0.0,0.0,0.0,0.0,0.0,0.0,0.0,0.0,0.0,0.0,0.0,0.0,0.0,0.0,0.0,0.0,0.0,0.0,0.0,0.0,1.609,1.5786,1.541,0.0,0.0,0.0,0.0,0.0,0.0,0.0,0.0,0.0,0.0,1.6731,1.7502,1.8029,1.7588,1.7153,1.7147,1.6175,1.5429,1.5381,1.5545,1.5801,0.0,0.0,0.0,0.0,0.0,0.0,0.0,0.0,0.0,0.0,0.0,0.0,0.0,0.0,0.0,0.0,0.0,0.0,0.0,0.0,0.0,0.0,0.0,0.0,0.0,0.0,0.0,0.0,2.3316,0.0,0.0,0.0,0.0,0.0,0.0,0.0,0.0,0.0,0.0,0.0,2.5122,2.5299,0.0,0.0,0.0,0.0,0.0,0.0,0.0,0.0,0.0,0.0,0.0,0.0,2.2138,2.2214,2.2515,2.274,2.2815,2.2927,2.3001,2.3001,2.3001,2.3001,2.3001,0.0,0.0,0.0,0.0,0.0,0.0,0.0,0.0,0.0,0.0,0.0,0.0,0.0,0.0,0.0,0.0,0.0,0.0,0.0,0.0,0.0,0.0,0.0,0.0,0.0,1.5836,0.0,0.0,0.0,0.0,0.0,0.0,0.0,0.0,0.0,0.0,0.0,1.5956,1.6591,1.7357,1.7901,1.8127,1.8109,1.7984,0.0,0.0,0.0,0.0,0.0,0.0,0.0,0.0,0.0,0.0,0.0,0.0,0.0,0.0,1.5972,1.4729,1.412,1.3755,1.3627,0.0,0.0,0.0,0.0,0.0,0.0,0.0,0.0,0.0,0.0,0.0,0.0,0.0,0.0,0.0,0.0,2.3891,0.0,0.0,0.0,0.0,0.0,0.0,0.0,0.0,2.5099,2.5452,2.5685,2.5953,2.5674,0.0,2.4767,2.4022,0.0,0.0,0.0,0.0,0.0,0.0,0.0,0.0,2.2025,2.2111,2.2327,2.2515,2.259,2.274,2.2815,2.2889,2.2964,2.3001,2.3001,2.3001,2.3001,0.0,0.0,0.0,0.0,0.0,0.0,0.0,0.0,0.0,0.0,0.0,0.0,0.0,0.0,0.0,0.0,0.0,0.0,0.0,0.0,0.0,0.0,0.0,1.6275,0.0,0.0,0.0,0.0,0.0,0.0,0.0,0.0,0.0,1.5827,1.6257,1.6776,1.7202,1.7744,1.815,1.8275,0.0,0.0,0.0,0.0,0.0,0.0,0.0,1.7062,1.7451,1.7368,1.7368,1.7754,1.7855,1.7853,1.7704,0.0,0.0,1.5521,1.5037,1.4712,1.4165,1.3836,1.3541,1.3179,1.287,1.263,0.0,0.0,0.0,0.0,0.0,0.0,0.0,0.0,2.5777,2.5357,0.0,2.4541,0.0,0.0,0.0,0.0,0.0,0.0,0.0,0.0,2.676,2.6956,2.699,2.6956,2.6589,2.5918,2.5802,2.4909,2.3361,2.3298,0.0,0.0,0.0,0.0,0.0,0.0,2.1883,2.2063,2.2101,2.2225,2.2402,2.2413,2.2467,2.2665,2.2889,2.3001,2.3001,2.3001,2.3001,2.3001,2.2815,0.0,0.0,0.0,0.0,0.0,0.0,0.0,0.0,0.0,0.0,0.0,0.0,0.0,0.0,0.0,0.0,0.0,0.0,0.0,0.0,1.7306,0.0,0.0,0.0,0.0,0.0,0.0,0.0,0.0,0.0,0.0,1.6715,1.6853,1.719,1.7651,0.0,0.0,0.0,0.0,1.7826,1.81,1.7661,1.734,1.734,1.7794,1.8162,1.8154,0.0,0.0,1.8987,1.8987,1.8845,1.8477,1.8304,1.7905,1.6835,1.6244,1.5775,1.5303,1.5262,1.5304,1.5251,1.5089,1.5101,2.7846,0.0,0.0,0.0,0.0,2.622,2.6173,2.638,2.5884,2.5557,2.5334,2.5276,0.0,0.0,0.0,0.0,0.0,0.0,2.4803,2.5884,2.5838,2.6233,2.6977,2.6739,2.6589,2.6461,2.5791,2.4886,2.3877,2.3508,2.2777,2.1807,0.0,0.0,0.0,0.0,2.1845,2.1883,2.2025,2.2149,2.2176,2.2327,2.244,2.2478,2.2692,2.2767,2.2767,2.2927,2.3001,2.3001,2.2964,0.0,0.0,0.0,0.0,0.0,0.0,0.0,0.0,0.0,0.0,0.0,0.0,0.0,0.0,0.0,0.0,0.0,0.0,0.0,1.7311,1.7172,1.7117,0.0,0.0,0.0,0.0,0.0,0.0,0.0,0.0,0.0,1.7575,1.7372,1.7398,0.0,0.0,1.7679,1.8108,1.8397,1.8583,1.8655,0.0,0.0,0.0,1.9396,1.9268,1.9298,1.9132,1.9013,1.9013,1.9013,1.8965,1.8847,1.8823,1.8542,1.7905,1.7338,1.6931,1.6753,1.6521,1.632,1.6246,1.568,1.5122,2.931,2.8376,2.7787,2.7491,2.7316,2.6916,2.6974,2.7395,2.6984,2.6671,2.6497,2.6392,2.5764,2.4696,2.4289,0.0,0.0,0.0,2.5075,2.5978,2.5838,2.6129,2.6773,2.6602,2.6533,2.6555,2.5406,2.4564,2.4072,2.3165,2.2402,2.1807,0.0,0.0,2.1807,2.1807,2.1807,2.1807,2.1921,2.1997,2.1997,2.2176,2.23,2.2289,2.2478,2.259,2.259,2.2703,2.2777,2.274,2.2777,2.2953,0.0,0.0,0.0,0.0,0.0,0.0,0.0,0.0,0.0,0.0,0.0,1.8971,1.8746,0.0,0.0,0.0,1.8325,1.7983,1.7741,1.7709,0.0,0.0,0.0,0.0,0.0,0.0,0.0,1.7835,1.7864,1.7973,1.8228,1.805,1.7973,1.8239,1.8021,1.8002,1.8375,0.0,1.901,1.9166,1.9767,2.0199,2.0199,2.0024,1.9919,2.0109,1.9865,1.954,1.9351,1.9338,1.9254,1.9047,1.9013,1.8891,1.8566,1.8253,1.7881,1.7483,1.737,1.7227,1.7012,1.6547,1.61,3.1074,3.0597,2.9221,2.8591,2.8477,2.8439,2.8473,2.8543,2.853,2.8285,2.7825,2.7675,2.6949,2.5726,2.4813,0.0,0.0,2.5503,2.5928,2.6625,2.6625,2.6625,2.6625,2.6518,2.648,2.6411,2.4791,2.4011,2.3938,2.2606,2.1835,2.1807,2.2025,2.2025,2.1807,2.1807,2.1807,2.1807,2.1807,2.1807,2.1807,2.1997,2.2063,2.2073,2.2252,2.2402,2.2365,2.2402,2.244,2.2505,2.244,2.2505,2.2729,0.0,0.0,0.0,0.0,0.0,0.0,0.0,0.0,0.0,0.0,0.0,0.0,0.0,0.0,0.0,1.8774,0.0,1.8414,1.8536,0.0,0.0,0.0,1.8262,1.8446,1.8323,1.8343,1.8627,0.0,0.0,0.0,0.0,1.8763,1.8796,1.8761,1.8789,1.9081,1.9134,1.9284,1.9575,1.9709,1.9762,1.9902,2.0058,2.0276,2.0555,2.0617,2.0353,1.9933,1.9841,1.9648,1.9179,1.9059,1.9035,1.9025,1.8927,1.8698,1.7748,1.7941,1.8074,1.7636,1.7725,1.7582,3.183,3.1398,3.1052,3.0292,2.9194,2.8627,2.8341,2.8219,2.8206,2.8118,2.8053,2.8017,2.7797,2.7515,2.7248,2.7261,2.7442,2.7455,2.7527,2.7708,2.7708,2.772,2.7659,2.6697,2.6201,2.6069,2.418,2.3287,2.3239,2.2879,2.2402,2.1883,2.244,2.244,2.1807,2.1807,2.1807,2.1807,2.1807,2.1807,2.1807,2.1845,2.1883,2.1873,2.2073,2.2176,2.2176,2.2327,2.2729,2.3401,2.2793,2.3327,2.5299,2.4179,0.0,0.0,0.0,0.0,0.0,0.0,0.0,0.0,0.0,2.021,1.9543,0.0,1.9361,0.0,1.9284,1.8896,1.8457,1.8353,0.0,0.0,1.817,1.8048,1.8233,1.8303,1.8334,1.8314,1.8394,1.8615,1.9035,1.9089,1.9251,1.9693,1.9157,1.8849,1.926,1.9532,1.9747,1.9873,2.0341,2.0802,2.0776,2.0764,2.0729,2.0819,2.0711,2.0476,2.0091,2.0263,2.0237,1.972,1.9615,1.9432,1.9083,1.9013,1.8953,1.8674,1.8722,1.878,1.861,1.8347,1.7875,3.3361,3.314,3.2575,3.1899,3.1132,3.015,2.9655,2.9566,2.9578,2.944,2.9189,2.8687,2.8335,2.8109,2.8109,2.8109,2.8109,2.8109,2.8109,2.8109,2.8109,2.8109,2.806,2.7347,2.698,2.6932,2.5468,2.4547,2.4145,2.3841,2.3251,2.2457,2.2674,2.2569,2.2108,2.1911,2.1901,2.2108,2.1901,2.1807,2.1807,2.1807,2.1807,2.1797,2.1911,2.1949,2.1959,2.2402,2.2729,2.2883,2.283,2.3313,2.4409,2.4143,2.3998,0.0,0.0,0.0,0.0,0.0,0.0,0.0,0.0,0.0,0.0,0.0,1.9682,0.0,1.9447,0.0,1.8818,1.8818,1.8849,1.8923,1.8702,1.8617,1.8818,1.8807,1.8797,1.8818,1.8902,1.9093,1.9458,1.9533,1.9652,2.0053,1.9649,1.9441,1.9681,1.9863,1.9979,2.0033,2.0415,2.0786,2.0903,2.0823,2.0815,2.1001,2.1065,2.0956,2.0541,2.0612,2.0592,2.0245,2.0029,1.9777,1.9289,1.9266,1.9249,1.8914,1.8907,1.8999,1.8987,1.8735,1.8267,3.4861,3.492,3.3784,3.3411,3.3482,3.2311,3.165,3.1386,3.1386,3.1135,3.0658,2.9679,2.8976,2.8536,2.8524,2.8499,2.8423,2.8423,2.8386,2.8323,2.8323,2.8323,2.831,2.8125,2.8063,2.8014,2.7198,2.6349,2.5635,2.5082,2.4331,2.3405,2.3058,2.283,2.2646,2.2159,2.2066,2.2397,2.2014,2.1807,2.1807,2.1807,2.1807,2.1807,2.1807,2.1807,2.1807,2.259,2.274,2.2203,2.2953,2.3202,2.2756,2.4022,2.4432,0.0,2.4862,0.0,0.0,0.0,0.0,0.0,0.0,0.0,0.0,2.0042,1.9868,1.9164,1.9374,1.9473,1.9318,1.9483,1.9583,1.9539,1.9384,1.9351,1.9506,1.9384,1.9384,1.9506,1.955,1.9648,1.9748,1.9835,1.9911,2.0042,2.0042,2.0042,2.0096,2.0085,2.0107,2.0118,2.0118,2.0302,2.0539,2.0603,2.0709,2.1071,2.1342,2.1436,2.0899,2.089,2.0859,2.0664,2.0363,2.0012,1.9616,1.9658,1.9459,1.8946,1.8899,1.8946,1.8987,1.8987,1.8629,3.4906,3.4758,3.45,3.4412,3.4431,3.4186,3.3056,3.1386,3.1386,3.1336,3.1223,3.1022,3.0859,3.0771,3.0771,3.0545,3.0143,3.0143,2.9892,2.9478,2.9478,2.9478,2.9402,2.8356,2.7869,2.7806,2.6612,2.5915,2.5762,2.6235,2.5701,2.4291,2.4781,2.4544,0.0,0.0,0.0,0.0,2.1849,2.1807,2.1807,2.1807,2.1807,2.1807,2.1807,0.0,2.1807,2.259,2.3287,2.3866,2.395,0.0,0.0,0.0,0.0,0.0,0.0,0.0,0.0,0.0,0.0,0.0,2.3225,2.2445,2.1041,2.0039,1.9396,1.9142,1.9241,1.9351,1.9318,1.9341,1.9351,1.9351,1.9241,1.9131,1.9208,1.9274,1.9274,1.9198,1.9285,1.9374,1.944,1.955,1.9736,1.9911,2.0042,2.0085,2.0085,2.0118,2.0118,2.0118,2.0118,2.0205,2.055,2.0582,2.0571,2.0732,2.1031,2.1112,2.0787,2.0923,2.1055,2.0882,2.0554,2.0372,2.0313,1.9698,1.9247,1.9511,1.9071,1.8747,1.8934,1.9013,1.8801,3.568,0.0,3.5207,3.5082,0.0,3.4839,3.4085,3.3018,3.2742,3.2315,3.18,3.18,3.165,3.1386,3.1386,3.1248,3.1009,3.0997,3.0846,3.057,3.0319,3.0206,3.0181,2.9217,2.879,2.8739,2.8123,2.7553,2.7179,2.7529,2.705,2.5784,2.5548,2.5121,2.4518,2.3416,2.249,2.1818,2.1807,2.1807,2.1807,2.1807,2.1807,2.1807,0.0,0.0,0.0,0.0,0.0,0.0,0.0,0.0,0.0,0.0,0.0,2.5534,2.5769,2.5804,2.5569,2.5394,2.5097,2.4659,2.3945,2.2811,2.1185,2.0465,1.9806,1.9162,1.9175,1.9218,1.9175,1.9218,1.9208,1.9208,1.9142,1.9098,1.9098,1.9175,1.9175,1.9142,1.9175,1.9208,1.9274,1.9374,1.9539,1.9704,1.9813,1.9878,1.9976,2.0053,2.0118,2.0118,2.0118,2.014,2.0302,2.0367,2.0356,2.0388,2.0646,2.0796,2.0635,2.0775,2.0939,2.1012,2.0904,2.0742,2.0294,2.0029,1.9744,1.9255,1.893,1.8733,1.8804,1.8789,1.8602,3.6505,3.638,3.5881,3.5633,3.5608,3.5203,3.4964,3.4826,0.0,0.0,0.0,3.2416,3.2114,3.17,3.1687,3.1637,3.1537,3.1537,3.1486,3.1373,3.0947,3.0758,3.0721,3.0206,2.9942,2.993,2.9842,2.9417,2.8752,2.8752,2.8251,2.7319,2.6282,2.5573,2.515,2.4115,2.3002,2.1983,2.1921,2.189,2.1818,2.1807,2.1807,2.1807,2.1807,2.1807,2.1807,2.259,2.3001,2.3038,2.3852,2.4301,2.4337,2.5075,2.5523,2.5594,2.6129,2.6555,2.6692,2.6418,2.6082,2.5569,2.4507,2.3087,2.1386,2.1241,2.0707,1.9521,1.9412,1.9348,1.9108,1.9098,1.9098,1.9098,1.9098,1.9098,1.9098,1.9098,1.9098,1.9098,1.9098,1.9131,1.9241,1.9308,1.9351,1.9506,1.9583,1.9671,1.9868,2.0009,2.0118,2.0118,2.0118,2.0118,2.0118,2.0118,2.0118,2.0151,2.0356,2.0518,2.0518,2.0506,2.0679,2.0965,2.1031,2.0742,2.0308,2.0339,2.0204,1.8978,1.8759,1.877,1.8627,1.8484,1.8317,3.6797,3.6405,3.6329,3.6292,3.6292,3.6204,3.5855,3.5307,3.4349,3.3809,3.3633,3.3169,3.296,3.2885,3.2885,3.2554,3.2102,3.2102,3.1838,0.0,3.1311,3.1286,3.1248,3.0746,3.0495,3.047,3.003,2.9753,2.9624,2.9624,2.917,2.8371,2.81,2.707,2.5356,2.5025,2.4095,2.2468,2.2397,2.2201,2.1818,2.1807,2.1807,2.1807,2.1807,2.1807,2.1807,2.259,2.3001,2.3038,2.4371,2.5158,2.5158,2.5886,2.6383,2.6508,2.6487,2.6555,2.6692,2.5943,2.5453,2.5335,2.5169,2.4318,2.2729,2.2513,2.2003,2.0807,2.0618,2.0221,1.9304,1.9119,1.9129,1.9098,1.9098,1.9098,1.9098,1.9098,1.9098,1.9098,1.9098,1.9098,1.9142,1.9241,1.9285,1.9341,1.9473,1.9638,1.9835,2.0009,2.0085,2.0118,2.0118,2.0118,2.0118,2.0118,2.0118,2.0118,2.0151,2.0205,2.0248,2.0216,2.0335,2.0614,2.0518,2.0484,2.0744,2.0187,1.9885,1.9765,1.9222,1.8599,1.8453,1.8176,1.7986,3.7487,3.7224,3.6935,3.6857,3.6832,3.6531,3.6219,3.5918,3.5152,3.458,3.4299,3.3759,3.352,3.3495,3.325,3.2943,3.2679,3.2679,3.2541,3.2303,3.1976,3.1838,3.1788,3.1286,3.1035,3.0997,3.0507,3.0231,3.0206,2.9955,2.9585,2.9197,2.8752,2.7721,2.6343,2.624,2.5488,2.398,2.3016,2.2273,2.1828,2.1807,2.2035,2.244,2.2025,2.2035,2.244,2.2815,2.3176,2.3596,2.4276,2.5052,2.5886,2.5873,2.606,2.6555,2.6533,2.6521,2.6589,2.5358,2.4826,2.5229,2.4898,2.4566,2.42,2.3537,2.2823,2.1992,2.1541,2.0945,2.0143,1.9742,1.9388,1.9119,1.9098,1.9098,1.9098,1.9098,1.9098,1.9098,1.9098,1.9098,1.9098,1.9175,1.9175,1.9208,1.9351,1.9473,1.9572,1.9736,1.9911,2.0053,2.0118,2.0118,2.0118,2.0118,2.0118,2.0118,2.0118,2.0118,2.0118,2.0118,2.0172,2.0302,2.0324,2.0421,2.0646,2.0351,2.0074,1.9721,1.9463,1.8903,1.8487,1.8025,1.764,3.8128,3.7952,3.755,3.7299,3.7136,3.6644,3.6417,3.6367,3.5893,3.5445,3.5039,3.4387,3.4085,3.4035,3.3508,3.3269,3.3244,3.3131,3.3124,3.3074,3.2616,3.2416,3.234,3.1851,3.1574,3.1512,3.1047,3.0733,3.057,3.0181,2.9905,2.9714,2.9131,2.8343,2.7435,2.7435,2.6777,2.5473,2.4093,2.302,2.2241,2.2126,2.2478,2.3139,2.2478,2.244,2.3176,2.3113,2.3276,2.3804,2.4011,2.466,2.5826,2.5734,2.5838,2.6418,2.6487,2.6418,2.6198,2.5252,2.4743,2.4981,2.4636,2.4636,2.5122,2.4472,2.3723,2.3188,2.2525,2.1771,2.1113,2.0582,1.9968,1.9393,1.9253,1.9222,1.9119,1.9098,1.9098,1.9098,1.9098,1.9098,1.9098,1.9098,1.9098,1.9131,1.9208,1.9274,1.9308,1.9473,1.9714,1.9911,2.0009,2.0074,2.0085,2.0118,2.0118,2.0118,2.0118,2.0118,2.0118,2.0118,2.0118,2.0151,2.0291,2.0356,2.0183,2.0291,2.0201,1.9787,1.9483,1.912,1.8426,1.804,1.7556,3.8492,3.8027,3.7965,3.7638,3.7136,3.6656,3.643,3.6405,3.6342,3.6317,3.6103,3.5115,3.465,3.4575,3.4073,3.3834,3.3784,3.3307,3.3136,3.3149,3.3074,3.2993,3.2918,3.2403,3.2139,3.2064,3.1587,3.111,3.0721,3.057,3.0281,2.9842,2.9702,2.9209,2.8462,2.8383,2.7723,2.6427,2.6217,2.5301,2.3618,2.3107,2.3239,2.3975,2.3276,2.3239,2.3938,2.335,2.3027,2.3139,2.3768,2.4181,2.448,2.5616,2.6418,2.6487,2.6487,2.6211,2.5558,2.5955,2.5616,2.4445,2.485,2.5146,2.5264,2.5193,2.4929,2.4382,2.3734,2.2785,2.1722,2.1437,2.0872,1.9965,1.9765,1.9575,1.9253,1.9098,1.9098,1.9098,1.9212,1.9108,1.9212,1.9181,1.9129,1.9098,1.9208,1.9274,1.9274,1.9417,1.9572,1.9671,1.9813,1.9944,2.0053,2.0118,2.0085,2.0118,2.0118,2.0118,2.0118,2.0118,2.0118,2.0118,2.0151,2.0183,2.0151,2.0151,2.014,1.9976,1.9616,1.9135,1.8313,1.7991,1.7776,3.922,3.8969,3.8642,3.8002,3.7199,3.6948,3.6707,3.6417,3.6417,3.6417,3.6367,3.5881,3.5516,3.5132,3.4638,3.4387,3.4349,3.3809,3.3558,3.3533,3.3232,3.3124,3.3043,3.2842,3.2717,3.2679,3.2139,3.1763,3.1486,3.0934,3.0344,2.9842,2.9779,2.9624,2.9287,2.9248,2.8773,2.7755,2.7837,2.7131,2.5625,2.4656,2.4368,2.4671,2.407,2.4034,2.4707,2.4504,2.4371,2.4371,2.4647,2.504,2.5511,2.5687,2.6025,2.6418,2.6487,2.6349,2.6025,2.5886,2.5511,2.4826,2.5111,2.5123,2.4683,2.5016,2.5204,2.4953,2.4331,2.3508,2.2771,2.1892,2.1175,2.0842,2.0467,2.0069,1.9903,1.9862,1.9862,1.9872,1.9872,1.9862,1.9831,1.9668,1.9409,1.9181,1.9175,1.9229,1.9218,1.9274,1.9308,1.9407,1.9506,1.9671,1.9911,1.9976,2.0009,2.0085,2.0118,2.0118,2.0085,2.0118,2.0118,2.0118,2.0118,2.0118,2.0118,2.0118,2.0118,2.0031,1.9736,1.92,1.8534,1.8196,1.7893,3.9697,3.9609,3.9094,3.8304,3.7412,3.7236,3.6872,3.6443,3.6417,3.6417,3.6417,3.6417,3.6144,3.5683,3.519,3.4906,3.4831,3.4374,3.4048,3.3872,3.3483,3.3275,3.3136,3.3124,3.3124,3.3061,3.2654,3.2365,3.2072,3.1094,3.0407,3.0055,2.9867,2.9779,2.9779,2.9779,2.9507,2.8924,2.9033,2.8574,2.7393,2.6388,2.5767,2.5608,2.4862,2.4791,2.5606,2.5406,2.5312,2.5312,2.5312,2.5558,2.6094,2.5804,2.5886,2.6418,2.6487,2.6487,2.6487,2.5955,2.5523,2.5347,2.5488,2.53,2.4707,2.4969,2.5158,2.4921,2.442,2.3972,2.3589,2.2444,2.1643,2.1467,2.0894,2.054,2.0385,2.0374,2.0343,2.0374,2.0327,2.0374,2.0333,2.0131,1.9855,1.9596,1.9399,1.9295,1.9264,1.9212,1.9131,1.9252,1.9252,1.9407,1.9736,1.9802,1.9878,1.9976,2.0009,1.9987,2.0042,2.0085,2.0085,2.0085,2.0085,2.0118,2.0118,2.0118,2.0118,2.0053,1.9824,1.9397,1.8753,1.8403,1.7966,3.9697,3.9609,3.9158,3.853,3.7939,3.7425,3.6872,3.6417,3.6417,3.6417,3.6417,3.6417,3.6392,3.6304,3.5683,3.547,3.5395,3.4893,3.4437,3.4022,3.3872,3.3571,3.3149,3.3124,3.3124,3.3124,3.3061,3.2717,3.2164,3.1185,3.0568,3.0545,3.008,2.9804,2.9792,2.9779,2.9779,2.965,2.9678,2.9402,2.8775,2.8175,2.7377,2.6477,2.5676,2.5594,2.6233,2.5711,2.5312,2.5312,2.5347,2.5382,2.5453,2.606,2.6418,2.6487,2.6487,2.6487,2.6487,2.6418,2.6107,2.5558,2.599,2.606,2.5264,2.5312,2.5087,2.4264,2.4228,2.4158,2.3979,2.3216,2.2322,2.145,2.1156,2.086,2.0488,2.054,2.0405,2.0447,2.0509,2.0509,2.0436,2.0374,2.0358,2.0224,1.9975,1.9772,1.971,1.9419,1.9202,1.9183,1.9162,1.9231,1.9539,1.9605,1.9714,1.9813,1.9813,1.9747,1.9911,2.0009,2.0042,2.0053,2.0085,2.0118,2.0118,2.0118,2.0118,2.0096,2.0096,1.9671,1.9015,1.8774,1.8316,3.9697,3.9685,3.9484,3.8868,3.8015,3.7789,3.7199,3.6443,3.6417,3.6417,3.6417,3.6417,3.6417,3.6345,3.6157,3.6069,3.6019,3.5445,3.5094,3.4818,3.4236,3.3796,3.3596,3.3257,3.3124,3.3124,3.3124,3.278,3.2252,3.18,3.1273,3.0643,3.0419,3.0156,2.9854,2.9779,2.9779,2.9779,2.9779,2.9515,2.8988,2.8687,2.8097,2.7055,2.642,2.6211,2.6487,2.6198,2.606,2.6072,2.606,2.606,2.6094,2.6314,2.6487,2.6487,2.6487,2.6487,2.6487,2.6487,2.6396,2.6129,2.6314,2.6164,2.5594,2.5699,2.5546,2.4516,2.46,2.4671,2.4084,2.3412,2.2824,2.2376,2.1838,2.1439,2.1362,2.1311,2.1311,2.13,2.13,2.1207,2.0928,2.0829,2.0715,2.0472,2.0286,2.0203,2.012,1.9834,1.9544,1.9492,1.9295,1.9131,1.9241,1.9384,1.9483,1.9615,1.9681,1.9747,1.9878,1.99,1.9944,2.0042,2.0085,2.0118,2.0118,2.0118,2.0118,2.0118,2.0118,1.9867,1.9288,1.8927,1.8458,3.9839,3.9839,3.9839,3.9133,3.8065,3.8114,3.7472,3.6468,3.6417,3.6417,3.6417,3.6417,3.6417,3.6417,3.6417,3.6417,3.638,3.5968,3.5671,3.5458,3.4731,3.4336,3.4098,3.3596,3.3345,3.3307,3.3187,3.2855,3.2503,3.2303,3.1825,3.1132,3.0821,3.0432,3.0093,2.988,2.9779,2.9779,2.9779,2.9591,2.9227,2.9013,2.8599,2.7833,2.7153,2.6675,2.6512,2.6487,2.6487,2.6487,2.6487,2.6487,2.6487,2.6487,2.6487,2.6487,2.6487,2.6487,2.6487,2.6487,2.6487,2.6487,2.6487,2.6233,2.5769,2.5943,2.5511,2.485,2.4636,2.4636,2.4156,2.3621,2.325,2.2953,2.2289,2.1807,2.1807,2.1797,2.1787,2.1756,2.1745,2.1621,2.1424,2.1352,2.1207,2.0897,2.0715,2.0622,2.0586,2.0276,1.9927,1.9803,1.9544,1.9295,1.9204,1.9218,1.9318,1.945,1.9483,1.9572,1.9747,1.9802,1.9868,1.9998,2.0074,2.0085,2.0118,2.0118,2.0118,2.0118,2.0085,1.9922,1.9452,1.8993,1.8523,4.0121,4.0083,4.0083,3.931,3.8252,3.8299,3.7642,3.6568,3.643,3.6417,3.6405,3.6417,3.6417,3.6417,3.6417,3.6417,3.6405,3.6342,3.6044,3.5571,3.542,3.5119,3.4668,3.4161,3.3859,3.3796,3.3319,3.3124,3.3023,3.2541,3.2215,3.1989,3.1226,3.0758,3.062,3.0182,2.9842,2.9842,2.9829,2.9779,2.9716,2.9264,2.89,2.8687,2.7858,2.7153,2.6612,2.6524,2.6487,2.6487,2.6487,2.6487,2.6487,2.6487,2.6487,2.6487,2.6487,2.6487,2.6487,2.6487,2.6487,2.6487,2.6487,2.6452,2.6314,2.5838,2.5441,2.5158,2.4755,2.4264,2.4264,2.4156,2.3804,2.3065,2.2365,2.1959,2.1807,2.1807,2.1807,2.1807,2.1807,2.1807,2.1797,2.1735,2.1625,2.158,2.1342,2.1114,2.1073,2.0731,2.0276,2.0,1.9761,1.9544,1.9316,1.9108,1.9218,1.9285,1.9241,1.9274,1.9539,1.9671,1.9813,1.9944,2.0074,2.0085,2.0118,2.0118,2.0118,2.0107,2.0063,1.9998,1.9638,1.9222,1.8654,4.0542,4.0338,4.0173,3.9626,3.8892,3.855,3.7832,3.6958,3.6723,3.6546,3.6405,3.6417,3.6417,3.6417,3.6417,3.6417,3.6417,3.6405,3.6304,3.6056,3.5671,3.5433,3.5169,3.4726,3.4274,3.3859,3.3345,3.3124,3.3086,3.2923,3.2616,3.2202,3.2066,3.1688,3.1175,3.0792,3.0514,3.0319,2.998,2.9779,2.9779,2.9616,2.934,2.89,2.8537,2.816,2.7607,2.6901,2.6512,2.6499,2.6487,2.6487,2.6487,2.6487,2.6487,2.6487,2.6487,2.6487,2.6487,2.6487,2.6487,2.6487,2.6487,2.6487,2.6487,2.628,2.5886,2.5523,2.5511,2.5581,2.5075,2.4945,2.4371,2.3139,2.2777,2.2365,2.1883,2.1807,2.1807,2.1807,2.1807,2.1807,2.1807,2.1807,2.1807,2.1807,2.1652,2.1569,2.1507,2.1176,2.0897,2.07,2.0276,1.9803,1.9554,1.9326,1.9268,1.925,1.9142,1.9175,1.9407,1.9615,1.9747,1.9911,2.0042,2.0085,2.0118,2.0118,2.0118,2.0118,2.0096,1.9987,1.9824,1.9344,1.8731,4.0744,4.0504,4.0427,3.9969,3.9296,3.8872,3.8201,3.7389,3.701,3.6722,3.6534,3.6487,3.6546,3.6487,3.6452,3.6417,3.6417,3.6417,3.6417,3.6367,3.6031,3.5843,3.5734,3.5232,3.46,3.396,3.3545,3.3312,3.3124,3.3111,3.2923,3.2706,3.2537,3.2301,3.1909,3.1362,3.0981,3.0714,3.0387,3.0083,2.9868,2.9856,2.9731,2.9353,2.9038,2.88,2.8434,2.7626,2.7085,2.6801,2.6625,2.6533,2.6568,2.6555,2.6555,2.6533,2.6555,2.6555,2.6499,2.6487,2.6487,2.6487,2.6487,2.6487,2.6487,2.6487,2.6233,2.5943,2.5838,2.599,2.5734,2.5418,2.4838,2.3973,2.3287,2.2703,2.2035,2.2111,2.2063,2.1911,2.1807,2.1807,2.1807,2.1807,2.1807,2.1807,2.1807,2.1807,2.1756,2.1559,2.1373,2.1145,2.0741,2.029,1.9834,1.9599,1.936,1.9235,1.9098,1.9208,1.9374,1.9539,1.9704,1.9955,2.0085,2.0085,2.0118,2.0118,2.0118,2.0118,2.0118,2.0053,1.9867,1.9244,1.8654,4.0795,4.0555,4.0795,4.031,3.9535,3.9306,3.8656,3.7766,3.7347,3.7032,3.6781,3.6722,3.6722,3.6675,3.6534,3.6452,3.6405,3.6452,3.6417,3.6405,3.6329,3.6377,3.6194,3.5692,3.4977,3.4248,3.3991,3.3652,3.3318,3.3205,3.3227,3.3284,3.2794,3.2528,3.2651,3.1959,3.1478,3.1217,3.0976,3.0542,3.0021,3.0023,3.0101,3.005,2.9441,2.9164,2.9174,2.8691,2.806,2.7364,2.681,2.6636,2.6692,2.6692,2.6611,2.6555,2.6658,2.6577,2.6521,2.6499,2.6487,2.6487,2.6487,2.6487,2.6487,2.6487,2.6452,2.6314,2.5921,2.5769,2.6141,2.5886,2.5382,2.5087,2.3863,2.2767,2.2128,2.2542,2.2402,2.2035,2.1883,2.1807,2.1807,2.1807,2.1807,2.1807,2.1807,2.1807,2.1797,2.1683,2.1559,2.1321,2.1052,2.0731,2.0276,1.9806,1.9578,1.9476,1.93,1.9231,1.9407,1.9605,1.9736,1.9987,2.0118,2.0118,2.0118,2.0118,2.0118,2.0118,2.0118,2.0118,1.9813,1.9288,1.8818,4.1161,4.106,4.0946,4.0755,4.0398,4.0005,3.929,3.8482,3.8157,3.7621,3.7151,3.7015,3.7015,3.6968,3.6722,3.6615,3.6628,3.6628,3.6534,3.6452,3.6581,3.6534,3.6339,3.5991,3.5587,3.5047,3.4527,3.4097,3.3908,3.3541,3.3466,3.3628,3.3559,3.3482,3.3418,3.2972,3.2664,3.2288,3.1506,3.1058,3.0802,3.0458,3.0343,3.0279,3.0088,2.9998,3.0011,2.9525,2.8673,2.7601,2.7112,2.6807,2.6714,2.6726,2.676,2.6807,2.6671,2.6602,2.6624,2.6555,2.6521,2.6487,2.6521,2.6487,2.6487,2.6487,2.6487,2.6452,2.628,2.6245,2.6418,2.628,2.5921,2.5241,2.4045,2.3202,2.3217,2.2644,2.2214,2.2515,2.2149,2.1921,2.1807,2.1807,2.1807,2.1807,2.1807,2.1807,2.1807,2.1797,2.1673,2.158,2.1352,2.1093,2.07,2.0145,1.9841,1.9774,1.9544,1.9274,1.9506,1.978,1.9911,2.0085,2.0118,2.0118,2.0118,2.0118,2.0118,2.0118,2.0118,2.0107,1.9976,1.9573,1.9135,4.1198,4.1097,4.1097,4.0997,4.0869,4.0374,3.9705,3.9004,3.864,3.807,3.7397,3.7273,3.7261,3.7273,3.7015,3.6862,3.6875,3.6769,3.6722,3.6687,3.6722,3.6628,3.6505,3.6295,3.6079,3.5813,3.5263,3.4717,3.4286,3.3992,3.3866,3.3722,3.3852,3.3949,3.3969,3.3653,3.3359,3.298,3.2322,3.1819,3.1214,3.101,3.0752,3.056,3.0482,3.0444,3.0405,2.9929,2.9021,2.7953,2.7455,2.7233,2.699,2.6964,2.6977,2.7011,2.6863,2.6863,2.6807,2.676,2.6658,2.6624,2.6658,2.6636,2.6555,2.6521,2.6589,2.6499,2.6487,2.6487,2.6487,2.6487,2.6267,2.5804,2.4695,2.4034,2.4145,2.3658,2.3202,2.3001,2.259,2.2138,2.1883,2.1807,2.1807,2.1807,2.1807,2.1807,2.1807,2.1807,2.1797,2.1694,2.16,2.1362,2.1177,2.074,2.0139,2.0006,1.9929,1.9612,1.9605,1.9878,2.002,2.0085,2.0118,2.0118,2.0118,2.0118,2.0118,2.0118,2.0118,2.0096,1.9987,1.9834,1.9376,4.1174,4.0933,4.1211,4.1147,4.0906,4.0624,4.0106,3.9349,3.896,3.84,3.7746,3.7603,3.7564,3.7505,3.7261,3.7168,3.7121,3.6968,3.6956,3.6968,3.6909,3.6769,3.6862,3.6718,3.6557,3.6363,3.6085,3.5487,3.4939,3.4694,3.4358,3.4097,3.3929,3.4008,3.4176,3.3969,3.3653,3.3483,3.3224,3.2521,3.1719,3.1461,3.1202,3.075,3.0596,3.0571,3.0531,3.018,2.9406,2.8097,2.8029,2.7851,2.7488,2.7385,2.7286,2.7113,2.7134,2.7113,2.7045,2.6977,2.6909,2.6794,2.6863,2.6841,2.6624,2.6624,2.6624,2.6487,2.6487,2.6487,2.6487,2.6487,2.6452,2.6233,2.5711,2.5111,2.4671,2.485,2.4659,2.3482,2.3187,2.2628,2.2176,2.1835,2.1807,2.1807,2.1807,2.1807,2.1807,2.1807,2.1807,2.1787,2.1704,2.1669,2.1522,2.135,2.0701,2.0278,2.0227,2.0017,1.9736,1.9911,2.002,2.0118,2.0118,2.0118,2.0118,2.0118,2.0118,2.0118,2.0118,2.0118,2.0085,1.99,1.9551,4.1261,4.1211,4.1261,4.1261,4.1198,4.1104,4.0726,4.0125,3.9651,3.911,3.8481,3.805,3.7867,3.7841,3.769,3.7413,3.7492,3.74,3.7353,3.7366,3.7108,3.7155,3.7214,3.7108,3.6998,3.6873,3.665,3.6373,3.5987,3.529,3.4891,3.4851,3.4435,3.4272,3.4314,3.4259,3.4233,3.4066,3.374,3.3152,3.2436,3.1902,3.1486,3.0989,3.0874,3.0798,3.0723,3.0719,3.029,2.957,2.9113,2.872,2.8118,2.7941,2.7781,2.7457,2.7206,2.7159,2.7167,2.6998,2.6829,2.6943,2.6897,2.6726,2.6692,2.6679,2.6658,2.6521,2.6487,2.6521,2.6521,2.6487,2.6487,2.643,2.6314,2.6094,2.5838,2.504,2.4647,2.4468,2.3754,2.2927,2.2777,2.2214,2.2035,2.1845,2.1807,2.1807,2.1807,2.1807,2.1807,2.1807,2.1814,2.1769,2.1682,2.1539,2.1159,2.066,2.0577,2.0433,2.0149,1.9911,2.0053,2.0118,2.0118,2.0118,2.0118,2.0118,2.0107,2.0118,2.0151,2.0183,2.0161,1.9975,1.9824,4.2016,4.2052,4.2528,4.2431,4.2101,4.2466,4.2094,4.1186,4.0832,4.018,3.9448,3.9036,3.8796,3.8562,3.876,3.8747,3.8355,3.8277,3.7972,3.771,3.771,3.7848,3.7598,3.7459,3.7353,3.7407,3.7188,3.6949,3.6554,3.6119,3.5617,3.5141,3.4904,3.4672,3.4437,3.4397,3.4356,3.4358,3.4136,3.3692,3.3117,3.2542,3.1784,3.1156,3.0986,3.0949,3.0874,3.0949,3.0742,3.0418,3.0166,2.9666,2.8855,2.8651,2.8413,2.7991,2.7806,2.7535,2.7393,2.7222,2.71,2.7113,2.71,2.6998,2.693,2.6897,2.6829,2.6692,2.6671,2.6705,2.6589,2.6589,2.6602,2.6499,2.6487,2.6487,2.6349,2.5721,2.5146,2.5229,2.4587,2.4009,2.3486,2.2942,2.2654,2.2617,2.244,2.2365,2.1807,2.1807,2.1807,2.1807,2.1883,2.1869,2.1759,2.1686,2.1532,2.119,2.0982,2.0793,2.0553,2.0314,2.0085,2.0151,2.0216,2.0118,2.0118,2.0118,2.0291,2.0485,2.055,2.0453,2.0366,2.0321,2.0148,4.3033,4.3067,4.3923,4.3782,4.3211,4.3876,4.3471,4.2371,4.2173,4.162,4.0745,4.0482,4.0018,3.984,4.0158,4.0043,3.9593,3.9285,3.8854,3.8459,3.8549,3.8639,3.844,3.8154,3.7985,3.8057,3.7684,3.7286,3.7046,3.685,3.6304,3.5462,3.5214,3.5038,3.4646,3.4424,3.4397,3.4384,3.4345,3.4058,3.3574,3.3025,3.2306,3.1392,3.1013,3.0986,3.0986,3.0986,3.0973,3.1024,3.1024,3.0501,2.9872,2.9405,2.9144,2.8603,2.8495,2.8234,2.7808,2.7618,2.7525,2.7387,2.7369,2.7302,2.7134,2.7146,2.7079,2.6943,2.6841,2.6909,2.676,2.676,2.6692,2.6624,2.6602,2.6568,2.6533,2.6568,2.6176,2.5664,2.5206,2.4695,2.4348,2.3902,2.3632,2.335,2.3176,2.2927,2.2392,2.1949,2.1987,2.2279,2.2494,2.2633,2.2606,2.2114,2.1949,2.1707,2.1479,2.1232,2.096,2.0631,2.0424,2.0314,2.0302,2.0248,2.0302,2.0453,2.0667,2.0912,2.106,2.1092,2.0944,2.072,2.0537,4.4078,4.4078,4.4219,4.4219,4.4078,4.4266,4.4242,4.3841,4.3366,4.3076,4.2726,4.1817,4.1369,4.1149,4.07,4.0532,4.0403,4.0189,4.0015,3.9694,3.9533,3.9326,3.9708,3.9179,3.8957,3.876,3.8381,3.7919,3.7554,3.7201,3.6862,3.647,3.5726,3.5234,3.4999,3.4698,3.4397,3.4397,3.4397,3.4123,3.3744,3.3417,3.279,3.1718,3.1274,3.1052,3.1024,3.1024,3.1024,3.1024,3.1024,3.0856,3.0568,3.0189,2.9719,2.9274,2.9131,2.8869,2.8373,2.8118,2.7858,2.7546,2.7455,2.7382,2.7281,2.7268,2.7214,2.7079,2.6977,2.6977,2.6943,2.6943,2.6943,2.6922,2.6875,2.6841,2.676,2.6739,2.6739,2.6245,2.5746,2.5382,2.5146,2.4874,2.4516,2.4168,2.3852,2.3779,2.35,2.2894,2.2467,2.283,2.3302,2.3427,2.3551,2.2925,2.2518,2.2255,2.1985,2.1695,2.1412,2.1005,2.0764,2.1003,2.0757,2.0485,2.0582,2.0796,2.1008,2.1282,2.1491,2.1741,2.1678,2.1553,2.1313,4.5098,4.513,4.5613,4.5568,4.5235,4.5658,4.5522,4.5055,4.4755,4.4471,4.4085,4.3527,4.2882,4.251,4.2545,4.2129,4.1423,4.1239,4.093,4.0603,4.0518,4.0403,4.0689,4.0116,3.9986,3.9826,3.9458,3.8711,3.7965,3.7625,3.7344,3.6841,3.6109,3.5587,3.5221,3.4698,3.445,3.4397,3.4384,3.428,3.3979,3.377,3.2973,3.2045,3.1588,3.13,3.1013,3.1024,3.1024,3.1024,3.1024,3.1024,3.0895,3.0712,3.0307,2.9849,2.9719,2.9457,2.8987,2.8773,2.8525,2.8051,2.7913,2.7709,2.7494,2.7403,2.74,2.7281,2.7167,2.7134,2.7134,2.7146,2.7113,2.7024,2.7024,2.699,2.6909,2.6943,2.6875,2.6773,2.6521,2.6233,2.6082,2.5779,2.5381,2.5016,2.46,2.4516,2.4505,2.3891,2.3254,2.3438,2.3866,2.4036,2.4145,2.3781,2.3158,2.2845,2.2545,2.2278,2.2018,2.1686,2.1842,2.2095,2.1661,2.109,2.1008,2.125,2.1439,2.1647,2.1896,2.2144,2.2347,2.2347,2.2082,4.6121,4.6166,4.6975,4.6829,4.6299,4.6931,4.6829,4.6211,4.6107,4.5815,4.5376,4.5084,4.447,4.3761,4.3649,4.3334,4.2293,4.2237,4.1852,4.1505,4.1603,4.1561,4.1323,4.0944,4.0901,4.0859,4.0774,4.0014,3.8966,3.8599,3.8103,3.7629,3.6889,3.6136,3.5538,3.4972,3.4675,3.4605,3.4439,3.4397,3.428,3.3849,3.3195,3.2189,3.1941,3.1562,3.1274,3.1052,3.1037,3.1024,3.1024,3.1024,3.1024,3.1024,3.0777,3.0361,3.0283,2.9993,2.9614,2.9444,2.9161,2.8634,2.8616,2.832,2.8077,2.8025,2.7894,2.7712,2.7618,2.7452,2.7387,2.7335,2.7268,2.7167,2.7113,2.7079,2.7079,2.7113,2.7113,2.7079,2.7079,2.6943,2.6645,2.6543,2.6139,2.5849,2.5452,2.5487,2.5369,2.4815,2.4289,2.4217,2.4397,2.4565,2.4648,2.46,2.4036,2.357,2.3223,2.2894,2.2701,2.2502,2.2744,2.2962,2.2678,2.2198,2.195,2.1784,2.2101,2.2317,2.2421,2.2665,2.304,2.304,2.2798,4.7121,4.7121,4.7266,4.7207,4.7106,4.7266,4.7251,4.7121,4.7019,4.7091,4.678,4.6347,4.5665,4.4885,4.3781,4.3374,4.3145,4.301,4.2875,4.2603,4.2319,4.2415,4.2684,4.2114,4.1893,4.1811,4.1811,4.1254,4.0403,4.0173,3.9711,3.8925,3.8219,3.7517,3.6426,3.5764,3.5328,3.5385,3.4853,3.4522,3.4472,3.4106,3.3738,3.3184,3.2607,3.1926,3.1703,3.1376,3.1178,3.1024,3.1024,3.1024,3.1024,3.1024,3.0973,3.0908,3.083,3.0647,3.015,2.9983,2.9784,2.9314,2.9205,2.9131,2.8922,2.8843,2.8686,2.8342,2.8281,2.809,2.7769,2.7535,2.7496,2.7449,2.7408,2.7361,2.7315,2.7281,2.7281,2.7268,2.7268,2.7167,2.6964,2.6964,2.6897,2.6598,2.638,2.638,2.6195,2.5615,2.5498,2.5463,2.5181,2.5287,2.5463,2.5381,2.4981,2.4385,2.3994,2.3689,2.3699,2.3628,2.3497,2.3586,2.3417,2.3107,2.2632,2.2567,2.2854,2.2997,2.304,2.3424,2.3894,2.3734,2.3424,4.7309,4.7309,4.7309,4.7309,4.7309,4.7309,4.7309,4.7309,4.7309,4.7309,4.7264,4.704,4.6307,4.5244,4.4272,4.3648,4.3379,4.3305,4.3305,4.3305,4.2915,4.293,4.309,4.2955,4.2754,4.2659,4.2699,4.2659,4.1961,4.1071,4.0289,4.0033,3.9432,3.8905,3.7828,3.7165,3.692,3.6738,3.6262,3.5856,3.5734,3.5517,3.5087,3.4353,3.4194,3.3371,3.2274,3.216,3.1675,3.1279,3.1024,3.1024,3.1024,3.1024,3.0986,3.0986,3.0973,3.0856,3.0647,3.0607,3.0268,2.9941,2.9732,2.9614,2.9405,2.9336,2.9297,2.897,2.8882,2.8726,2.8451,2.8203,2.8059,2.7968,2.7785,2.7594,2.7488,2.7469,2.7469,2.7456,2.7423,2.7335,2.7235,2.7235,2.7201,2.7032,2.6905,2.6973,2.6769,2.6368,2.6471,2.6824,2.6436,2.6114,2.6299,2.638,2.5953,2.544,2.4957,2.4755,2.494,2.4883,2.465,2.4681,2.4834,2.4306,2.3468,2.3303,2.3556,2.3582,2.3645,2.3894,2.4125,2.4054,2.3806,4.7309,4.7309,4.7309,4.7309,4.7309,4.7309,4.7309,4.7309,4.7309,4.7309,4.7249,4.707,4.6352,4.5364,4.4571,4.3873,4.3319,4.3305,4.3305,4.3305,4.3305,4.3265,4.3305,4.325,4.325,4.3305,4.317,4.313,4.278,4.2085,4.1365,4.0972,4.0576,3.997,3.9423,3.857,3.7856,3.731,3.7247,3.7,3.6802,3.6763,3.6186,3.5792,3.5551,3.5097,3.3353,3.3254,3.2942,3.225,3.2031,3.2028,3.178,3.175,3.175,3.175,3.1786,3.175,3.1513,3.1288,3.0898,3.065,3.037,3.0202,2.9902,2.9742,2.9575,2.9523,2.9483,2.9418,2.9258,2.8804,2.8686,2.8425,2.815,2.7915,2.7673,2.7633,2.7555,2.7503,2.7456,2.749,2.7436,2.7469,2.7436,2.7369,2.7403,2.7503,2.7255,2.6905,2.704,2.7323,2.7142,2.6756,2.6905,2.6973,2.6654,2.638,2.5896,2.551,2.5469,2.5635,2.5608,2.5764,2.5949,2.5672,2.4937,2.4532,2.4151,2.4001,2.3894,2.3995,2.4125,2.4125,2.4083,4.7309,4.7309,4.7309,4.7309,4.7309,4.7309,4.7309,4.7309,4.7309,4.7309,4.7219,4.6683,4.6127,4.5304,4.4676,4.3992,4.3305,4.3305,4.3305,4.3305,4.3305,4.3305,4.3305,4.3305,4.3305,4.3305,4.3305,4.3305,4.3265,4.3036,4.24,4.1988,4.172,4.0907,4.0174,3.9491,3.8499,3.8004,3.7882,3.7744,3.7357,3.7112,3.694,3.6736,3.637,3.5967,3.5741,3.5255,3.4607,3.3765,3.354,3.3345,3.2897,3.2717,3.2676,3.2662,3.2662,3.2698,3.2662,3.1969,3.1492,3.1549,3.1299,3.0764,3.0618,3.0788,3.0607,3.021,3.0181,2.9948,2.9633,2.9235,2.9209,2.9039,2.8752,2.8464,2.8164,2.7764,2.7686,2.7555,2.7503,2.7503,2.7503,2.7503,2.7503,2.7436,2.7436,2.7503,2.7503,2.7255,2.7323,2.7456,2.7469,2.7356,2.7356,2.7255,2.704,2.6837,2.6483,2.6,2.5673,2.5921,2.6401,2.6447,2.6543,2.6479,2.6335,2.5631,2.4971,2.4344,2.4083,2.4112,2.4125,2.4125,2.4125,4.7309,4.7309,4.7309,4.7309,4.7309,4.7309,4.7309,4.7309,4.7309,4.7309,4.7279,4.6995,4.6322,4.5454,4.505,4.4302,4.3409,4.3305,4.3305,4.3305,4.3305,4.3305,4.3305,4.3305,4.3305,4.3305,4.3305,4.3305,4.3305,4.3305,4.317,4.2875,4.2699,4.2555,4.1759,4.0771,3.9819,3.9165,3.8907,3.8686,3.8598,3.8383,3.8182,3.7686,3.8177,3.7267,3.6377,3.6419,3.5772,3.5093,3.456,3.4207,3.3868,3.3564,3.3346,3.3332,3.3367,3.3541,3.3699,3.2911,3.2376,3.1846,3.1455,3.1061,3.1161,3.1024,3.1217,3.1079,3.0853,3.0496,3.1002,3.0332,2.9784,2.9653,2.9405,2.9052,2.8795,2.8449,2.8007,2.7941,2.7659,2.7503,2.7503,2.7503,2.7503,2.7503,2.7503,2.7503,2.7503,2.7503,2.7503,2.7503,2.7503,2.7503,2.7503,2.7423,2.739,2.7188,2.6985,2.6667,2.6346,2.6722,2.7085,2.7092,2.7028,2.6921,2.6681,2.6321,2.5698,2.4831,2.4347,2.4112,2.4125,2.4125,2.4125,4.7309,4.7309,4.7309,4.7309,4.7309,4.7309,4.7309,4.7309,4.7309,4.7309,4.7309,4.7264,4.6561,4.5589,4.5244,4.4541,4.3589,4.3305,4.3305,4.3305,4.3305,4.3305,4.3305,4.3305,4.3305,4.3305,4.3305,4.3305,4.3305,4.3305,4.325,4.325,4.3305,4.3195,4.2981,4.2267,4.1265,4.0457,4.0023,3.9559,3.9427,3.9301,3.9192,3.8612,3.8987,3.8627,3.7754,3.766,3.7339,3.6476,3.5733,3.5201,3.4743,3.4315,3.3971,3.3865,3.3934,3.4138,3.4308,3.3939,3.3213,3.2577,3.2173,3.1823,3.1616,3.1482,3.1659,3.2191,3.1649,3.1334,3.1951,3.1057,3.0665,3.0619,2.9886,2.951,2.9561,2.9315,2.8746,2.8342,2.8046,2.7785,2.7503,2.7503,2.7503,2.7503,2.7503,2.7503,2.7503,2.7503,2.7503,2.7503,2.7503,2.7503,2.7503,2.7469,2.7423,2.7423,2.7255,2.7323,2.7255,2.7503,2.7503,2.7351,2.7259,2.7268,2.7027,2.6661,2.5986,2.5162,2.4661,2.4191,2.4125,2.4125,2.4125,4.7309,4.7309,4.7309,4.7309,4.7309,4.7309,4.7309,4.7309,4.7309,4.7309,4.7309,4.7294,4.6621,4.5589,4.5379,4.4601,4.3663,4.3364,4.3305,4.3305,4.3305,4.3305,4.3305,4.3305,4.3305,4.3305,4.3305,4.3305,4.3305,4.3305,4.3305,4.3305,4.3305,4.3305,4.3269,4.2671,4.1707,4.0606,4.0412,3.9963,3.9544,3.9388,3.9316,3.928,3.9301,3.9052,3.889,3.8773,3.8498,3.7937,3.7286,3.6783,3.6373,3.5648,3.5311,3.5299,3.5258,3.5326,3.5344,3.4643,3.3973,3.3283,3.2861,3.2769,3.284,3.2627,3.2412,3.3003,3.2101,3.1713,3.1663,3.1636,3.1665,3.1481,3.0787,3.0552,3.0663,3.0179,2.9613,2.9289,2.8718,2.8164,2.7771,2.7503,2.7503,2.7503,2.7503,2.7503,2.7503,2.7503,2.7503,2.7503,2.7503,2.7503,2.7503,2.7503,2.7503,2.7503,2.7503,2.7503,2.7503,2.7503,2.7503,2.7503,2.7464,2.7372,2.7236,2.7027,2.6216,2.5419,2.47,2.4269,2.4178,2.4125,2.4125,4.7309,4.7309,4.7309,4.7309,4.7309,4.7309,4.7309,4.7309,4.7309,4.7309,4.7309,4.7309,4.6875,4.6097,4.5424,4.4796,4.4047,4.3394,4.3305,4.3305,4.3305,4.3305,4.3305,4.3305,4.3305,4.3305,4.3305,4.3305,4.3305,4.3305,4.3305,4.3305,4.3305,4.3305,4.3165,4.2686,4.1901,4.1153,4.0621,4.0083,3.9493,3.9403,3.9388,3.9388,3.9388,3.9388,3.9388,3.9388,3.9209,3.8931,3.8332,3.7868,3.7449,3.6776,3.6163,3.6013,3.5863,3.5504,3.5472,3.5133,3.4725,3.409,3.3596,3.3402,3.3143,3.3003,3.3283,3.3526,3.2875,3.2791,3.3255,3.2847,3.2749,3.2713,3.2337,3.2323,3.2179,3.1276,3.0589,3.0486,3.0092,2.8682,2.7898,2.7847,2.7834,2.7549,2.7503,2.7503,2.7503,2.7503,2.7503,2.7503,2.7503,2.7503,2.7503,2.7503,2.7503,2.7503,2.7503,2.7503,2.7503,2.7503,2.7503,2.7503,2.7503,2.7477,2.732,2.7079,2.6438,2.5707,2.5105,2.4452,2.4164,2.4125,2.4125,4.7309,4.7309,4.7309,4.7309,4.7309,4.7309,4.7309,4.7309,4.7309,4.7309,4.7309,4.7294,4.6935,4.6277,4.5603,4.4945,4.4287,4.3604,4.3305,4.3305,4.3305,4.3305,4.3305,4.3305,4.3305,4.3305,4.3305,4.3305,4.3305,4.3305,4.3305,4.3305,4.3305,4.3305,4.317,4.2865,4.2417,4.1728,4.116,4.0487,3.9948,3.9619,3.9388,3.9388,3.9388,3.9388,3.9388,3.9388,3.9388,3.923,3.8871,3.8422,3.8063,3.7524,3.6746,3.6402,3.5908,3.5564,3.5472,3.5472,3.5085,3.4758,3.4221,3.4036,3.3885,3.3768,3.409,3.4192,3.3748,3.3802,3.4041,3.3596,3.3457,3.3402,3.3353,3.3325,3.3295,3.2347,3.1764,3.1681,3.13,2.9761,2.8392,2.8232,2.8272,2.7881,2.7503,2.7536,2.7556,2.7503,2.7503,2.7503,2.7503,2.7503,2.7503,2.7503,2.7503,2.7503,2.7503,2.7503,2.7503,2.7503,2.7503,2.7503,2.7503,2.7477,2.7425,2.7131,2.67,2.6216,2.568,2.5001,2.4295,2.4125,2.4125,4.7309,4.7309,4.7309,4.7309,4.7309,4.7309,4.7309,4.7309,4.7309,4.7309,4.7309,4.7309,4.701,4.6352,4.5633,4.499,4.4347,4.3688,4.3364,4.3305,4.3305,4.3305,4.3305,4.3305,4.3305,4.3305,4.3305,4.3305,4.3305,4.3305,4.3305,4.3305,4.3305,4.3305,4.326,4.314,4.2791,4.2177,4.1557,4.0861,4.0277,3.9709,3.9448,3.9388,3.9388,3.9388,3.9388,3.9388,3.9388,3.923,3.8856,3.8586,3.8242,3.7808,3.718,3.6522,3.5878,3.5714,3.5489,3.5489,3.5489,3.5279,3.5311,3.5392,3.518,3.4658,3.4758,3.4739,3.439,3.4293,3.4211,3.4022,3.3851,3.3817,3.3782,3.3905,3.4143,3.369,3.3115,3.2792,3.2503,3.1397,2.9939,2.942,2.9124,2.8656,2.8317,2.7941,2.7875,2.7523,2.7523,2.7503,2.7503,2.7503,2.7503,2.7503,2.7503,2.7503,2.7503,2.7503,2.7503,2.7503,2.7503,2.7503,2.7503,2.7477,2.7438,2.7346,2.7163,2.6687,2.6112,2.5419,2.4674,2.4217,2.4125,4.7309,4.7309,4.7309,4.7309,4.7309,4.7309,4.7309,4.7309,4.7309,4.7309,4.7309,4.7309,4.713,4.692,4.5843,4.5259,4.4631,4.3988,4.3454,4.3305,4.3305,4.3305,4.3305,4.3305,4.3305,4.3305,4.3305,4.3305,4.3305,4.3305,4.3305,4.3305,4.3305,4.3305,4.3305,4.3305,4.2925,4.2417,4.1811,4.1115,4.0442,3.9798,3.9508,3.9388,3.9388,3.9388,3.9388,3.9388,3.9388,3.9284,3.923,3.911,3.908,3.8467,3.7734,3.666,3.6237,3.6043,3.5609,3.5504,3.5489,3.5489,3.5489,3.5489,3.5392,3.5326,3.5198,3.5067,3.4986,3.4872,3.4839,3.4706,3.4606,3.4558,3.4558,3.4624,3.4791,3.4451,3.396,3.4037,3.3728,3.273,3.1302,3.0583,3.0234,2.9711,2.921,2.8741,2.8281,2.7934,2.7556,2.7523,2.7503,2.7503,2.7503,2.7503,2.7503,2.7503,2.7503,2.7503,2.7503,2.7503,2.7503,2.7503,2.7503,2.7503,2.749,2.7398,2.7307,2.6987,2.6457,2.5777,2.5136,2.4648,2.4204,4.7309,4.7309,4.7309,4.7309,4.7309,4.7309,4.7309,4.7309,4.7309,4.7309,4.7309,4.7309,4.716,4.6711,4.5783,4.511,4.4736,4.3813,4.3305,4.3305,4.3305,4.3305,4.3305,4.3305,4.3305,4.3305,4.3305,4.3305,4.3305,4.3305,4.3305,4.3305,4.3305,4.3305,4.3305,4.3275,4.311,4.2566,4.1938,4.1302,4.0606,3.9918,3.9508,3.9388,3.9388,3.9388,3.9388,3.9388,3.9388,3.9388,3.9388,3.9388,3.9269,3.8736,3.8257,3.7289,3.6671,3.6372,3.5983,3.5624,3.5549,3.5504,3.5504,3.5489,3.5489,3.5424,3.5424,3.5392,3.5424,3.5457,3.5457,3.5457,3.5457,3.5424,3.5424,3.5457,3.5264,3.5019,3.5055,3.5204,3.4635,3.3707,3.2782,3.2051,3.1332,3.074,3.0192,2.9743,2.9136,2.8552,2.7974,2.7556,2.7536,2.7503,2.7536,2.7556,2.7536,2.7536,2.7503,2.7503,2.7503,2.7503,2.7503,2.7503,2.7503,2.7503,2.7503,2.749,2.7372,2.7079,2.6837,2.6327,2.5698,2.5123,2.4648,4.7309,4.7309,4.7309,4.7309,4.7309,4.7309,4.7309,4.7309,4.7309,4.7309,4.7309,4.7309,4.6965,4.6411,4.5618,4.4945,4.4421,4.3648,4.3305,4.3305,4.3305,4.3305,4.3305,4.3305,4.3305,4.3305,4.3305,4.3305,4.3305,4.3305,4.3305,4.3305,4.3305,4.3305,4.3305,4.3305,4.3185,4.3,4.2102,4.1317,4.0965,4.0247,3.9388,3.9388,3.9388,3.9388,3.9388,3.9388,3.9388,3.9388,3.9388,3.9388,3.9215,3.896,3.8556,3.8093,3.7345,3.6896,3.6477,3.6058,3.5774,3.5654,3.5519,3.5504,3.5489,3.5489,3.5489,3.5489,3.5489,3.5489,3.5489,3.5489,3.5489,3.5489,3.5489,3.5489,3.5392,3.5264,3.5297,3.5427,3.5225,3.4375,3.3976,3.327,3.2826,3.1994,3.1433,3.1002,3.0267,2.9522,2.8833,2.8139,2.8059,2.8091,2.7822,2.7822,2.7623,2.759,2.759,2.7503,2.7503,2.7503,2.7503,2.7503,2.7503,2.7503,2.749,2.7477,2.7464,2.7359,2.7118,2.685,2.6313,2.5685,2.511,4.7309,4.7309,4.7309,4.7309,4.7309,4.7309,4.7309,4.7309,4.7309,4.7309,4.7309,4.7264,4.6905,4.6187,4.5574,4.4915,4.4212,4.3589,4.3349,4.3305,4.3305,4.3305,4.3305,4.3305,4.3305,4.3305,4.3305,4.3305,4.3305,4.3305,4.3305,4.3305,4.3305,4.3305,4.3305,4.3305,4.326,4.3215,4.2252,4.1527,4.1205,4.0277,3.9388,3.9388,3.9388,3.9388,3.9388,3.9388,3.9388,3.9388,3.9388,3.9388,3.9358,3.9194,3.8901,3.8437,3.8048,3.7614,3.7135,3.6626,3.6267,3.6028,3.5878,3.5624,3.5489,3.5489,3.5489,3.5489,3.5489,3.5489,3.5489,3.5489,3.5489,3.5489,3.5489,3.5489,3.5489,3.5489,3.5489,3.5489,3.5489,3.5242,3.4857,3.4572,3.4201,3.3708,3.3203,3.2604,3.1714,3.0945,3.0262,2.9606,2.9121,2.8935,2.85,2.8222,2.8157,2.7941,2.7875,2.7723,2.7556,2.7623,2.7723,2.7556,2.7503,2.7556,2.7556,2.749,2.7464,2.7451,2.7372,2.7118,2.6863,2.6313,2.5685,4.7309,4.7309,4.7309,4.7309,4.7309,4.7309,4.7309,4.7309,4.7309,4.7309,4.7309,4.7249,4.6785,4.5992,4.5439,4.4706,4.3962,4.3484,4.3334,4.3305,4.3305,4.3305,4.3305,4.3305,4.3305,4.3305,4.3305,4.3305,4.3305,4.3305,4.3305,4.3305,4.3305,4.3305,4.3305,4.3305,4.3305,4.3245,4.2252,4.1782,4.1354,4.0262,3.9448,3.9388,3.9388,3.9388,3.9388,3.9388,3.9388,3.9388,3.9388,3.9388,3.9388,3.9343,3.9215,3.8886,3.8542,3.8227,3.7778,3.7315,3.6806,3.6522,3.6252,3.6013,3.5504,3.5489,3.5489,3.5489,3.5489,3.5489,3.5489,3.5489,3.5489,3.5489,3.5489,3.5489,3.5489,3.5489,3.5489,3.5489,3.5489,3.5427,3.518,3.515,3.4837,3.4703,3.4306,3.3918,3.3069,3.2289,3.1649,3.0968,3.0385,2.9682,2.9111,2.8935,2.8871,2.8583,2.8241,2.8208,2.8222,2.8072,2.7973,2.7973,2.7875,2.7723,2.7723,2.7743,2.7556,2.7477,2.7451,2.7372,2.7151,2.696,2.6454,4.7309,4.7309,4.7309,4.7309,4.7309,4.7309,4.7309,4.7309,4.7309,4.7309,4.7264,4.7189,4.6396,4.5663,4.5229,4.4332,4.3648,4.3394,4.3305,4.3305,4.3305,4.3305,4.3305,4.3305,4.3305,4.3305,4.3305,4.3305,4.3305,4.3305,4.3305,4.3305,4.3305,4.3305,4.3305,4.3305,4.3305,4.3165,4.2581,4.2096,4.122,4.0232,3.9723,3.9463,3.9388,3.9388,3.9388,3.9388,3.9388,3.9388,3.9388,3.9388,3.9388,3.9388,3.9388,3.9185,3.8901,3.8661,3.8392,3.7928,3.7389,3.6956,3.6686,3.6282,3.5774,3.5564,3.5564,3.5519,3.5519,3.5504,3.5504,3.5489,3.5489,3.5489,3.5489,3.5489,3.5489,3.5489,3.5489,3.5489,3.5489,3.5489,3.5489,3.5474,3.5429,3.534,3.513,3.4803,3.4291,3.3597,3.2921,3.2116,3.1358,3.0639,2.982,2.9611,2.9563,2.9205,2.8889,2.8889,2.8839,2.8712,2.8629,2.8565,2.8468,2.8338,2.8189,2.8157,2.7941,2.7809,2.7762,2.7855,2.7873,2.7645,2.7296,4.7309,4.7309,4.7309,4.7309,4.7309,4.7309,4.7309,4.7309,4.7309,4.7309,4.7189,4.6681,4.6022,4.5289,4.5289,4.4571,4.3469,4.3305,4.3305,4.3305,4.3305,4.3305,4.3305,4.3305,4.3305,4.3305,4.3305,4.3305,4.3305,4.3305,4.3305,4.3305,4.3305,4.3305,4.3305,4.3305,4.3275,4.315,4.2851,4.2351,4.1946,4.098,4.0008,3.9679,3.9388,3.9388,3.9388,3.9388,3.9388,3.9388,3.9388,3.9388,3.9388,3.9388,3.9388,3.9373,3.914,3.9125,3.8856,3.8497,3.8003,3.7734,3.736,3.6611,3.6193,3.5848,3.5789,3.5639,3.5609,3.5564,3.5549,3.5504,3.5489,3.5489,3.5489,3.5489,3.5489,3.5489,3.5489,3.5489,3.5489,3.5489,3.5489,3.5489,3.5489,3.5429,3.5415,3.507,3.4696,3.4352,3.4038,3.3271,3.2358,3.1438,3.055,3.0358,3.0222,2.9827,2.958,2.958,2.9518,2.9393,2.93,2.9268,2.9205,2.9142,2.8953,2.8776,2.8712,2.8615,2.8436,2.839,2.8414,2.8461,2.8252]}]]